[[{"header":{"parameterUnit":"m.s-1","parameterCategory":1,"la1":31.0,"la2":29.5877,"lo1":-88.7671,"lo2":-86.6584,"dy":0.0162,"dx":0.0185,"nx":115,"ny":88,"refTime":"2026-05-11T00:00:00:Z","depth":0,"parameterNumber":2,"parameterNumberName":"U-component_of_WINDS"},"data":[0.0,0.0,0.0,0.0,0.0,0.0,0.0,0.0,0.0,0.0,0.0,0.0,0.0,0.0,0.0,0.0,0.0,0.0,0.0,0.0,0.0,0.0,0.0,0.0,0.0,0.0,0.0,0.0,0.0,0.0,0.0,0.0,0.0,0.0,0.0,0.0,0.0,0.0,0.0,0.0,0.0,0.0,0.0,0.0,0.0,0.0,0.0,0.0,0.0,0.0,0.0,0.0,0.0,0.0,0.0,0.0,0.0,0.0,0.0,0.0,0.0,0.0,0.0,0.0,0.0,0.0,0.0,0.0,0.0,0.0,0.0,0.0,0.0,0.0,0.0,0.0,0.0,0.0,0.0,0.0,0.0,0.0,0.0,0.0,0.0,0.0,0.0,0.0,0.0,0.0,0.0,0.0,0.0,0.0,0.0,0.0,0.0,0.0,0.0,0.0,0.0,0.0,0.0,0.0,0.0,0.0,0.0,0.0,0.0,0.0,0.0,0.0,0.0,0.0,0.0,0.0,0.0,0.0,0.0,0.0,0.0,0.0,0.0,0.0,0.0,0.0,0.0,0.0,0.0,0.0,0.0,0.0,0.0,0.0,0.0,0.0,0.0,0.0,0.0,0.0,0.0,0.0,0.0,0.0,0.0,0.0,0.0,0.0,0.0,0.0,0.0,0.0,0.0,0.0,0.0,0.0,0.0,0.0,0.0,0.0,0.0,0.0,0.0,0.0,0.0,0.0,0.0,0.0,0.0,0.0,0.0,0.0,0.0,0.0,0.0,0.0,0.0,0.0,0.0,0.0,0.0,0.0,0.0,0.0,0.0,0.0,0.0,0.0,0.0,0.0,0.0,0.0,0.0,0.0,0.0,0.0,0.0,0.0,0.0,0.0,0.0,0.0,0.0,0.0,0.0,0.0,0.0,0.0,0.0,0.0,0.0,0.0,0.0,0.0,0.0,0.0,0.0,0.0,0.0,0.0,0.0,0.0,0.0,0.0,0.0,0.0,0.0,0.0,0.0,0.0,0.0,0.0,0.0,0.0,0.0,0.0,0.0,0.0,0.0,0.0,0.0,0.0,0.0,0.0,0.0,0.0,0.0,0.0,0.0,0.0,0.0,0.0,0.0,0.0,0.0,0.0,0.0,0.0,0.0,0.0,0.0,0.0,0.0,0.0,0.0,0.0,0.0,0.0,0.0,0.0,0.0,0.0,0.0,0.0,0.0,0.0,0.0,0.0,0.0,0.0,0.0,0.0,0.0,0.0,0.0,0.0,0.0,0.0,0.0,0.0,0.0,0.0,0.0,0.0,0.0,0.0,0.0,0.0,0.0,0.0,0.0,0.0,0.0,0.0,0.0,0.0,0.0,0.0,0.0,0.0,0.0,0.0,0.0,0.0,0.0,0.0,0.0,0.0,0.0,0.0,0.0,0.0,0.0,0.0,0.0,0.0,0.0,0.0,0.0,0.0,0.0,0.0,0.0,0.0,0.0,0.0,0.0,0.0,0.0,0.0,0.0,0.0,0.0,0.0,0.0,0.0,0.0,0.0,0.0,0.0,0.0,0.0,0.0,0.0,0.0,0.0,0.0,0.0,0.0,0.0,0.0,0.0,0.0,0.0,0.0,0.0,0.0,0.0,0.0,0.0,0.0,0.0,0.0,0.0,0.0,0.0,0.0,0.0,0.0,0.0,0.0,0.0,0.0,0.0,0.0,0.0,0.0,0.0,0.0,0.0,0.0,0.0,0.0,0.0,0.0,0.0,0.0,0.0,0.0,0.0,0.0,0.0,0.0,0.0,0.0,0.0,0.0,0.0,0.0,0.0,0.0,0.0,0.0,0.0,0.0,0.0,0.0,0.0,0.0,0.0,0.0,0.0,0.0,0.0,0.0,0.0,0.0,0.0,0.0,0.0,0.0,0.0,0.0,0.0,0.0,0.0,0.0,0.0,0.0,0.0,0.0,0.0,0.0,0.0,0.0,0.0,0.0,0.0,0.0,0.0,0.0,0.0,0.0,0.0,0.0,0.0,0.0,0.0,0.0,0.0,0.0,0.0,0.0,0.0,0.0,0.0,0.0,0.0,0.0,0.0,0.0,0.0,0.0,0.0,0.0,0.0,0.0,0.0,0.0,0.0,0.0,0.0,0.0,0.0,0.0,0.0,0.0,0.0,0.0,0.0,0.0,0.0,0.0,0.0,0.0,0.0,0.0,0.0,0.0,0.0,0.0,0.0,0.0,0.0,0.0,0.0,0.0,0.0,0.0,0.0,0.0,0.0,0.0,0.0,0.0,0.0,0.0,0.0,0.0,0.0,0.0,0.0,0.0,0.0,0.0,0.0,0.0,0.0,0.0,0.0,0.0,0.0,0.0,0.0,0.0,0.0,0.0,0.0,0.0,0.0,0.0,0.0,0.0,0.0,0.0,0.0,0.0,0.0,0.0,0.0,0.0,0.0,0.0,0.0,0.0,0.0,0.0,0.0,0.0,0.0,0.0,0.0,0.0,0.0,0.0,0.0,0.0,0.0,0.0,0.0,0.0,0.0,0.0,0.0,0.0,0.0,0.0,0.0,0.0,0.0,0.0,0.0,0.0,0.0,0.0,0.0,0.0,0.0,0.0,0.0,0.0,0.0,0.0,0.0,0.0,0.0,0.0,0.0,0.0,0.0,0.0,0.0,0.0,0.0,0.0,0.0,0.0,0.0,0.0,0.0,0.0,0.0,0.0,0.0,0.0,0.0,0.0,0.0,0.0,0.0,0.0,0.0,0.0,0.0,0.0,0.0,0.0,0.0,0.0,0.0,0.0,0.0,0.0,0.0,0.0,0.0,0.0,0.0,0.0,0.0,0.0,0.0,0.0,0.0,0.0,0.0,0.0,0.0,0.0,0.0,0.0,0.0,0.0,0.0,0.0,0.0,0.0,0.0,0.0,0.0,0.0,0.0,0.0,0.0,0.0,0.0,0.0,0.0,0.0,0.0,0.0,0.0,0.0,0.0,0.0,0.0,0.0,0.0,0.0,0.0,0.0,0.0,0.0,0.0,0.0,0.0,0.0,0.0,0.0,0.0,0.0,0.0,0.0,0.0,0.0,0.0,0.0,0.0,0.0,0.0,0.0,0.0,0.0,0.0,0.0,0.0,0.0,0.0,0.0,0.0,0.0,0.0,0.0,0.0,0.0,0.0,0.0,0.0,0.0,0.0,0.0,0.0,0.0,0.0,0.0,0.0,0.0,0.0,0.0,0.0,0.0,0.0,0.0,0.0,0.0,0.0,0.0,0.0,0.0,0.0,0.0,0.0,0.0,0.0,0.0,0.0,0.0,0.0,0.0,0.0,0.0,0.0,0.0,0.0,0.0,0.0,0.0,0.0,0.0,0.0,0.0,0.0,0.0,0.0,0.0,0.0,0.0,0.0,0.0,0.0,0.0,0.0,0.0,0.0,0.0,0.0,0.0,0.0,0.0,0.0,0.0,0.0,0.0,0.0,0.0,0.0,0.0,0.0,0.0,0.0,0.0,0.0,0.0,0.0,0.0,0.0,0.0,0.0,0.0,0.0,0.0,0.0,0.0,0.0,0.0,0.0,0.0,0.0,0.0,0.0,0.0,0.0,0.0,0.0,0.0,0.0,0.0,0.0,0.0,0.0,0.0,0.0,0.0,0.0,0.0,0.0,0.0,0.0,0.0,0.0,0.0,0.0,0.0,0.0,0.0,0.0,0.0,0.0,0.0,0.0,0.0,0.0,0.0,0.0,0.0,0.0,0.0,0.0,0.0,0.0,0.0,0.0,0.0,0.0,0.0,0.0,0.0,0.0,0.0,0.0,0.0,0.0,0.0,0.0,0.0,0.0,0.0,0.0,0.0,0.0,0.0,0.0,0.0,0.0,0.0,0.0,0.0,0.0,0.0,0.0,0.0,0.0,0.0,0.0,0.0,0.0,0.0,0.0,0.0,0.0,0.0,0.0,0.0,0.0,0.0,0.0,0.0,0.0,0.0,0.0,0.0,0.0,0.0,0.0,0.0,0.0,0.0,0.0,0.0,0.0,0.0,0.0,0.0,0.0,0.0,0.0,0.0,0.0,0.0,0.0,0.0,0.0,0.0,0.0,0.0,0.0,0.0,0.0,0.0,0.0,0.0,0.0,0.0,0.0,0.0,0.0,0.0,0.0,0.0,0.0,0.0,0.0,0.0,0.0,0.0,0.0,0.0,0.0,0.0,0.0,0.0,0.0,0.0,0.0,0.0,0.0,0.0,0.0,0.0,0.0,0.0,0.0,0.0,0.0,0.0,0.0,1.893,0.0,0.0,0.0,0.0,0.0,0.0,0.0,0.0,0.0,0.0,0.0,0.0,0.0,0.0,0.0,0.0,0.0,0.0,0.0,0.0,0.0,0.0,0.0,0.0,0.0,0.0,0.0,0.0,0.0,0.0,0.0,0.0,0.0,0.0,0.0,0.0,0.0,0.0,0.0,0.0,0.0,0.0,0.0,0.0,0.0,0.0,0.0,0.0,0.0,0.0,0.0,0.0,0.0,0.0,0.0,0.0,0.0,0.0,0.0,0.0,0.0,0.0,0.0,0.0,0.0,0.0,0.0,0.0,0.0,0.0,0.0,0.0,0.0,0.0,0.0,0.0,0.0,0.0,0.0,0.0,0.0,0.0,0.0,0.0,0.0,0.0,0.0,0.0,0.0,0.0,0.0,0.0,0.0,0.0,0.0,0.0,0.0,0.0,0.0,0.0,0.0,0.0,0.0,0.0,0.0,0.0,0.0,0.0,0.0,0.0,2.2134,2.1806,2.1045,2.0297,1.9527,0.0,0.0,0.0,0.0,0.0,0.0,0.0,0.0,0.0,0.0,0.0,0.0,0.0,0.0,0.0,0.0,0.0,0.0,0.0,0.0,0.0,0.0,0.0,0.0,0.0,0.0,0.0,0.0,0.0,0.0,0.0,0.0,0.0,0.0,0.0,0.0,0.0,0.0,0.0,0.0,0.0,0.0,0.0,0.0,0.0,0.0,0.0,0.0,0.0,0.0,0.0,0.0,0.0,0.0,0.0,0.0,0.0,0.0,0.0,0.0,0.0,0.0,0.0,0.0,0.0,0.0,0.0,0.0,0.0,0.0,0.0,0.0,0.0,0.0,0.0,0.0,0.0,0.0,0.0,0.0,0.0,0.0,0.0,0.0,0.0,0.0,0.0,0.0,0.0,0.0,0.0,0.0,0.0,0.0,0.0,0.0,0.0,0.0,0.0,0.0,0.0,0.0,0.0,0.0,0.0,0.0,0.0,0.0,0.0,0.0,0.0,0.0,2.1925,2.0991,2.0055,0.0,0.0,0.0,0.0,0.0,0.0,0.0,0.0,0.0,0.0,0.0,0.0,0.0,0.0,0.0,0.0,0.0,0.0,0.0,0.0,0.0,0.0,0.0,0.0,0.0,0.0,0.0,0.0,0.0,0.0,0.0,0.0,0.0,0.0,0.0,0.0,0.0,0.0,0.0,0.0,0.0,0.0,0.0,0.0,0.0,0.0,0.0,0.0,0.0,0.0,0.0,0.0,0.0,0.0,0.0,0.0,0.0,0.0,0.0,0.0,0.0,0.0,0.0,0.0,0.0,0.0,0.0,0.0,0.0,0.0,0.0,0.0,0.0,0.0,0.0,0.0,0.0,0.0,0.0,0.0,0.0,0.0,0.0,0.0,0.0,0.0,0.0,0.0,0.0,0.0,0.0,0.0,0.0,0.0,0.0,0.0,0.0,0.0,0.0,0.0,0.0,0.0,0.0,0.0,0.0,0.0,0.0,0.0,0.0,0.0,2.2936,2.422,2.294,0.0,2.0174,0.0,0.0,0.0,0.0,0.0,0.0,0.0,0.0,0.0,0.0,0.0,0.0,0.0,0.0,0.0,0.0,0.0,0.0,0.0,0.0,0.0,0.0,0.0,0.0,0.0,0.0,0.0,0.0,0.0,0.0,0.0,0.0,0.0,0.0,0.0,0.0,0.0,0.0,0.0,0.0,0.0,0.0,0.0,0.0,0.0,0.0,0.0,0.0,0.0,0.0,0.0,0.0,0.0,0.0,0.0,0.0,0.0,0.0,0.0,0.0,0.0,0.0,0.0,0.0,0.0,0.0,0.0,0.0,0.0,0.0,0.0,0.0,0.0,0.0,0.0,0.0,0.0,0.0,0.0,0.0,0.0,0.0,0.0,0.0,0.0,0.0,0.0,0.0,0.0,0.0,0.0,0.0,0.0,0.0,0.0,0.0,0.0,0.0,0.0,0.0,0.0,0.0,0.0,0.0,0.0,0.0,0.0,0.0,0.0,0.0,2.3451,2.4495,2.3088,2.1796,0.0,0.0,0.0,0.0,0.0,0.0,0.0,0.0,0.0,0.0,0.0,0.0,0.0,0.0,0.0,0.0,0.0,0.0,0.0,0.0,0.0,0.0,0.0,0.0,0.0,0.0,0.0,0.0,0.0,0.0,0.0,0.0,0.0,0.0,0.0,0.0,0.0,0.0,0.0,0.0,0.0,0.0,0.0,0.0,0.0,0.0,0.0,0.0,0.0,0.0,0.0,0.0,0.0,0.0,0.0,0.0,0.0,0.0,0.0,0.0,0.0,0.0,0.0,0.0,0.0,0.0,0.0,0.0,0.0,0.0,0.0,0.0,0.0,0.0,0.0,0.0,0.0,0.0,0.0,0.0,0.0,0.0,0.0,0.0,0.0,0.0,0.0,0.0,0.0,0.0,0.0,0.0,0.0,0.0,0.0,0.0,0.0,0.0,0.0,0.0,0.0,0.0,0.0,0.0,0.0,0.0,0.0,0.0,0.0,0.0,2.3654,0.0,2.441,2.3464,2.226,2.0906,0.0,0.0,0.0,0.0,0.0,0.0,0.0,0.0,0.0,0.0,0.0,0.0,0.0,0.0,0.0,0.0,0.0,0.0,0.0,0.0,0.0,0.0,0.0,0.0,0.0,0.0,0.0,0.0,0.0,0.0,0.0,0.0,0.0,0.0,0.0,0.0,0.0,0.0,0.0,0.0,0.0,0.0,0.0,0.0,0.0,0.0,0.0,0.0,0.0,0.0,0.0,0.0,0.0,0.0,0.0,0.0,0.0,0.0,0.0,0.0,0.0,0.0,0.0,0.0,0.0,0.0,0.0,0.0,0.0,0.0,0.0,0.0,0.0,0.0,0.0,0.0,0.0,0.0,0.0,0.0,0.0,0.0,0.0,0.0,0.0,0.0,0.0,0.0,0.0,0.0,0.0,0.0,0.0,0.0,0.0,0.0,0.0,0.0,0.0,0.0,0.0,0.0,0.0,0.0,0.0,0.0,0.0,0.0,0.0,2.5121,2.4461,2.4528,2.4419,2.3048,0.0,0.0,0.0,0.0,0.0,0.0,0.0,0.0,0.0,0.0,0.0,0.0,0.0,0.0,0.0,0.0,0.0,0.0,0.0,0.0,0.0,0.0,0.0,0.0,0.0,0.0,0.0,0.0,0.0,0.0,0.0,0.0,0.0,0.0,0.0,0.0,0.0,0.0,0.0,0.0,0.0,0.0,0.0,0.0,0.0,0.0,0.0,0.0,0.0,0.0,0.0,0.0,0.0,0.0,0.0,0.0,0.0,0.0,0.0,0.0,0.0,0.0,0.0,0.0,0.0,0.0,0.0,0.0,0.0,0.0,0.0,0.0,0.0,0.0,0.0,0.0,0.0,0.0,0.0,0.0,0.0,0.0,0.0,0.0,0.0,0.0,0.0,0.0,0.0,0.0,0.0,0.0,0.0,0.0,0.0,0.0,0.0,0.0,0.0,0.0,0.0,0.0,0.0,0.0,0.0,0.0,0.0,0.0,0.0,2.3829,2.428,2.4728,2.5135,2.3829,2.2574,0.0,0.0,0.0,0.0,0.0,0.0,0.0,0.0,0.0,0.0,0.0,0.0,0.0,0.0,0.0,0.0,0.0,0.0,0.0,0.0,0.0,0.0,0.0,0.0,0.0,0.0,0.0,0.0,0.0,0.0,0.0,0.0,0.0,0.0,0.0,0.0,0.0,0.0,0.0,0.0,0.0,0.0,0.0,0.0,0.0,0.0,0.0,0.0,0.0,0.0,0.0,0.0,0.0,0.0,0.0,0.0,0.0,0.0,0.0,0.0,0.0,0.0,0.0,0.0,0.0,0.0,0.0,0.0,0.0,0.0,0.0,0.0,0.0,0.0,0.0,0.0,0.0,0.0,0.0,0.0,0.0,0.0,0.0,0.0,0.0,0.0,0.0,0.0,0.0,0.0,0.0,0.0,0.0,0.0,0.0,0.0,0.0,0.0,0.0,0.0,0.0,0.0,0.0,0.0,0.0,0.0,0.0,0.0,0.0,2.3731,0.0,2.5473,0.0,2.3562,2.209,0.0,0.0,0.0,0.0,0.0,0.0,0.0,0.0,0.0,0.0,0.0,0.0,0.0,0.0,0.0,0.0,0.0,0.0,0.0,0.0,0.0,0.0,0.0,0.0,0.0,0.0,0.0,0.0,0.0,0.0,0.0,0.0,0.0,0.0,0.0,0.0,0.0,0.0,0.0,0.0,0.0,0.0,0.0,0.0,0.0,0.0,0.0,0.0,0.0,0.0,0.0,0.0,0.0,0.0,0.0,0.0,0.0,0.0,0.0,0.0,0.0,0.0,0.0,0.0,0.0,0.0,0.0,0.0,0.0,0.0,0.0,0.0,0.0,0.0,0.0,0.0,0.0,0.0,0.0,0.0,0.0,0.0,0.0,0.0,0.0,0.0,0.0,0.0,0.0,0.0,0.0,0.0,0.0,0.0,0.0,0.0,0.0,0.0,0.0,0.0,0.0,0.0,0.0,0.0,0.0,0.0,0.0,0.0,2.3752,2.6458,2.7287,2.6644,2.4609,2.3776,2.1667,0.0,0.0,0.0,0.0,0.0,0.0,0.0,0.0,0.0,0.0,0.0,0.0,0.0,0.0,0.0,0.0,0.0,0.0,0.0,0.0,0.0,0.0,0.0,0.0,0.0,0.0,0.0,0.0,0.0,0.0,0.0,0.0,0.0,0.0,0.0,0.0,0.0,0.0,0.0,0.0,0.0,0.0,0.0,0.0,0.0,0.0,0.0,0.0,0.0,0.0,0.0,0.0,0.0,0.0,0.0,0.0,0.0,0.0,0.0,0.0,0.0,0.0,0.0,0.0,0.0,0.0,0.0,0.0,0.0,0.0,0.0,0.0,0.0,0.0,0.0,0.0,0.0,0.0,0.0,0.0,0.0,0.0,0.0,0.0,0.0,0.0,0.0,0.0,0.0,0.0,0.0,0.0,0.0,0.0,0.0,0.0,0.0,0.0,0.0,0.0,0.0,0.0,0.0,0.0,0.0,0.0,0.0,0.0,0.0,2.4468,2.5952,2.6535,2.5963,2.3829,2.2344,0.0,0.0,0.0,0.0,0.0,0.0,0.0,0.0,0.0,0.0,0.0,0.0,0.0,0.0,0.0,0.0,0.0,0.0,0.0,0.0,0.0,0.0,0.0,0.0,0.0,0.0,0.0,0.0,0.0,0.0,0.0,0.0,0.0,0.0,0.0,0.0,0.0,0.0,0.0,0.0,0.0,0.0,0.0,0.0,0.0,0.0,0.0,0.0,0.0,0.0,0.0,0.0,0.0,0.0,0.0,0.0,0.0,0.0,0.0,0.0,0.0,0.0,0.0,0.0,0.0,0.0,0.0,0.0,0.0,0.0,0.0,0.0,0.0,0.0,0.0,0.0,0.0,0.0,0.0,0.0,0.0,0.0,0.0,0.0,0.0,0.0,0.0,0.0,0.0,0.0,0.0,0.0,0.0,0.0,0.0,0.0,0.0,0.0,0.0,0.0,0.0,0.0,0.0,0.0,0.0,0.0,0.0,0.0,0.0,2.5404,2.7016,2.755,2.6721,2.4361,2.294,2.2541,0.0,0.0,0.0,0.0,0.0,0.0,0.0,0.0,0.0,0.0,0.0,0.0,0.0,0.0,0.0,0.0,0.0,0.0,0.0,0.0,0.0,0.0,0.0,0.0,0.0,0.0,0.0,0.0,0.0,0.0,0.0,0.0,0.0,0.0,0.0,0.0,0.0,0.0,0.0,0.0,0.0,0.0,0.0,0.0,0.0,0.0,0.0,0.0,0.0,0.0,0.0,0.0,0.0,0.0,0.0,0.0,0.0,0.0,0.0,0.0,0.0,0.0,0.0,0.0,0.0,0.0,0.0,0.0,0.0,0.0,0.0,0.0,0.0,0.0,0.0,0.0,0.0,0.0,0.0,0.0,0.0,0.0,0.0,0.0,0.0,0.0,0.0,0.0,0.0,0.0,0.0,0.0,0.0,0.0,0.0,0.0,0.0,0.0,0.0,0.0,0.0,0.0,0.0,0.0,0.0,0.0,0.0,0.0,2.8588,3.0079,2.9631,2.7072,2.5455,2.3611,0.0,0.0,0.0,0.0,0.0,0.0,0.0,0.0,0.0,0.0,0.0,0.0,0.0,0.0,0.0,0.0,0.0,0.0,0.0,0.0,0.0,0.0,0.0,0.0,0.0,0.0,0.0,0.0,0.0,0.0,0.0,0.0,0.0,0.0,0.0,0.0,0.0,0.0,0.0,0.0,0.0,0.0,0.0,0.0,0.0,0.0,0.0,0.0,0.0,0.0,0.0,0.0,0.0,0.0,0.0,0.0,0.0,0.0,0.0,0.0,0.0,0.0,0.0,0.0,0.0,0.0,0.0,0.0,0.0,0.0,0.0,0.0,0.0,0.0,0.0,0.0,0.0,0.0,0.0,0.0,0.0,0.0,0.0,0.0,0.0,0.0,0.0,0.0,0.0,0.0,0.0,0.0,0.0,0.0,0.0,0.0,0.0,0.0,0.0,0.0,0.0,0.0,0.0,0.0,0.0,0.0,0.0,0.0,0.0,3.0885,3.2412,3.2196,3.0056,2.749,2.5592,0.0,0.0,0.0,0.0,0.0,0.0,0.0,0.0,0.0,0.0,0.0,0.0,0.0,0.0,0.0,0.0,0.0,0.0,0.0,0.0,0.0,0.0,0.0,0.0,0.0,0.0,0.0,0.0,0.0,0.0,0.0,0.0,0.0,0.0,0.0,0.0,0.0,0.0,0.0,0.0,0.0,0.0,0.0,0.0,0.0,0.0,0.0,0.0,0.0,0.0,0.0,0.0,0.0,0.0,0.0,0.0,0.0,0.0,0.0,0.0,0.0,0.0,0.0,0.0,0.0,0.0,0.0,0.0,0.0,0.0,0.0,0.0,0.0,0.0,0.0,0.0,0.0,0.0,0.0,0.0,0.0,0.0,0.0,0.0,0.0,0.0,0.0,0.0,0.0,0.0,0.0,0.0,0.0,0.0,0.0,0.0,0.0,0.0,0.0,0.0,0.0,0.0,0.0,0.0,0.0,0.0,0.0,0.0,3.0244,3.2458,3.397,3.4043,3.2621,2.9989,2.7638,0.0,0.0,0.0,0.0,0.0,0.0,0.0,0.0,0.0,0.0,0.0,0.0,0.0,0.0,0.0,0.0,0.0,0.0,0.0,0.0,0.0,0.0,0.0,0.0,0.0,0.0,0.0,0.0,0.0,0.0,0.0,0.0,0.0,0.0,0.0,0.0,0.0,0.0,0.0,0.0,0.0,0.0,0.0,0.0,0.0,0.0,0.0,0.0,0.0,0.0,0.0,0.0,0.0,0.0,0.0,0.0,0.0,0.0,0.0,0.0,0.0,0.0,0.0,0.0,0.0,0.0,0.0,0.0,0.0,0.0,0.0,0.0,0.0,0.0,0.0,0.0,0.0,0.0,0.0,0.0,0.0,0.0,0.0,0.0,0.0,0.0,0.0,0.0,0.0,0.0,0.0,0.0,0.0,0.0,0.0,0.0,0.0,0.0,0.0,0.0,0.0,0.0,0.0,0.0,0.0,0.0,0.0,0.0,3.1353,3.3635,3.4941,3.5239,3.4477,3.2351,2.9554,0.0,0.0,0.0,0.0,0.0,0.0,0.0,0.0,0.0,0.0,0.0,0.0,0.0,0.0,0.0,0.0,0.0,0.0,0.0,0.0,0.0,0.0,0.0,0.0,0.0,0.0,0.0,0.0,0.0,0.0,0.0,0.0,0.0,0.0,0.0,0.0,0.0,0.0,0.0,0.0,0.0,0.0,0.0,0.0,0.0,0.0,0.0,0.0,0.0,0.0,0.0,0.0,0.0,0.0,0.0,0.0,0.0,0.0,0.0,0.0,0.0,0.0,0.0,0.0,0.0,0.0,0.0,0.0,0.0,0.0,0.0,0.0,0.0,0.0,0.0,0.0,0.0,0.0,0.0,0.0,0.0,0.0,0.0,0.0,0.0,0.0,0.0,0.0,0.0,0.0,0.0,0.0,0.0,0.0,0.0,0.0,0.0,0.0,0.0,0.0,0.0,0.0,0.0,0.0,0.0,0.0,0.0,0.0,3.222,3.4757,3.5335,3.5256,3.4511,3.2346,3.0287,0.0,0.0,0.0,0.0,0.0,0.0,0.0,0.0,0.0,0.0,0.0,0.0,0.0,0.0,0.0,0.0,0.0,0.0,0.0,0.0,0.0,0.0,0.0,0.0,0.0,0.0,0.0,0.0,0.0,0.0,0.0,0.0,0.0,0.0,0.0,0.0,0.0,0.0,0.0,0.0,0.0,0.0,0.0,0.0,0.0,0.0,0.0,0.0,2.0763,0.0,0.0,0.0,0.0,0.0,0.0,0.0,0.0,0.0,0.0,0.0,0.0,0.0,0.0,0.0,0.0,0.0,0.0,0.0,0.0,0.0,0.0,0.0,0.0,0.0,0.0,0.0,0.0,0.0,0.0,0.0,0.0,0.0,0.0,0.0,0.0,0.0,0.0,0.0,0.0,0.0,0.0,0.0,0.0,0.0,0.0,0.0,0.0,0.0,0.0,0.0,0.0,0.0,0.0,0.0,0.0,0.0,0.0,0.0,3.3061,3.5125,3.5457,3.5402,3.4974,3.3198,3.1038,0.0,0.0,0.0,0.0,0.0,0.0,0.0,0.0,0.0,0.0,0.0,0.0,0.0,0.0,0.0,0.0,0.0,0.0,0.0,0.0,0.0,0.0,0.0,0.0,0.0,0.0,0.0,0.0,0.0,0.0,0.0,0.0,0.0,0.0,0.0,0.0,0.0,0.0,0.0,0.0,0.0,0.0,0.0,0.0,0.0,0.0,0.0,0.0,0.0,0.0,0.0,0.0,0.0,0.0,0.0,0.0,0.0,0.0,0.0,0.0,0.0,0.0,0.0,0.0,0.0,0.0,0.0,0.0,0.0,0.0,0.0,0.0,0.0,0.0,0.0,0.0,0.0,0.0,0.0,0.0,0.0,0.0,0.0,0.0,0.0,0.0,0.0,0.0,0.0,0.0,0.0,0.0,0.0,0.0,0.0,0.0,0.0,0.0,0.0,0.0,0.0,0.0,0.0,0.0,0.0,0.0,0.0,3.1544,3.3669,3.5191,3.5568,3.5695,3.5588,3.4173,3.1693,2.8162,0.0,0.0,0.0,0.0,0.0,0.0,0.0,0.0,0.0,0.0,0.0,0.0,0.0,0.0,0.0,0.0,0.0,0.0,0.0,0.0,0.0,0.0,0.0,0.0,0.0,0.0,0.0,0.0,0.0,0.0,0.0,0.0,0.0,0.0,0.0,0.0,0.0,0.0,1.9022,2.1236,0.0,0.0,0.0,0.0,0.0,0.0,0.0,0.0,2.2397,0.0,0.0,0.0,0.0,0.0,0.0,0.0,0.0,0.0,0.0,0.0,0.0,0.0,0.0,0.0,0.0,0.0,0.0,0.0,0.0,0.0,0.0,0.0,0.0,0.0,0.0,0.0,0.0,0.0,0.0,0.0,0.0,0.0,0.0,0.0,0.0,0.0,0.0,0.0,0.0,0.0,0.0,0.0,0.0,0.0,0.0,0.0,0.0,0.0,0.0,0.0,0.0,0.0,0.0,0.0,0.0,3.0686,3.1916,3.3488,3.5484,3.6012,3.6048,3.5594,3.4168,3.1952,2.8954,0.0,0.0,0.0,0.0,0.0,0.0,0.0,0.0,0.0,0.0,0.0,0.0,0.0,0.0,0.0,0.0,0.0,0.0,0.0,0.0,0.0,0.0,0.0,0.0,0.0,0.0,0.0,0.0,0.0,0.0,0.0,0.0,0.0,0.0,0.0,0.0,0.0,0.0,0.0,2.4299,2.5423,0.0,0.0,0.0,0.0,0.0,0.0,0.0,0.0,2.3611,0.0,0.0,0.0,0.0,0.0,0.0,0.0,0.0,0.0,0.0,0.0,0.0,0.0,0.0,0.0,0.0,0.0,0.0,0.0,0.0,0.0,0.0,0.0,0.0,0.0,0.0,0.0,0.0,0.0,0.0,0.0,0.0,0.0,0.0,0.0,0.0,0.0,0.0,0.0,0.0,0.0,0.0,0.0,0.0,0.0,0.0,0.0,0.0,0.0,0.0,0.0,0.0,0.0,0.0,0.0,3.0402,3.3194,3.508,3.5973,3.6277,3.6145,3.556,3.3435,3.1229,0.0,0.0,0.0,0.0,0.0,0.0,0.0,0.0,0.0,0.0,0.0,0.0,0.0,0.0,0.0,0.0,0.0,0.0,0.0,0.0,0.0,0.0,0.0,0.0,0.0,0.0,0.0,0.0,0.0,0.0,0.0,0.0,0.0,0.0,0.0,0.0,0.0,0.0,0.0,0.0,2.5363,2.6386,2.5936,0.0,0.0,0.0,0.0,0.0,0.0,2.4678,2.422,0.0,0.0,0.0,0.0,0.0,0.0,0.0,0.0,0.0,0.0,0.0,0.0,0.0,0.0,0.0,0.0,0.0,0.0,0.0,0.0,0.0,0.0,0.0,0.0,0.0,0.0,0.0,0.0,0.0,0.0,0.0,0.0,0.0,0.0,0.0,0.0,0.0,0.0,0.0,0.0,0.0,0.0,0.0,0.0,0.0,0.0,0.0,0.0,0.0,0.0,0.0,0.0,0.0,0.0,0.0,3.0131,3.4201,3.6429,3.6551,3.6565,3.6307,3.5732,3.3074,3.0811,0.0,0.0,0.0,0.0,0.0,0.0,0.0,0.0,0.0,0.0,0.0,0.0,0.0,0.0,0.0,0.0,0.0,0.0,0.0,0.0,0.0,0.0,0.0,0.0,0.0,0.0,0.0,0.0,0.0,0.0,0.0,0.0,0.0,0.0,0.0,0.0,0.0,0.0,0.0,0.0,0.0,2.7602,2.6996,2.6548,0.0,0.0,0.0,0.0,2.6171,2.5789,0.0,0.0,0.0,0.0,0.0,0.0,0.0,0.0,0.0,0.0,0.0,0.0,0.0,0.0,0.0,0.0,0.0,0.0,0.0,0.0,0.0,0.0,0.0,0.0,0.0,0.0,0.0,0.0,0.0,0.0,0.0,0.0,0.0,0.0,0.0,0.0,0.0,0.0,0.0,0.0,0.0,0.0,0.0,0.0,0.0,0.0,0.0,0.0,0.0,0.0,0.0,0.0,0.0,0.0,0.0,0.0,3.1168,3.3817,3.5814,3.703,3.711,3.6858,3.63,3.4251,3.1833,0.0,0.0,0.0,0.0,0.0,0.0,0.0,0.0,0.0,0.0,0.0,0.0,0.0,0.0,0.0,0.0,0.0,0.0,0.0,0.0,0.0,0.0,0.0,0.0,0.0,0.0,0.0,0.0,0.0,0.0,0.0,0.0,0.0,0.0,0.0,0.0,0.0,0.0,0.0,0.0,0.0,3.0934,2.8978,2.8637,2.834,0.0,0.0,2.771,2.8485,2.8532,0.0,0.0,0.0,0.0,0.0,0.0,0.0,0.0,0.0,0.0,0.0,0.0,0.0,0.0,0.0,0.0,0.0,0.0,0.0,0.0,0.0,0.0,0.0,0.0,0.0,0.0,0.0,0.0,0.0,0.0,0.0,0.0,0.0,0.0,0.0,0.0,0.0,0.0,0.0,0.0,0.0,0.0,0.0,0.0,0.0,0.0,0.0,0.0,0.0,0.0,0.0,0.0,0.0,0.0,0.0,2.9996,3.2222,3.5884,3.7933,3.8254,3.8021,3.7418,3.6423,3.3656,3.1166,0.0,0.0,0.0,0.0,0.0,0.0,0.0,0.0,0.0,0.0,0.0,0.0,0.0,0.0,0.0,0.0,0.0,0.0,0.0,0.0,0.0,0.0,0.0,0.0,0.0,0.0,0.0,0.0,0.0,0.0,0.0,0.0,0.0,0.0,0.0,0.0,0.0,0.0,0.0,0.0,0.0,0.0,3.0884,3.0156,0.0,0.0,0.0,2.9354,3.0134,0.0,0.0,0.0,0.0,0.0,0.0,0.0,0.0,0.0,0.0,0.0,0.0,0.0,0.0,0.0,0.0,0.0,0.0,0.0,0.0,0.0,0.0,0.0,0.0,0.0,0.0,0.0,0.0,0.0,0.0,0.0,0.0,0.0,0.0,0.0,0.0,0.0,0.0,0.0,0.0,0.0,0.0,0.0,0.0,0.0,0.0,0.0,0.0,0.0,0.0,0.0,0.0,0.0,0.0,0.0,0.0,0.0,3.3251,3.7493,3.9504,3.9102,3.8647,3.7762,3.6399,3.3388,0.0,0.0,0.0,0.0,0.0,0.0,0.0,0.0,0.0,0.0,0.0,0.0,0.0,0.0,0.0,0.0,0.0,0.0,0.0,0.0,0.0,0.0,0.0,0.0,0.0,0.0,0.0,1.5578,0.0,0.0,0.0,0.0,0.0,0.0,0.0,0.0,0.0,0.0,0.0,0.0,0.0,0.0,3.1043,3.2158,3.1529,3.1321,0.0,0.0,3.1113,3.1664,3.0931,2.959,0.0,0.0,0.0,0.0,0.0,0.0,0.0,0.0,0.0,0.0,0.0,0.0,0.0,0.0,0.0,0.0,0.0,0.0,0.0,0.0,0.0,0.0,0.0,0.0,0.0,0.0,0.0,0.0,0.0,0.0,0.0,0.0,0.0,0.0,0.0,0.0,0.0,0.0,0.0,0.0,0.0,0.0,0.0,0.0,0.0,0.0,0.0,0.0,0.0,0.0,0.0,0.0,0.0,0.0,0.0,3.4349,3.7532,3.9146,3.9106,3.8642,3.7762,3.6433,3.4367,3.1901,0.0,0.0,0.0,0.0,0.0,0.0,0.0,0.0,0.0,0.0,0.0,0.0,0.0,0.0,0.0,0.0,0.0,0.0,0.0,0.0,0.0,0.0,0.0,0.0,0.0,0.0,0.0,0.0,0.0,0.0,0.0,0.0,0.0,0.0,0.0,0.0,0.0,0.0,0.0,0.0,0.0,3.2192,3.2281,3.2802,3.3215,0.0,0.0,3.3203,3.3227,3.3263,3.1975,2.8112,0.0,0.0,0.0,0.0,0.0,0.0,0.0,0.0,0.0,0.0,0.0,0.0,0.0,0.0,0.0,0.0,0.0,0.0,0.0,0.0,0.0,0.0,0.0,0.0,0.0,0.0,0.0,0.0,0.0,0.0,0.0,0.0,0.0,0.0,0.0,0.0,0.0,0.0,0.0,0.0,0.0,0.0,0.0,0.0,0.0,0.0,0.0,0.0,0.0,0.0,0.0,0.0,0.0,3.0962,3.4345,3.7649,3.9348,3.9329,3.8868,3.7894,3.6435,3.4448,3.2019,0.0,0.0,0.0,0.0,0.0,0.0,0.0,0.0,0.0,0.0,0.0,0.0,0.0,0.0,0.0,0.0,0.0,0.0,0.0,0.0,0.0,0.0,0.0,0.0,0.0,0.0,0.0,0.0,1.8423,1.8499,1.8839,0.0,0.0,0.0,0.0,0.0,0.0,0.0,0.0,0.0,0.0,3.331,3.4196,3.4568,0.0,0.0,3.5081,3.4765,3.4765,3.3431,3.1595,2.9178,2.667,0.0,0.0,0.0,0.0,0.0,0.0,0.0,0.0,0.0,0.0,0.0,0.0,0.0,0.0,0.0,0.0,0.0,0.0,0.0,0.0,0.0,0.0,0.0,0.0,0.0,0.0,0.0,0.0,0.0,0.0,0.0,0.0,0.0,0.0,0.0,0.0,0.0,0.0,0.0,0.0,0.0,0.0,0.0,0.0,0.0,0.0,0.0,0.0,0.0,0.0,0.0,0.0,3.0846,3.4278,3.7572,3.9273,3.925,3.8888,3.7892,3.619,3.4353,3.2121,0.0,0.0,0.0,0.0,0.0,0.0,0.0,0.0,0.0,0.0,0.0,0.0,0.0,0.0,0.0,0.0,0.0,0.0,0.0,0.0,0.0,0.0,0.0,0.0,0.0,0.0,0.0,0.0,1.9891,1.9984,2.031,0.0,0.0,0.0,0.0,0.0,0.0,0.0,0.0,0.0,0.0,3.4365,3.6045,3.6101,3.6163,3.6705,3.6107,3.5526,3.5301,3.3756,3.1969,3.0159,0.0,0.0,0.0,0.0,0.0,0.0,0.0,0.0,0.0,0.0,0.0,0.0,0.0,0.0,0.0,0.0,0.0,0.0,0.0,0.0,0.0,0.0,0.0,0.0,0.0,0.0,0.0,2.2334,0.0,0.0,2.2249,0.0,0.0,0.0,0.0,0.0,0.0,0.0,0.0,0.0,0.0,0.0,0.0,0.0,0.0,0.0,0.0,0.0,0.0,0.0,0.0,0.0,0.0,2.9994,3.4237,3.7193,3.8727,3.8734,3.8694,3.7706,3.5718,3.4184,3.2347,3.0081,0.0,0.0,0.0,0.0,0.0,0.0,0.0,0.0,0.0,0.0,0.0,0.0,0.0,0.0,0.0,0.0,0.0,0.0,0.0,0.0,0.0,0.0,0.0,0.0,0.0,0.0,2.0141,1.9733,1.9688,0.0,0.0,0.0,0.0,0.0,0.0,0.0,0.0,0.0,0.0,3.354,3.5323,3.7505,3.7235,3.6829,3.6857,3.6174,3.5402,3.4726,3.4511,3.363,0.0,0.0,0.0,0.0,0.0,0.0,0.0,0.0,0.0,0.0,0.0,0.0,0.0,0.0,0.0,0.0,0.0,0.0,0.0,0.0,0.0,0.0,0.0,0.0,0.0,0.0,0.0,2.6391,2.5274,0.0,0.0,0.0,0.0,0.0,0.0,0.0,0.0,0.0,0.0,0.0,3.1216,3.2233,0.0,0.0,0.0,0.0,0.0,0.0,0.0,0.0,0.0,0.0,0.0,0.0,3.0284,3.3654,3.6648,3.8389,3.8867,3.8429,3.7591,3.6434,3.4934,3.2386,2.8669,0.0,0.0,0.0,0.0,0.0,0.0,0.0,0.0,0.0,0.0,0.0,0.0,0.0,0.0,0.0,0.0,0.0,0.0,0.0,0.0,0.0,0.0,0.0,0.0,0.0,2.243,0.0,0.0,0.0,0.0,0.0,0.0,0.0,0.0,0.0,0.0,0.0,3.097,3.3439,3.5487,3.7212,3.8464,3.8419,3.8256,0.0,0.0,0.0,0.0,0.0,0.0,0.0,0.0,0.0,0.0,0.0,0.0,0.0,0.0,3.3123,2.8877,2.7678,2.7415,2.7679,0.0,0.0,0.0,0.0,0.0,0.0,0.0,0.0,0.0,0.0,0.0,0.0,0.0,0.0,2.9204,0.0,2.7998,0.0,0.0,0.0,0.0,0.0,0.0,0.0,0.0,3.3095,3.4328,3.4559,3.5337,3.4668,0.0,3.2719,3.0818,0.0,0.0,0.0,0.0,0.0,0.0,0.0,0.0,3.1229,3.4145,3.6868,3.8514,3.8943,3.8278,3.755,3.679,3.4804,3.2126,2.8724,2.67,2.4855,0.0,0.0,0.0,0.0,0.0,0.0,0.0,0.0,0.0,0.0,0.0,0.0,0.0,0.0,0.0,0.0,0.0,0.0,0.0,0.0,0.0,0.0,0.0,2.3143,0.0,0.0,0.0,0.0,0.0,0.0,0.0,0.0,0.0,2.8586,3.0768,3.3281,3.5746,3.7336,3.865,3.9614,0.0,0.0,0.0,0.0,0.0,0.0,0.0,3.4734,3.4118,3.2187,3.0912,3.1575,3.3574,3.5406,3.6247,0.0,0.0,3.2494,3.0985,3.06,3.1073,3.1449,3.1826,3.2367,3.3216,3.4066,0.0,0.0,0.0,0.0,0.0,0.0,0.0,0.0,3.1872,3.1539,0.0,3.0678,0.0,0.0,0.0,0.0,0.0,3.0953,0.0,0.0,3.6301,3.7246,3.726,3.6754,3.6208,3.5763,3.5701,3.4551,3.2293,2.8819,0.0,0.0,0.0,0.0,0.0,0.0,3.2713,3.5588,3.7838,3.9017,3.9034,3.8288,3.7539,3.6722,3.3935,3.1725,3.0212,2.8734,2.6907,2.4711,2.3879,0.0,0.0,0.0,0.0,0.0,0.0,0.0,0.0,0.0,0.0,0.0,0.0,0.0,0.0,0.0,0.0,0.0,0.0,0.0,0.0,2.2594,0.0,0.0,0.0,0.0,0.0,0.0,0.0,0.0,0.0,0.0,3.162,3.3361,3.5735,3.8611,0.0,0.0,0.0,0.0,3.9383,4.0092,3.958,3.9123,3.9063,3.8868,3.8227,3.6954,0.0,0.0,3.5807,3.6903,3.7887,3.8049,3.9246,3.9701,3.8154,3.5991,3.4859,3.5483,3.4534,3.4042,3.5212,3.6084,3.6965,3.7172,0.0,0.0,0.0,0.0,3.4912,3.6174,3.8599,3.7866,3.6671,3.5182,3.4973,0.0,0.0,0.0,0.0,0.0,0.0,3.591,3.6542,3.8419,3.9493,3.9834,3.9672,3.9301,3.8784,3.8288,3.7167,3.5526,3.4437,3.1369,2.6484,0.0,0.0,0.0,0.0,3.3981,3.64,3.8137,3.9254,3.9762,3.8548,3.7268,3.596,3.459,3.318,3.1713,3.1056,2.9534,2.6979,2.5973,0.0,0.0,0.0,0.0,0.0,0.0,0.0,0.0,0.0,0.0,0.0,0.0,0.0,0.0,0.0,0.0,0.0,0.0,0.0,2.3158,2.384,2.42,0.0,0.0,0.0,0.0,0.0,0.0,0.0,0.0,0.0,3.6524,3.7302,3.8222,0.0,0.0,4.1312,4.1214,4.1288,4.143,4.1627,4.1491,0.0,4.0646,3.9224,3.8147,3.8129,3.7583,3.7472,3.8507,3.9014,3.9675,4.0791,4.1366,4.1334,4.0289,3.8731,3.7876,3.8394,3.7816,3.7439,3.8313,3.8739,3.8938,4.1086,3.887,3.6896,3.7026,3.8487,3.8035,3.9263,4.1593,4.0859,3.9946,3.8973,3.8656,3.6705,3.3642,3.3729,0.0,0.0,0.0,3.8829,3.9594,4.0491,4.1221,4.1779,4.1567,4.1286,4.094,4.0216,3.9417,3.8543,3.8245,3.5622,3.0867,0.0,0.0,3.1669,3.3694,3.5712,3.7619,3.8831,3.9666,4.0079,3.8667,3.733,3.6124,3.5052,3.4077,3.319,3.2469,3.1165,2.9221,2.8002,2.6439,0.0,0.0,0.0,0.0,0.0,0.0,0.0,0.0,0.0,0.0,0.0,2.0426,0.0,0.0,0.0,0.0,2.1974,2.3375,2.493,2.5306,0.0,0.0,0.0,0.0,0.0,0.0,0.0,3.3583,3.533,3.7274,3.9921,4.0561,4.0893,4.1346,4.1921,4.2242,4.2094,0.0,4.2388,4.2692,4.2736,4.2576,4.2091,4.0617,3.9421,3.9019,3.8564,3.8801,4.0396,4.0725,4.1201,4.2328,4.2701,4.242,4.1563,4.0376,3.9461,3.9397,3.8927,3.872,3.9156,3.9452,3.9736,4.4281,4.4064,4.1559,4.0923,4.1529,4.1502,4.188,4.2489,4.1796,4.1806,4.2327,4.1694,4.0595,3.9206,3.8421,0.0,3.9202,4.0405,4.1678,4.2982,4.2375,4.249,4.3156,4.2583,4.2327,4.2367,4.165,4.1288,4.1238,4.0597,3.9243,3.7246,3.5819,3.5318,3.5712,3.6524,3.7669,3.9056,3.9745,4.0062,3.9988,3.8616,3.755,3.6812,3.5295,3.4466,3.4364,3.3091,3.1995,3.12,2.9889,2.8131,2.596,0.0,0.0,0.0,0.0,0.0,0.0,0.0,0.0,0.0,0.0,0.0,0.0,0.0,0.0,0.0,2.4728,0.0,2.71,2.6816,0.0,0.0,0.0,2.6497,2.7983,2.9779,3.1981,3.4804,0.0,0.0,4.2105,4.3024,4.3517,4.3575,4.2963,4.2692,4.3315,4.2878,4.2726,4.3406,4.3435,4.3352,4.3149,4.2287,4.106,3.9613,3.9397,3.9938,4.1374,4.1765,4.2189,4.2941,4.3175,4.2884,4.2045,4.1115,4.0309,3.9057,3.865,3.8513,3.8605,3.9118,3.9788,4.4078,4.4072,4.413,4.4324,4.4573,4.4035,4.4205,4.48,4.411,4.3538,4.3118,4.2932,4.2364,4.1486,4.1194,4.1458,4.218,4.2879,4.3189,4.3141,4.3,4.3084,4.3303,4.263,4.2591,4.3051,4.2388,4.2039,4.2046,4.1853,4.1521,4.1014,4.0608,3.9119,3.6671,3.7833,3.891,3.9819,4.0022,3.9836,3.9271,3.8362,3.755,3.6823,3.5317,3.424,3.3677,3.3124,3.2341,3.1247,3.0609,2.966,2.8249,2.5527,0.0,0.0,0.0,0.0,0.0,0.0,0.0,0.0,0.0,2.3171,2.0712,0.0,2.3388,0.0,2.6222,2.7313,2.7357,2.7694,0.0,0.0,2.9097,2.9758,3.2527,3.3285,3.4712,3.7598,3.9447,4.1158,4.2929,4.3832,4.4526,4.5053,4.4509,4.389,4.3507,4.3815,4.4124,4.419,4.3719,4.3333,4.3159,4.1997,4.0646,3.9574,3.9397,3.9773,4.0826,4.1004,4.1281,4.2101,4.23,4.1965,4.1195,4.0835,4.0579,4.0052,3.9541,3.9176,3.9176,3.9699,4.0222,4.5116,4.4471,4.5814,4.6427,4.6503,4.5869,4.5819,4.615,4.5744,4.5321,4.4901,4.4563,4.4191,4.3806,4.3675,4.3847,4.424,4.4534,4.4503,4.4215,4.3937,4.3863,4.391,4.3518,4.3528,4.391,4.3518,4.3315,4.3332,4.3339,4.3163,4.2794,4.2794,4.161,3.9396,4.0066,4.0354,4.0113,4.0106,3.9903,3.9474,3.8447,3.755,3.679,3.5622,3.4483,3.3435,3.3277,3.2573,3.1275,3.0703,2.9989,2.9028,2.6771,2.5122,0.0,0.0,0.0,0.0,0.0,0.0,0.0,0.0,0.0,0.0,0.0,2.5285,2.5996,2.7656,2.8855,2.9205,2.9833,3.0776,3.213,3.1988,3.2729,3.5131,3.5377,3.6538,3.9482,4.052,4.1862,4.4104,4.4823,4.5355,4.6075,4.5836,4.5304,4.458,4.456,4.4478,4.408,4.3606,4.2994,4.2292,4.102,3.9964,3.9526,3.9397,3.9708,4.0535,4.0945,4.1318,4.1776,4.2104,4.2029,4.1198,4.1015,4.0961,4.0849,4.0561,4.0322,4.0307,4.0576,4.084,4.6413,4.5074,4.6855,4.7614,4.7589,4.7232,4.703,4.6945,4.6851,4.6786,4.6759,4.6133,4.5838,4.5824,4.5726,4.5662,4.5662,4.5662,4.5662,4.5622,4.5029,4.4753,4.4743,4.4642,4.4591,4.4591,4.4591,4.4591,4.4591,4.4591,4.4238,4.3575,4.3558,4.3176,4.2479,4.2553,4.1826,4.0276,4.0157,4.0106,4.0096,3.874,3.7686,3.6959,3.5972,3.4811,3.3463,3.3322,3.2679,3.142,3.0734,3.0096,2.9416,2.7888,2.6953,0.0,2.5557,0.0,0.0,0.0,0.0,0.0,0.0,0.0,0.0,2.7355,2.8085,2.798,2.9255,3.0559,3.1645,3.2355,3.329,3.457,3.4765,3.5274,3.6568,3.6748,3.7879,4.08,4.1213,4.2398,4.5178,4.5763,4.6126,4.6747,4.6611,4.6228,4.5859,4.5163,4.4495,4.3654,4.3356,4.2687,4.1285,4.0256,3.9766,3.9709,3.975,3.9929,4.0674,4.1267,4.1654,4.1701,4.2086,4.2199,4.1505,4.1402,4.1432,4.1493,4.1502,4.1458,4.1343,4.1433,4.1517,4.584,4.5667,4.7008,4.7614,4.7638,4.8307,4.8233,4.765,4.7064,4.6786,4.6776,4.6665,4.6583,4.6588,4.6559,4.6556,4.6556,4.6563,4.657,4.6515,4.5835,4.55,4.5449,4.4888,4.4591,4.4591,4.4591,4.4591,4.4591,4.4591,4.4523,4.4381,4.4364,4.3968,4.3277,0.0,0.0,0.0,4.0411,4.0106,4.0079,3.9237,3.8436,3.7686,3.5757,0.0,3.3435,3.2819,3.2378,3.2107,3.1967,0.0,0.0,0.0,0.0,0.0,0.0,0.0,0.0,0.0,0.0,0.0,2.8738,2.7929,2.7082,2.9739,3.1113,3.0117,3.1666,3.2864,3.311,3.3724,3.466,3.594,3.6119,3.6628,3.7862,3.8035,3.903,4.1478,4.2326,4.3431,4.532,4.6194,4.6824,4.7395,4.6525,4.5922,4.6297,4.5644,4.5185,4.4933,4.368,4.2474,4.143,4.1091,4.09,4.1035,4.102,4.1068,4.1215,4.1352,4.1465,4.1493,4.1546,4.1673,4.1462,4.1413,4.1628,4.2086,4.2216,4.2041,4.1547,4.1837,4.2206,4.7122,0.0,4.8543,4.9119,0.0,4.9313,4.933,4.8951,4.8206,4.7885,4.7851,4.7505,4.7344,4.7319,4.6962,4.6786,4.6786,4.6786,4.6786,4.6776,4.6413,4.6058,4.5679,4.5314,4.4949,4.4608,4.4591,4.4591,4.4591,4.4591,4.4591,4.4591,4.4591,4.4398,4.4012,4.3988,4.325,4.1762,4.1024,4.0455,4.0089,3.9366,3.847,3.7376,3.6242,0.0,0.0,0.0,0.0,0.0,0.0,0.0,0.0,0.0,0.0,3.055,3.0221,3.001,2.9984,2.9766,3.0093,3.1174,3.1316,3.0871,2.9825,3.146,3.2639,3.2968,3.3918,3.4741,3.537,3.5737,3.6335,3.7302,3.7428,3.7832,3.8736,3.92,4.0032,4.153,4.2464,4.3543,4.5192,4.5712,4.6247,4.6905,4.6372,4.5893,4.6161,4.5389,4.4601,4.4135,4.2985,4.1938,4.1511,4.1413,4.1418,4.1413,4.1413,4.1413,4.1413,4.1682,4.1901,4.1922,4.2117,4.2332,4.2332,4.2347,4.2462,4.2746,4.2851,4.2761,4.2392,4.2611,4.2845,4.8551,4.7543,4.9933,5.0593,5.0056,5.0218,5.0304,5.0227,0.0,0.0,0.0,4.836,4.809,4.8056,4.7445,4.7199,4.7182,4.7182,4.7199,4.7182,4.7047,4.6684,4.6109,4.5974,4.5575,4.5014,4.5004,4.4997,4.4973,4.4855,4.4787,4.477,4.4658,4.4591,4.4557,4.3937,4.3261,4.2489,4.1644,4.0899,4.0309,3.9559,3.8543,3.7213,3.7054,3.6056,3.4094,3.4579,3.4285,3.2965,3.2886,3.283,3.2716,3.2699,3.2965,3.3536,3.3841,3.3924,3.3795,3.3342,3.3023,3.2943,3.3615,3.3739,3.308,3.314,3.3933,3.5691,3.5825,3.6304,3.7447,3.7584,3.7853,3.8497,3.858,3.8826,3.9496,4.0043,4.0737,4.1729,4.2519,4.3455,4.4876,4.5297,4.5482,4.6022,4.6007,4.5852,4.561,4.4827,4.399,4.3138,4.247,4.1836,4.1777,4.1813,4.1728,4.1843,4.1813,4.1738,4.1828,4.2182,4.2511,4.2541,4.2975,4.3195,4.3285,4.321,4.3305,4.3305,4.3305,4.3305,4.3305,4.33,4.3285,4.836,4.902,4.966,5.0334,5.1005,5.1034,5.104,5.093,4.9602,4.9018,4.9001,4.89,4.8841,4.8849,4.8723,4.8689,4.8697,4.8697,4.8672,4.8663,4.8039,4.7701,4.7566,4.6938,4.659,4.6505,4.6488,4.6496,4.6428,4.5838,4.5551,4.5459,4.4922,4.4591,4.4574,4.4506,4.4052,4.3237,4.1891,4.1147,4.1035,4.032,3.9554,3.873,3.8075,3.7313,3.6366,3.6423,3.6056,3.5188,3.5132,3.485,3.4246,3.4212,3.4229,3.441,3.5588,3.6026,3.5354,3.5246,3.519,3.511,3.5696,3.5789,3.5167,3.5609,3.6276,3.7052,3.7097,3.7426,3.8146,3.8257,3.8527,3.914,3.9251,3.9535,4.0157,4.0382,4.1002,4.2315,4.32,4.3936,4.4813,4.5513,4.5846,4.5973,4.5397,4.4731,4.4169,4.4309,4.4224,4.3464,4.3139,4.304,4.2891,4.3015,4.2936,4.304,4.2951,4.2891,4.2866,4.298,4.3085,4.316,4.3235,4.33,4.3305,4.3305,4.3305,4.3305,4.3305,4.3305,4.3305,4.3305,4.3305,4.8577,4.9174,5.0365,5.1161,5.1577,5.1739,5.1572,5.115,5.0499,4.9965,4.9618,4.961,4.9366,4.9018,4.9018,4.9018,4.9018,4.9018,4.9018,4.8984,4.8663,4.8283,4.7896,4.7532,4.7192,4.681,4.6786,4.6786,4.6752,4.6455,4.6295,4.6244,4.5558,4.5007,4.4618,4.4591,4.4422,4.4045,4.2956,4.2195,4.1819,4.1068,4.0358,3.9601,3.8886,3.8148,3.7415,3.7387,3.7229,3.6862,3.6834,3.6693,3.6366,3.6332,3.6332,3.6366,3.6998,3.7037,3.6245,3.6148,3.6097,3.6064,3.6635,3.7039,3.7075,3.7015,3.7255,3.7877,3.7934,3.8204,3.8862,3.8937,3.908,3.937,3.9714,4.0068,4.0412,4.1104,4.1778,4.2451,4.3122,4.3684,4.4074,4.442,4.4625,4.4577,4.4205,4.3786,4.3399,4.3694,4.3874,4.3409,4.3305,4.33,4.3305,4.3305,4.3305,4.3305,4.3305,4.3305,4.3305,4.3305,4.3305,4.3305,4.3305,4.3305,4.3305,4.3305,4.3305,4.3305,4.3305,4.3305,4.3305,4.3305,4.3305,4.8594,4.8988,5.0791,5.1831,5.2271,5.248,5.2241,5.1742,5.1708,5.1294,5.0633,5.043,4.9932,4.9264,4.9247,4.9154,4.9018,4.9018,4.9018,4.9018,4.9018,4.8689,4.8191,4.814,4.7861,4.7334,4.7276,4.73,4.7284,4.7141,4.6955,4.6735,4.6075,4.5415,4.4862,4.4692,4.4591,4.4557,4.3971,4.3318,4.254,4.183,4.117,4.0616,4.0054,3.9388,3.8688,3.8637,3.8491,3.817,3.8159,3.8069,3.791,3.8075,3.813,3.8147,3.8311,3.8046,3.727,3.7078,3.6972,3.6936,3.736,3.7904,3.8482,3.8144,3.8054,3.8527,3.8616,3.8832,3.9296,3.9565,3.9631,3.9645,4.0232,4.0696,4.0939,4.1787,4.2476,4.2616,4.302,4.3359,4.3489,4.3524,4.3713,4.3893,4.3748,4.3748,4.3758,4.3758,4.3748,4.3698,4.3534,4.3314,4.3305,4.3305,4.3305,4.3305,4.3305,4.3305,4.3305,4.3305,4.3305,4.3305,4.3305,4.3305,4.3305,4.3305,4.3305,4.3305,4.3305,4.3305,4.3305,4.3305,4.3305,4.7993,4.8907,5.0081,5.1631,5.3264,5.3349,5.3306,5.3239,5.3281,5.2824,5.2029,5.1395,5.071,5.0058,4.9998,4.9686,4.9103,4.9018,4.9035,4.9035,4.9018,4.896,4.8875,4.8883,4.8858,4.8765,4.8731,4.8663,4.8629,4.8097,4.7479,4.6793,4.6075,4.5696,4.551,4.4932,4.4608,4.4591,4.4516,4.4103,4.3321,4.2567,4.2164,4.21,4.2022,4.165,4.0842,4.0893,4.0273,3.9045,3.8943,3.8633,3.8119,3.8565,3.891,3.8954,3.9519,3.9524,3.8694,3.8529,3.8387,3.8236,3.8236,3.8578,3.9236,3.9242,3.9227,3.9331,3.9331,3.9346,3.9445,3.9939,4.0292,4.0328,4.0915,4.1538,4.2041,4.2321,4.2616,4.3175,4.324,4.3534,4.3987,4.4172,4.4426,4.483,4.4855,4.487,4.4885,4.49,4.4915,4.4796,4.4172,4.3449,4.3389,4.3305,4.3359,4.3344,4.3305,4.3305,4.3305,4.3305,4.3305,4.3305,4.3305,4.3305,4.3305,4.3305,4.3305,4.3305,4.3305,4.3305,4.3305,4.3305,4.3305,4.7887,4.8871,4.995,5.1594,5.3374,5.3509,5.3509,5.3509,5.3509,5.3306,5.301,5.268,5.1886,5.0769,5.0752,5.0583,5.0271,4.9864,4.9644,4.9601,4.9221,4.9018,4.9018,4.9018,4.9018,4.9018,4.9018,4.9018,4.8968,4.8689,4.8165,4.7505,4.7126,4.6592,4.5747,4.5399,4.505,4.4608,4.4591,4.4448,4.4076,4.3345,4.2932,4.2905,4.253,4.2175,4.1887,4.1853,4.1559,4.1014,4.0956,4.0815,4.0517,4.0804,4.0956,4.0954,4.0812,4.0372,3.9514,3.9352,3.9047,3.8447,3.8766,3.9281,3.9909,3.9999,4.0142,4.0472,4.0232,3.9984,4.0058,4.0591,4.0975,4.1079,4.1592,4.2101,4.2351,4.2711,4.3065,4.3285,4.3314,4.3564,4.4192,4.4651,4.4975,4.5259,4.5304,4.5374,4.533,4.5289,4.5289,4.5229,4.4785,4.4341,4.4012,4.3893,4.3733,4.3434,4.3305,4.3305,4.3344,4.3314,4.3305,4.3305,4.3305,4.3305,4.3305,4.3305,4.3305,4.3305,4.3305,4.3305,4.3305,4.3305,4.3305,4.8049,4.8937,5.0236,5.1864,5.3467,5.3509,5.3509,5.3509,5.3509,5.3509,5.3509,5.3509,5.29,5.1911,5.1607,5.1404,5.1158,5.0642,5.0405,5.0329,4.9652,4.9306,4.9289,4.9078,4.9018,4.9018,4.9018,4.9018,4.9018,4.9018,4.8723,4.8242,4.8005,4.7278,4.6109,4.5838,4.5348,4.4658,4.4591,4.4591,4.4499,4.4045,4.3734,4.3676,4.32,4.2817,4.2608,4.2608,4.2513,4.2293,4.2303,4.2303,4.2303,4.2303,4.2303,4.225,4.1776,4.1193,4.0562,4.0404,4.0149,3.9789,4.0165,4.0573,4.0943,4.1055,4.1143,4.1254,4.1124,4.0915,4.0741,4.1274,4.1658,4.1727,4.2256,4.2646,4.2681,4.3055,4.3359,4.3524,4.3643,4.3923,4.473,4.5454,4.5943,4.5933,4.5903,4.5853,4.5853,4.5903,4.5888,4.5843,4.5853,4.5484,4.4785,4.4576,4.4292,4.4072,4.3938,4.3908,4.3668,4.3584,4.3379,4.3424,4.3349,4.3305,4.3305,4.3305,4.3319,4.3305,4.3305,4.3305,4.3305,4.3305,4.3305,4.8489,4.9126,5.0998,5.2487,5.3509,5.3509,5.3509,5.3509,5.3509,5.3509,5.3509,5.3509,5.3458,5.3264,5.2562,5.1886,5.1294,5.1201,5.1175,5.1066,5.0396,5.0058,4.9982,4.9347,4.898,4.8843,4.876,4.8837,4.8932,4.9001,4.8984,4.8917,4.8293,4.7532,4.6725,4.6075,4.5355,4.4692,4.4591,4.4591,4.4577,4.4543,4.4426,4.4395,4.4444,4.3973,4.3381,4.3321,4.303,4.2324,4.2398,4.2361,4.2361,4.2367,4.2411,4.2361,4.2251,4.2169,4.2049,4.195,4.2093,4.2627,4.263,4.2826,4.2694,4.2606,4.2309,4.158,4.203,4.1997,4.1573,4.1987,4.2341,4.2401,4.2871,4.3175,4.3225,4.3413,4.3619,4.4148,4.4428,4.4898,4.6028,4.6805,4.701,4.707,4.7145,4.7085,4.6999,4.7085,4.7044,4.7044,4.6995,4.6756,4.5599,4.5259,4.5234,4.4935,4.471,4.4911,4.4546,4.4192,4.3868,4.3618,4.3643,4.3594,4.3404,4.3319,4.3349,4.3334,4.3305,4.3305,4.3305,4.3305,4.3305,5.0558,5.1563,5.252,5.3153,5.3492,5.3509,5.3509,5.3509,5.3509,5.3509,5.3509,5.3509,5.3509,5.3484,5.3205,5.2917,5.2621,5.2139,5.1902,5.1826,5.1141,5.0471,4.9793,4.9144,4.8439,4.7843,4.7434,4.7531,4.8153,4.8688,4.9018,4.8984,4.8765,4.802,4.6979,4.6539,4.5829,4.4719,4.4591,4.4591,4.4483,4.4056,4.377,4.377,4.377,4.3361,4.2532,4.3037,4.3216,4.295,4.346,4.3772,4.3762,4.3779,4.3779,4.3768,4.3764,4.3494,4.3036,4.3309,4.3377,4.3153,4.3569,4.4039,4.4151,4.3803,4.3447,4.3485,4.3116,4.2855,4.2736,4.2841,4.2975,4.3005,4.316,4.3324,4.3523,4.4247,4.5065,4.5387,4.5961,4.6554,4.6458,4.6894,4.7283,4.7298,4.7298,4.7298,4.7298,4.7298,4.7298,4.7298,4.7294,4.716,4.677,4.6176,4.5837,4.5454,4.5214,4.521,4.4975,4.4935,4.471,4.4506,4.4381,4.4352,4.4296,4.4042,4.3953,4.3539,4.3494,4.3599,4.3305,4.3584,4.3509,5.1979,5.2908,5.3834,5.405,5.3873,5.3864,5.3712,5.3526,5.3509,5.3509,5.3509,5.3509,5.3509,5.3433,5.3136,5.299,5.2931,5.2403,5.2176,5.2059,5.1076,5.0213,4.954,4.884,4.8051,4.7264,4.6852,4.7003,4.763,4.8545,4.8986,4.9001,4.9018,4.8409,4.728,4.6664,4.5747,4.4687,4.405,4.373,4.3671,4.3183,4.2739,4.2513,4.2466,4.2356,4.1989,4.2567,4.304,4.3329,4.3865,4.4312,4.4566,4.4591,4.4591,4.4577,4.431,4.4205,4.4121,4.4289,4.4456,4.4679,4.5097,4.5587,4.5887,4.5391,4.5186,4.5077,4.469,4.4171,4.3859,4.38,4.3659,4.3399,4.3305,4.3558,4.4123,4.517,4.615,4.6986,4.7599,4.7686,4.726,4.7235,4.7307,4.7298,4.7298,4.7298,4.7298,4.7298,4.7298,4.7298,4.7298,4.7298,4.7115,4.676,4.66,4.6251,4.6022,4.5868,4.5633,4.5633,4.5544,4.5394,4.5319,4.5304,4.5155,4.487,4.4471,4.4012,4.4117,4.4352,4.4172,4.4057,4.3997,5.2473,5.2845,5.4749,5.4931,5.4324,5.4326,5.4084,5.3509,5.3501,5.3509,5.3501,5.3442,5.3314,5.3212,5.2321,5.1894,5.1861,5.1679,5.1672,5.1641,5.0244,4.9473,4.922,4.8477,4.7814,4.7203,4.7427,4.7555,4.7746,4.8547,4.8986,4.8955,4.8877,4.8331,4.7747,4.6229,4.5182,4.4301,4.3117,4.2326,4.2013,4.2118,4.1721,4.0986,4.089,4.1249,4.1941,4.2037,4.245,4.3108,4.3321,4.3717,4.4369,4.4468,4.4566,4.4563,4.391,4.4212,4.5368,4.5053,4.5729,4.6928,4.7698,4.7583,4.7465,4.7316,4.6955,4.6333,4.6094,4.5796,4.5033,4.4869,4.4456,4.3512,4.3429,4.4055,4.537,4.5978,4.6852,4.876,4.9217,4.886,4.8579,4.8,4.7527,4.7363,4.7298,4.7298,4.7298,4.7298,4.7298,4.7298,4.7298,4.7298,4.7298,4.7283,4.7268,4.7204,4.704,4.686,4.6446,4.6311,4.6157,4.6007,4.5933,4.5903,4.5623,4.5369,4.5244,4.493,4.508,4.499,4.484,4.4681,4.4646,5.2476,5.3149,5.3285,5.3249,5.3061,5.3298,5.3277,5.3142,5.3379,5.3501,5.3365,5.2723,5.2383,5.2179,5.1338,5.0864,5.0798,5.0178,5.0149,5.0626,5.0253,4.9582,4.8906,4.8233,4.7596,4.7107,4.7216,4.7691,4.8315,4.8781,4.8711,4.8152,4.8047,4.7292,4.6117,4.5443,4.4864,4.4145,4.3648,4.318,4.2683,4.2096,4.145,4.079,4.0575,4.0917,4.1785,4.1945,4.2125,4.249,4.2977,4.3426,4.3675,4.3711,4.4218,4.5194,4.513,4.5338,4.6292,4.6686,4.7009,4.7858,4.8351,4.8589,4.8487,4.7974,4.7556,4.7178,4.7046,4.6774,4.657,4.6357,4.5634,4.4148,4.4018,4.4689,4.6493,4.8164,4.9745,5.0788,5.0999,5.0349,4.9175,4.8382,4.8009,4.7391,4.7298,4.7298,4.7298,4.7298,4.7298,4.7298,4.7298,4.7298,4.7298,4.7298,4.7298,4.7298,4.7294,4.7279,4.6999,4.6824,4.6685,4.6606,4.6531,4.6396,4.6117,4.5952,4.5858,4.5574,4.5419,4.5345,4.5304,4.5319,4.5364,5.2613,5.3255,5.3175,5.2993,5.2804,5.3039,5.2812,5.2419,5.2618,5.2602,5.2218,5.1649,5.1331,5.1117,5.0256,4.9817,4.9694,4.8723,4.8599,4.9176,4.9231,4.8856,4.8191,4.7543,4.7317,4.7251,4.7219,4.7733,4.8635,4.8528,4.816,4.7663,4.7248,4.6621,4.5498,4.4887,4.4347,4.3908,4.3292,4.2712,4.2108,4.1745,4.1264,4.0713,4.0709,4.1243,4.2113,4.2549,4.2936,4.3369,4.4135,4.4441,4.4182,4.4459,4.5072,4.5819,4.6152,4.6423,4.7141,4.756,4.8056,4.831,4.874,4.8977,4.8959,4.8545,4.8552,4.8505,4.8711,4.8607,4.8286,4.8093,4.7258,4.5798,4.5035,4.5687,4.7582,4.9844,5.147,5.2117,5.2083,5.1073,4.9905,4.8907,4.8424,4.7555,4.7298,4.7298,4.7298,4.7298,4.7298,4.7298,4.7298,4.7298,4.7298,4.7298,4.7298,4.7298,4.7309,4.7309,4.7164,4.7134,4.7059,4.704,4.6995,4.6935,4.6685,4.667,4.658,4.6202,4.5918,4.6157,4.6322,4.6247,4.6217,5.279,5.296,5.3929,5.3766,5.3226,5.3249,5.2603,5.1618,5.148,5.1253,5.074,5.0439,5.0301,5.0068,4.9201,4.8723,4.8553,4.7887,4.7484,4.7559,4.757,4.7516,4.7394,4.6902,4.7199,4.7942,4.753,4.7836,4.8799,4.8082,4.7514,4.718,4.6445,4.6041,4.5482,4.4466,4.3796,4.3575,4.2424,4.1511,4.0891,4.1228,4.1209,4.0609,4.113,4.1891,4.2809,4.3842,4.4707,4.543,4.5916,4.5892,4.5648,4.624,4.6456,4.6773,4.6861,4.7259,4.7768,4.8039,4.8368,4.9001,4.912,4.9095,4.9318,4.977,4.9976,5.0026,5.0585,5.0751,5.0113,4.9864,4.9162,4.7915,4.6549,4.6974,4.9117,5.0889,5.2091,5.2923,5.2566,5.1541,5.0464,4.9496,4.8579,4.7598,4.7298,4.7298,4.7298,4.7298,4.7298,4.7298,4.7298,4.7298,4.7298,4.7298,4.7298,4.7298,4.7298,4.7298,4.7298,4.7298,4.7298,4.7298,4.7298,4.7294,4.7249,4.7119,4.7089,4.6905,4.692,4.7238,4.7189,4.695,4.679,5.165,5.1681,5.1976,5.1979,5.1864,5.2108,5.2067,5.1684,5.1449,5.1214,5.0869,4.975,4.9262,4.911,4.8188,4.769,4.7647,4.7456,4.7298,4.7298,4.7298,4.7298,4.7283,4.7166,4.794,4.9194,4.8219,4.8232,4.9296,4.7953,4.6753,4.5556,4.5365,4.48,4.4067,4.368,4.3456,4.3427,4.3096,4.2462,4.1952,4.1997,4.1792,4.1283,4.1777,4.2599,4.366,4.5573,4.6192,4.5536,4.5698,4.5752,4.5616,4.5883,4.6575,4.7447,4.7633,4.7928,4.852,4.8723,4.9052,4.9695,4.9821,5.005,5.0592,5.0786,5.0922,5.104,5.1564,5.193,5.1657,5.1402,5.0455,4.8892,4.807,4.8363,4.9847,5.1164,5.2303,5.3221,5.3161,5.2205,5.0852,5.0121,4.9227,4.7867,4.7414,4.7384,4.7459,4.7414,4.7459,4.7328,4.7298,4.7298,4.7298,4.7298,4.7298,4.7298,4.7298,4.7298,4.7298,4.7298,4.7298,4.7298,4.7298,4.7294,4.7294,4.7238,4.7283,4.7298,4.7298,4.7298,4.7298,4.7174,4.7145,5.1217,5.1217,5.1217,5.1217,5.1216,5.144,5.1377,5.1133,5.0979,5.074,5.0267,4.9188,4.8585,4.85,4.769,4.7309,4.7298,4.7298,4.7298,4.7298,4.7298,4.7298,4.7298,4.7331,4.8167,4.9423,4.8353,4.8474,4.8987,4.7567,4.6116,4.5268,4.4496,4.3859,4.3468,4.3305,4.3305,4.3309,4.33,4.3005,4.2455,4.2661,4.2421,4.2077,4.2484,4.3354,4.4856,4.6985,4.7474,4.6445,4.653,4.6816,4.6457,4.68,4.741,4.8336,4.836,4.8689,4.9272,4.9458,4.9813,5.0388,5.0574,5.0752,5.1133,5.1438,5.1666,5.1733,5.2359,5.2739,5.2716,5.2273,5.1382,5.0362,4.9728,4.9754,5.0365,5.0867,5.1956,5.2964,5.3382,5.2705,5.0726,5.0672,4.9728,4.8452,4.8113,4.7993,4.7859,4.7754,4.7638,4.7563,4.7459,4.7459,4.7489,4.7478,4.7549,4.7534,4.7444,4.7429,4.7399,4.7384,4.7298,4.7298,4.7298,4.7298,4.7298,4.7298,4.7298,4.7298,4.7298,4.7298,4.7298,4.7029,4.7077,5.1217,5.1217,5.1217,5.1217,5.1217,5.1214,5.096,5.0433,5.0312,5.0001,4.9486,4.8745,4.8473,4.8263,4.7779,4.7388,4.7298,4.7298,4.7298,4.7298,4.7298,4.7298,4.7298,4.7298,4.7929,4.8692,4.8053,4.8228,4.8347,4.6832,4.5837,4.5295,4.4186,4.3563,4.3479,4.3389,4.3305,4.3305,4.3305,4.3085,4.2741,4.296,4.2925,4.268,4.3183,4.4445,4.6112,4.7729,4.8099,4.6836,4.8225,4.8296,4.7883,4.855,4.8966,4.907,4.9154,4.9432,5.0058,5.0227,5.0524,5.1158,5.1319,5.1387,5.1658,5.2139,5.2435,5.2427,5.3095,5.334,5.3273,5.2582,5.2102,5.1666,5.1083,5.0721,5.0743,5.0656,5.1327,5.3152,5.3526,5.2603,5.1419,5.0873,5.076,4.8873,4.8648,4.8618,4.8498,4.8423,4.8203,4.7948,4.7814,4.7679,4.7668,4.7672,4.7788,4.7833,4.7698,4.7623,4.7578,4.7519,4.7369,4.7298,4.7298,4.7298,4.7298,4.7298,4.7298,4.7298,4.7298,4.7298,4.7255,4.6752,4.6572,5.1217,5.1217,5.1217,5.1217,5.1217,5.1202,5.1116,5.0936,5.0431,5.0174,4.9875,4.9355,4.8813,4.8308,4.8113,4.7818,4.7343,4.7298,4.7298,4.7298,4.7298,4.7298,4.7298,4.7298,4.7834,4.8315,4.7803,4.7694,4.7647,4.69,4.589,4.5312,4.4659,4.4097,4.4042,4.3614,4.3305,4.3305,4.3305,4.324,4.313,4.3175,4.3264,4.3203,4.4042,4.5427,4.6909,4.7696,4.8069,4.8458,4.8744,4.8845,4.8711,4.8862,4.9247,4.9669,4.9821,5.0159,5.0794,5.1014,5.1294,5.1953,5.2105,5.2317,5.296,5.3036,5.3205,5.3255,5.3416,5.3577,5.3619,5.3123,5.2921,5.279,5.2503,5.2463,5.29,5.2272,5.2349,5.3277,5.4008,5.3573,5.1582,5.1867,5.1209,4.9589,4.9183,4.9243,4.9183,4.9082,4.8813,4.8513,4.8453,4.8379,4.8368,4.8353,4.8353,4.8353,4.8188,4.8083,4.8023,4.7679,4.7534,4.7414,4.7298,4.7298,4.7298,4.7298,4.7298,4.7298,4.7277,4.7142,4.6927,4.6447,4.5801,5.1217,5.1217,5.1217,5.1217,5.1217,5.1217,5.1217,5.1158,5.0847,5.0667,5.0533,4.9991,4.937,4.8753,4.8438,4.7919,4.7418,4.7298,4.7298,4.7298,4.7298,4.7298,4.7298,4.7305,4.7604,4.7988,4.7583,4.7452,4.7292,4.6775,4.6114,4.5743,4.5084,4.4811,4.4666,4.4127,4.3823,4.3703,4.3434,4.3305,4.3305,4.3314,4.363,4.4224,4.5312,4.6694,4.7489,4.8072,4.8481,4.8868,4.9035,4.9018,4.9018,4.9035,4.9373,4.994,5.0117,5.0676,5.1361,5.175,5.2055,5.2782,5.2875,5.3069,5.3391,5.3509,5.3509,5.3577,5.3822,5.4118,5.4464,5.4422,5.4258,5.4234,5.4133,5.4309,5.4497,5.3726,5.3349,5.4264,5.4887,5.3899,5.3037,5.2749,5.1737,5.0174,5.0216,5.0238,4.9781,4.9662,4.9456,4.9232,4.9198,4.9153,4.9153,4.9097,4.9037,4.8977,4.8843,4.8783,4.8738,4.8233,4.7698,4.7563,4.7399,4.7298,4.7298,4.7298,4.7298,4.7298,4.7197,4.6949,4.6491,4.5812,4.5104,5.1097,5.0929,5.1109,5.1097,5.0952,5.1097,5.1217,5.1217,5.1217,5.1116,5.1101,5.0566,5.0021,4.943,4.8936,4.8222,4.7608,4.7298,4.7298,4.7298,4.7298,4.7298,4.7298,4.7305,4.7327,4.7309,4.7309,4.7336,4.7175,4.6779,4.6565,4.6341,4.5798,4.5484,4.5319,4.4815,4.4456,4.4381,4.3853,4.3554,4.3563,4.3632,4.4172,4.5461,4.6713,4.7769,4.8331,4.8924,4.9385,4.934,4.9315,4.9315,4.9298,4.9213,4.9586,5.0379,5.0633,5.1276,5.2198,5.252,5.279,5.3475,5.3475,5.3475,5.3492,5.3526,5.3611,5.3932,5.4304,5.4972,5.5597,5.5678,5.5729,5.5805,5.5891,5.602,5.587,5.5193,5.527,5.5318,5.556,5.4863,5.3815,5.3153,5.1998,5.1065,5.1125,5.1068,5.0581,5.0297,5.0107,5.0059,5.0044,5.0044,5.0044,4.9889,4.9825,4.9434,4.9357,4.9226,4.9208,4.8873,4.8308,4.7713,4.7504,4.7414,4.7339,4.7298,4.7298,4.7273,4.6873,4.6366,4.5779,4.5138,4.427,5.0555,4.963,5.0748,5.0579,4.98,5.0701,5.1155,5.1217,5.1217,5.1217,5.1187,5.1071,5.0622,5.0114,4.9979,4.9228,4.8162,4.7578,4.7298,4.7298,4.7298,4.7298,4.7298,4.7298,4.7298,4.7298,4.7298,4.7298,4.7294,4.7189,4.7014,4.6965,4.6476,4.6147,4.5967,4.5518,4.5129,4.505,4.4491,4.4147,4.4168,4.4553,4.5397,4.6856,4.8015,4.8829,4.9609,5.0337,5.0846,5.0846,5.0821,5.0739,5.0458,5.0045,5.0489,5.142,5.1725,5.2114,5.2959,5.3239,5.3323,5.3467,5.3509,5.3509,5.3509,5.3594,5.394,5.4549,5.5082,5.5614,5.5691,5.63,5.657,5.6722,5.7027,5.7357,5.7338,5.7093,5.6534,5.6171,5.6163,5.5873,5.458,5.351,5.2632,5.1652,5.1168,5.1202,5.0966,5.0862,5.0873,5.0888,5.0951,5.0963,5.0963,5.0772,5.0559,4.9908,4.9631,4.9342,4.9327,4.935,4.8918,4.776,4.744,4.7504,4.7429,4.7308,4.704,4.6851,4.6288,4.5644,4.4745,4.3834,4.2798,4.8702,4.8187,4.8826,4.9161,4.9308,4.9861,5.0579,5.1155,5.1217,5.1217,5.1217,5.1173,5.0832,5.0342,5.0207,4.9486,4.8401,4.7608,4.7328,4.7298,4.7298,4.7298,4.7298,4.7298,4.7298,4.7298,4.7298,4.7298,4.7298,4.7294,4.7298,4.7223,4.6929,4.6809,4.6659,4.6161,4.5862,4.5668,4.52,4.4846,4.495,4.5559,4.6842,4.796,4.9003,4.9827,5.0435,5.0317,5.0426,5.0267,4.9851,4.9909,5.0024,5.017,5.0481,5.1874,5.2284,5.263,5.3315,5.3509,5.3492,5.3492,5.3509,5.3509,5.3611,5.3907,5.4549,5.548,5.5953,5.6435,5.6833,5.712,5.7323,5.7408,5.7705,5.7857,5.79,5.79,5.7364,5.6745,5.6907,5.6302,5.4748,5.3835,5.3218,5.2377,5.1421,5.1217,5.1217,5.1217,5.1217,5.1202,5.1102,5.0754,5.0671,5.0481,5.0107,4.9626,4.9364,4.9078,4.8729,4.8416,4.7867,4.6987,4.7015,4.7388,4.7339,4.7152,4.6779,4.6232,4.529,4.4352,4.3436,4.2473,4.1744,4.6927,4.6695,4.6992,4.758,4.8377,4.9012,4.98,5.0713,5.1082,5.1217,5.1217,5.1187,5.0922,5.0458,5.0024,4.9422,4.8412,4.7713,4.7328,4.7298,4.7298,4.7298,4.7298,4.7298,4.7298,4.7298,4.7298,4.7298,4.7298,4.7298,4.7298,4.7283,4.7298,4.7298,4.7104,4.6715,4.654,4.6311,4.5873,4.5567,4.6105,4.6887,4.8033,4.9142,5.0052,5.0774,5.0902,5.0739,5.0277,4.989,4.936,4.8989,4.9428,4.954,5.0285,5.1615,5.2068,5.2589,5.296,5.3467,5.3509,5.3509,5.3644,5.3712,5.4008,5.4659,5.5547,5.6562,5.7002,5.7197,5.7578,5.7849,5.7866,5.7849,5.7849,5.79,5.79,5.7819,5.7619,5.7407,5.7637,5.6754,5.5193,5.4294,5.3683,5.2597,5.165,5.1229,5.1217,5.1217,5.1217,5.1217,5.0999,5.0421,5.0044,4.9604,4.9014,4.8197,4.8054,4.7889,4.7476,4.7056,4.6632,4.6508,4.6769,4.7073,4.7026,4.6665,4.6002,4.5159,4.4069,4.3199,4.2527,4.2222,4.1786,4.6383,4.5342,4.6552,4.65,4.603,4.8062,4.921,4.9543,5.0603,5.1206,5.105,5.1217,5.1131,5.0814,4.9834,4.9352,4.8813,4.7889,4.7298,4.7298,4.7298,4.7298,4.7298,4.7298,4.7298,4.7298,4.7298,4.7298,4.7363,4.7348,4.7381,4.7424,4.7488,4.7363,4.7486,4.7179,4.7194,4.7044,4.651,4.6727,4.7684,4.8071,4.9118,5.0518,5.1417,5.1589,5.1145,5.1044,5.0915,5.0168,5.0071,5.009,5.0269,5.0275,5.0314,5.0826,5.1346,5.1975,5.2252,5.3007,5.3594,5.3712,5.4059,5.4372,5.4846,5.5607,5.6444,5.6697,5.7323,5.7688,5.7849,5.7883,5.79,5.79,5.79,5.79,5.79,5.7863,5.7628,5.6991,5.6889,5.6596,5.5645,5.4903,5.4121,5.2956,5.1964,5.1503,5.1217,5.1217,5.1217,5.1217,5.0591,4.996,4.8876,4.8514,4.7568,4.6695,4.6513,4.6474,4.6119,4.5841,4.6469,4.6423,4.6516,4.6101,4.5596,4.5169,4.4842,4.4238,4.332,4.2562,4.1843,4.1696,4.1697,4.4427,4.392,4.4535,4.4887,4.5142,4.6357,4.73,4.8214,4.947,5.0068,5.0239,5.0929,5.1217,5.0945,4.9864,4.9303,4.8992,4.7938,4.7313,4.7324,4.7324,4.7298,4.7298,4.7298,4.7298,4.7298,4.7298,4.7298,4.7435,4.7887,4.8152,4.8115,4.8157,4.8204,4.7967,4.757,4.7359,4.7209,4.7115,4.7564,4.85,4.9007,4.9826,5.1678,5.214,5.1898,5.1516,5.1004,5.0553,4.9621,4.9055,4.8646,4.862,4.8599,4.8625,4.8702,4.957,5.0633,5.1805,5.2886,5.3551,5.4059,5.4507,5.493,5.5666,5.6376,5.7053,5.7417,5.7688,5.7874,5.79,5.79,5.79,5.79,5.79,5.79,5.7881,5.7836,5.76,5.6842,5.6067,5.5598,5.5083,5.4168,5.3324,5.2519,5.175,5.1398,5.1217,5.1217,5.1217,5.1217,5.0335,4.9357,4.8024,4.7057,4.578,4.4914,4.4522,4.4495,4.4522,4.4618,4.5182,4.5075,4.4505,4.4163,4.3953,4.3976,4.3945,4.3351,4.2655,4.2086,4.1569,4.1517,4.1483,4.3,4.3,4.3,4.3588,4.4535,4.4833,4.5608,4.6708,4.8514,4.9223,4.9555,5.0567,5.1217,5.0978,5.0122,4.9595,4.9434,4.8147,4.7653,4.7519,4.7384,4.7309,4.7298,4.7298,4.7298,4.7309,4.7298,4.7495,4.803,4.8569,4.9079,4.8856,4.9085,4.8948,4.863,4.8141,4.77,4.7305,4.7585,4.8342,4.9362,4.9889,5.1,5.1974,5.2354,5.1992,5.1461,5.0525,4.9496,4.8507,4.7887,4.7598,4.757,4.7619,4.7613,4.7807,4.8594,4.9924,5.1433,5.2727,5.369,5.4396,5.515,5.5827,5.6782,5.7087,5.7205,5.7772,5.784,5.79,5.79,5.79,5.79,5.79,5.79,5.79,5.7773,5.7407,5.6792,5.584,5.5001,5.4274,5.3694,5.2978,5.2332,5.1838,5.1491,5.1249,5.1217,5.1217,5.1144,5.1085,5.0056,4.8938,4.7543,4.6082,4.4576,4.3547,4.317,4.3099,4.3478,4.3492,4.3713,4.3309,4.3,4.314,4.3482,4.3302,4.3087,4.2719,4.2324,4.1835,4.1451,4.144,4.1873,4.3,4.3,4.3,4.3071,4.3309,4.4481,4.5035,4.5568,4.8024,4.9147,4.9567,5.0484,5.105,5.0961,5.0345,4.9901,5.0043,4.8816,4.8263,4.7948,4.7649,4.7354,4.7298,4.7298,4.7309,4.7316,4.7484,4.7978,4.8738,4.9714,4.957,4.9054,4.995,4.9585,4.9029,4.8496,4.7876,4.7598,4.7887,4.8973,5.0083,5.0948,5.2014,5.2754,5.2423,5.1483,5.055,4.9625,4.8651,4.7668,4.7409,4.7294,4.7298,4.7298,4.7313,4.7671,4.8208,4.9622,5.12,5.2499,5.3556,5.4643,5.5776,5.6808,5.7518,5.7738,5.7874,5.7775,5.7746,5.7782,5.7819,5.79,5.7881,5.7546,5.7391,5.7234,5.6982,5.6499,5.582,5.4811,5.4025,5.3396,5.2723,5.2097,5.2097,5.1692,5.1433,5.1217,5.1217,5.1194,5.1061,5.0748,4.974,4.8564,4.7224,4.5727,4.4154,4.3435,4.3085,4.3,4.3113,4.3,4.3,4.3,4.3,4.3,4.3003,4.3042,4.2915,4.2459,4.2098,4.1996,4.1932,4.1968,4.282,4.3,4.3,4.3,4.3,4.3044,4.3547,4.4249,4.5236,4.7056,4.8975,5.0385,5.0179,5.0433,5.0656,4.9643,4.9474,4.9921,4.8865,4.8487,4.8083,4.7683,4.7369,4.7298,4.7384,4.7309,4.7503,4.7881,4.8299,4.8866,5.0419,5.0989,5.098,5.1145,5.0598,4.9921,4.8579,4.7732,4.7587,4.7839,4.8677,5.0204,5.076,5.1784,5.3272,5.2461,5.1431,5.0445,4.9376,4.8345,4.7576,4.7342,4.7328,4.7384,4.7369,4.7563,4.7848,4.8412,4.9449,5.0991,5.2382,5.3828,5.5755,5.6892,5.7504,5.7637,5.781,5.7418,5.7335,5.7426,5.7445,5.6918,5.7381,5.7709,5.7149,5.6804,5.6644,5.623,5.574,5.517,5.4279,5.3439,5.2701,5.2029,5.1343,5.1526,5.1627,5.1386,5.1217,5.1217,5.1073,5.0893,5.0143,4.9088,4.7721,4.6331,4.4994,4.3685,4.3323,4.3,4.3,4.3,4.3,4.3,4.3,4.3,4.3,4.3,4.3,4.2864,4.2639,4.2614,4.2637,4.2573,4.2485,4.3132,4.3,4.3,4.3,4.3,4.3,4.3,4.3769,4.5102,4.6526,4.8653,5.1097,5.0227,5.0263,5.0564,4.997,4.9616,5.014,4.9527,4.9045,4.8701,4.8371,4.7938,4.7904,4.7969,4.8152,4.8185,4.8663,4.9217,5.0022,5.1266,5.1867,5.2196,5.2294,5.164,5.0087,4.8439,4.732,4.7342,4.8146,4.8728,5.0339,5.1234,5.1521,5.2818,5.1885,5.0873,4.9823,4.879,4.803,4.7516,4.7339,4.7444,4.7534,4.7698,4.7978,4.8353,4.8774,4.9411,5.0946,5.2465,5.4024,5.5553,5.6222,5.6644,5.6915,5.6942,5.624,5.5939,5.6402,5.6612,5.5833,5.6528,5.666,5.6073,5.6389,5.6272,5.5564,5.5007,5.4458,5.3806,5.2923,5.201,5.1815,5.1274,5.1418,5.1536,5.1354,5.1217,5.1217,5.0976,5.0591,4.9606,4.8277,4.6812,4.5289,4.4249,4.3365,4.3254,4.3,4.3,4.3,4.3,4.3,4.3,4.3,4.3,4.3,4.3,4.3,4.2963,4.2939,4.2876,4.2876,4.2762,4.2824,4.3,4.3,4.3,4.3,4.3028,4.3028,4.3906,4.5555,4.6888,4.8777,5.0881,5.0796,5.0819,5.0934,5.0405,5.0606,5.0768,5.0323,4.9938,4.971,4.9161,4.9127,4.9067,4.9007,4.8935,4.9594,5.0035,5.0674,5.1617,5.2327,5.2831,5.3121,5.3123,5.2173,5.0358,4.8329,4.7359,4.7559,4.9125,4.974,5.0633,5.1836,5.2204,5.2311,5.1283,5.0252,4.9506,4.8251,4.757,4.7359,4.7433,4.7683,4.8068,4.8233,4.8618,4.9187,4.9273,5.0119,5.1661,5.2802,5.3774,5.4741,5.5381,5.5262,5.4941,5.4848,5.4894,5.4733,5.5002,5.4992,5.5078,5.549,5.5379,5.5566,5.594,5.587,5.5197,5.5174,5.4815,5.4539,5.2788,5.1353,5.1383,5.1342,5.1419,5.1439,5.1282,5.1217,5.1217,5.0615,5.008,4.8802,4.739,4.603,4.463,4.3741,4.3085,4.3028,4.3,4.3,4.3,4.3,4.3,4.3,4.3,4.3,4.3,4.3,4.3,4.3,4.3,4.2963,4.2988,4.3,4.3,4.3,4.3,4.3,4.3,4.3127,4.3975,4.5595,4.777,4.9149,4.9887,4.9839,4.9887,4.9887,4.9873,5.0092,5.0457,5.1001,5.0536,5.0207,5.0132,4.9669,4.9352,4.9333,4.9453,4.9467,4.987,5.0599,5.1649,5.2243,5.3344,5.4356,5.4738,5.3373,5.1968,5.0263,4.848,4.7309,4.737,4.8104,4.8887,5.0323,5.1292,5.2073,5.2762,5.132,5.0289,4.9617,4.8228,4.755,4.7534,4.7713,4.8128,4.8472,4.8652,4.925,4.9748,4.9916,5.0338,5.1209,5.1961,5.2819,5.3807,5.439,5.4348,5.4557,5.4589,5.4253,5.3892,5.419,5.4358,5.4807,5.491,5.4971,5.547,5.571,5.557,5.5313,5.5825,5.5915,5.5708,5.456,5.3228,5.2735,5.2375,5.2288,5.1802,5.1618,5.1322,5.1232,5.0068,4.9208,4.7822,4.6435,4.5155,4.4003,4.3365,4.3042,4.3014,4.3,4.3,4.3,4.3,4.3,4.3,4.3,4.3,4.3,4.3,4.3,4.3,4.3,4.3,4.3,4.3,4.3,4.3,4.3,4.3,4.3295,4.3769,4.463,4.6591,4.911,5.0579,5.0662,5.0068,4.9933,4.9984,4.9972,4.9984,5.0167,5.1119,5.0802,5.0551,5.0491,5.0197,5.0103,5.0029,4.9947,5.0257,5.0602,5.1722,5.2889,5.3129,5.4815,5.5202,5.4525,5.3395,5.1959,5.0399,4.9019,4.8364,4.8754,4.9562,5.0421,5.1595,5.2354,5.2688,5.2623,5.186,5.0823,4.9889,4.8896,4.7978,4.8098,4.8349,4.8742,4.8985,4.9359,4.9916,5.0353,5.0596,5.0814,5.1146,5.1274,5.2127,5.3,5.3401,5.3422,5.3422,5.316,5.3237,5.3226,5.3768,5.4041,5.4269,5.4348,5.5101,5.5591,5.59,5.5785,5.6525,5.7098,5.7141,5.6932,5.6585,5.5351,5.4023,5.3683,5.3345,5.2656,5.2007,5.1628,5.1089,4.979,4.8502,4.7133,4.5859,4.4698,4.3824,4.3226,4.3014,4.3,4.3,4.3,4.3,4.3,4.3,4.3,4.3,4.3,4.3,4.3,4.3,4.3,4.3,4.3,4.3,4.3,4.3,4.3,4.3,4.3,4.37,4.4752,4.5035,4.6733,4.9272,5.0615,5.1105,5.0988,5.0902,5.0807,5.0941,5.1038,5.112,5.1152,5.1116,5.1086,5.1113,5.0888,5.0963,5.0978,5.0983,5.0969,5.1768,5.2655,5.3249,5.395,5.4879,5.492,5.4073,5.31,5.2075,5.1016,5.0376,4.9981,5.031,5.0788,5.1829,5.3031,5.4096,5.3635,5.3078,5.2162,5.1048,5.0124,4.9215,4.9067,4.9138,4.9273,4.9643,4.9949,5.0204,5.0652,5.0966,5.1116,5.1173,5.1187,5.1217,5.1249,5.1842,5.1615,5.1339,5.158,5.2067,5.2607,5.3131,5.3699,5.3657,5.3696,5.4604,5.55,5.5996,5.6503,5.7093,5.8053,5.84,5.8354,5.82,5.7985,5.6926,5.5181,5.4526,5.4641,5.3381,5.2578,5.1636,5.0927,4.9401,4.8076,4.6721,4.5475,4.4359,4.3603,4.3085,4.3,4.3,4.3,4.3,4.3,4.3,4.3,4.3,4.3,4.3,4.3,4.3,4.3,4.3,4.3,4.3,4.3,4.3,4.3,4.3,4.3,4.3,4.324,4.3824,4.5661,4.7556,4.9259,5.0576,5.076,4.9824,5.0807,5.0784,4.9885,5.0736,5.112,5.1217,5.1217,5.1202,5.1217,5.1217,5.1217,5.1217,5.1211,5.1302,5.1733,5.2423,5.32,5.3455,5.4386,5.4354,5.3276,5.3076,5.2558,5.2247,5.1981,5.1611,5.1447,5.1852,5.2863,5.3629,5.4137,5.3722,5.3376,5.2171,5.1153,5.0487,4.9693,4.9505,4.9396,4.9748,5.0088,5.0132,5.0622,5.1113,5.1143,5.1202,5.1217,5.1217,5.1217,5.1217,5.1241,5.1303,5.1217,5.1409,5.2013,5.2787,5.3696,5.4629,5.5032,5.5511,5.6269,5.6963,5.7467,5.7988,5.8672,5.9597,6.014,6.0089,6.0079,5.9855,5.8264,5.6504,5.6311,5.6206,5.4561,5.3116,5.2006,5.0649,4.9082,4.7582,4.6214,4.4927,4.3755,4.3449,4.3,4.3,4.3,4.3,4.3,4.3,4.3,4.3,4.3,4.3,4.3,4.3,4.3,4.3,4.3,4.3,4.3,4.3,4.3,4.3,4.2473,4.2675,4.2675,4.2801,4.3451,4.5938,4.7376,4.7986,5.0119,5.0689,5.0143,5.0855,5.0733,5.0311,5.0881,5.1217,5.1217,5.1217,5.1217,5.1217,5.1217,5.1217,5.1217,5.1217,5.1223,5.1588,5.2184,5.2964,5.3143,5.3806,5.4047,5.3093,5.3204,5.3171,5.3054,5.3132,5.345,5.3273,5.3402,5.384,5.4085,5.4202,5.431,5.3742,5.2335,5.1545,5.095,5.0197,5.0079,5.0044,5.0503,5.0581,5.0626,5.0996,5.1187,5.1217,5.1217,5.1217,5.1217,5.1217,5.1217,5.143,5.1891,5.2359,5.2543,5.3038,5.4162,5.5261,5.6244,5.7108,5.7679,5.8258,5.88,5.9323,5.9814,6.0322,6.1095,6.1863,6.2043,6.2102,6.1118,5.9572,5.8676,5.8451,5.743,5.5219,5.323,5.1707,5.0243,4.8594,4.7057,4.5608,4.4331,4.3127,4.3,4.3,4.3,4.3,4.3,4.3,4.3,4.3,4.3,4.3,4.3,4.3,4.3,4.3,4.3,4.3,4.3,4.3,4.3,4.3,4.3,4.1763,4.2224,4.225,4.26,4.3342,4.574,4.62,4.5528,4.9061,5.0769,5.0627,5.0917,5.0831,5.0531,5.0976,5.1206,5.1217,5.1217,5.1217,5.1217,5.1217,5.1217,5.1217,5.1217,5.1217,5.1569,5.1987,5.2429,5.2916,5.3285,5.3285,5.2861,5.3433,5.3542,5.3466,5.3988,5.4495,5.5169,5.55,5.5987,5.5976,5.6017,5.5604,5.4529,5.3271,5.2187,5.1452,5.1158,5.1217,5.1187,5.1173,5.1131,5.1131,5.1146,5.1202,5.1217,5.1217,5.1217,5.1277,5.1352,5.1593,5.2113,5.3028,5.4,5.4469,5.4818,5.5959,5.7088,5.8134,5.892,5.9523,5.9836,6.0276,6.0536,6.0857,6.1256,6.1786,6.2186,6.206,6.1971,6.1197,5.9675,5.8257,5.7777,5.7134,5.523,5.3414,5.165,4.9898,4.8173,4.6544,4.5044,4.396,4.3013,4.3,4.3,4.3,4.3,4.3,4.3,4.3,4.3,4.3,4.3,4.3,4.3,4.3,4.3,4.3,4.3,4.3,4.3,4.3,4.3,4.3,4.2531,4.225,4.2625,4.2889,4.3199,4.4779,4.5369,4.5182,4.7121,4.8074,4.8275,4.9124,4.9752,4.9911,5.0725,5.1061,5.1206,5.1217,5.1217,5.1217,5.1217,5.1217,5.1217,5.1217,5.1217,5.1261,5.1514,5.175,5.1919,5.2056,5.2044,5.1727,5.244,5.2945,5.4052,5.4656,5.5444,5.6405,5.6963,5.7253,5.7234,5.582,5.4718,5.3988,5.3022,5.185,5.1249,5.1217,5.1217,5.1202,5.1202,5.1202,5.1202,5.1217,5.1217,5.1217,5.1229,5.1291,5.1593,5.1947,5.2444,5.3346,5.4473,5.582,5.6729,5.7162,5.79,5.8986,5.9871,6.0604,6.1131,6.1363,6.1545,6.1639,6.1733,6.2053,6.2388,6.2196,6.2001,6.1507,6.0922,5.9653,5.8154,5.7098,5.6375,5.5005,5.3209,5.1415,4.9604,4.7839,4.6048,4.4632,4.373,4.3052,4.3013,4.3,4.3,4.3,4.3,4.3,4.3,4.3,4.3,4.3,4.3,4.3,4.3,4.3,4.3,4.3,4.3,4.3,4.3,4.3,4.3,4.2923,4.251,4.3872,4.388,4.3439,4.5102,4.5276,4.44,4.4954,4.5262,4.5634,4.7275,4.8576,4.9063,5.002,5.0855,5.1073,5.1206,5.1217,5.1217,5.1217,5.1217,5.1217,5.1217,5.1217,5.1217,5.1217,5.1261,5.1217,5.1249,5.1331,5.1371,5.1915,5.3193,5.4708,5.5363,5.6191,5.6991,5.7645,5.7818,5.7746,5.626,5.4986,5.4227,5.3088,5.1861,5.1261,5.1217,5.1217,5.1217,5.1217,5.1217,5.1217,5.1217,5.1217,5.1217,5.1291,5.155,5.2208,5.289,5.373,5.4914,5.6509,5.8087,5.8574,5.9048,5.9798,6.079,6.1108,6.1765,6.1842,6.2025,6.2042,6.2092,6.2136,6.2295,6.2398,6.2312,6.2196,6.201,6.1177,5.9962,5.8537,5.7379,5.6353,5.4107,5.2422,5.1058,4.9282,4.7577,4.5768,4.4417,4.3655,4.3126,4.3,4.3,4.3,4.3,4.3,4.3,4.3,4.3,4.3,4.3,4.3,4.3,4.3,4.3,4.3,4.3,4.3,4.3,4.3,4.3,4.3,4.296,4.2568,4.4586,4.4586,4.338,4.5355,4.5116,4.331,4.3058,4.3113,4.3463,4.5581,4.735,4.8527,4.9245,5.0164,5.0843,5.1144,5.1217,5.1217,5.1217,5.1217,5.1217,5.1217,5.1217,5.1217,5.1217,5.1217,5.1217,5.1217,5.1328,5.1666,5.2911,5.4453,5.517,5.6318,5.74,5.7574,5.7845,5.7755,5.7307,5.6624,5.549,5.4426,5.3357,5.223,5.1499,5.1217,5.1217,5.1217,5.1217,5.1217,5.1217,5.1217,5.1217,5.1232,5.1442,5.2289,5.3353,5.4066,5.5397,5.6942,5.8793,5.9828,6.0234,6.0802,6.155,6.1875,6.2185,6.2323,6.2391,6.2407,6.2407,6.2407,6.2407,6.2378,6.2368,6.2339,6.2253,6.2137,6.0953,5.9762,5.865,5.7508,5.5803,5.355,5.1822,5.0379,4.8908,4.731,4.5621,4.4645,4.3936,4.3515,4.3101,4.3,4.3,4.3,4.3,4.3,4.3,4.3,4.3,4.3,4.3,4.3,4.3,4.3,4.3,4.3,4.3,4.3,4.3,4.3,4.3,4.2467,4.0958,4.1897,4.2281,4.2463,4.3022,4.3057,4.3034,4.3,4.3,4.3155,4.3504,4.5061,4.7593,4.8789,4.9924,5.1035,5.1217,5.1217,5.1217,5.1217,5.1217,5.1217,5.1217,5.1217,5.1217,5.1217,5.1217,5.1217,5.1217,5.1226,5.1363,5.2485,5.3796,5.4801,5.6047,5.7206,5.7582,5.7637,5.7454,5.6422,5.5711,5.5023,5.3871,5.2593,5.1769,5.1226,5.1217,5.1217,5.1217,5.1217,5.1217,5.1247,5.1316,5.1419,5.1827,5.1999,5.3258,5.4389,5.546,5.6902,5.8809,6.0276,6.0862,6.1284,6.1724,6.2175,6.2175,6.2374,6.2374,6.2407,6.2407,6.2407,6.2407,6.2407,6.2292,6.2216,6.204,6.1874,6.1016,5.9827,5.874,5.7675,5.6647,5.5677,5.3675,5.22,5.0823,4.9877,4.7797,4.5634,4.504,4.4454,4.3601,4.3101,4.3013,4.3,4.3,4.3,4.3,4.3,4.3,4.3,4.3,4.3,4.3,4.3,4.3,4.3,4.3,4.3,4.3,4.3,4.3,4.3]},{"header":{"parameterUnit":"m.s-1","parameterCategory":1,"la1":31.0,"la2":29.5877,"lo1":-88.7671,"lo2":-86.6584,"dy":0.0162,"dx":0.0185,"nx":115,"ny":88,"refTime":"2026-05-11T00:00:00:Z","depth":0,"parameterNumber":3,"parameterNumberName":"V-component_of_WINDS"},"data":[0.0,0.0,0.0,0.0,0.0,0.0,0.0,0.0,0.0,0.0,0.0,0.0,0.0,0.0,0.0,0.0,0.0,0.0,0.0,0.0,0.0,0.0,0.0,0.0,0.0,0.0,0.0,0.0,0.0,0.0,0.0,0.0,0.0,0.0,0.0,0.0,0.0,0.0,0.0,0.0,0.0,0.0,0.0,0.0,0.0,0.0,0.0,0.0,0.0,0.0,0.0,0.0,0.0,0.0,0.0,0.0,0.0,0.0,0.0,0.0,0.0,0.0,0.0,0.0,0.0,0.0,0.0,0.0,0.0,0.0,0.0,0.0,0.0,0.0,0.0,0.0,0.0,0.0,0.0,0.0,0.0,0.0,0.0,0.0,0.0,0.0,0.0,0.0,0.0,0.0,0.0,0.0,0.0,0.0,0.0,0.0,0.0,0.0,0.0,0.0,0.0,0.0,0.0,0.0,0.0,0.0,0.0,0.0,0.0,0.0,0.0,0.0,0.0,0.0,0.0,0.0,0.0,0.0,0.0,0.0,0.0,0.0,0.0,0.0,0.0,0.0,0.0,0.0,0.0,0.0,0.0,0.0,0.0,0.0,0.0,0.0,0.0,0.0,0.0,0.0,0.0,0.0,0.0,0.0,0.0,0.0,0.0,0.0,0.0,0.0,0.0,0.0,0.0,0.0,0.0,0.0,0.0,0.0,0.0,0.0,0.0,0.0,0.0,0.0,0.0,0.0,0.0,0.0,0.0,0.0,0.0,0.0,0.0,0.0,0.0,0.0,0.0,0.0,0.0,0.0,0.0,0.0,0.0,0.0,0.0,0.0,0.0,0.0,0.0,0.0,0.0,0.0,0.0,0.0,0.0,0.0,0.0,0.0,0.0,0.0,0.0,0.0,0.0,0.0,0.0,0.0,0.0,0.0,0.0,0.0,0.0,0.0,0.0,0.0,0.0,0.0,0.0,0.0,0.0,0.0,0.0,0.0,0.0,0.0,0.0,0.0,0.0,0.0,0.0,0.0,0.0,0.0,0.0,0.0,0.0,0.0,0.0,0.0,0.0,0.0,0.0,0.0,0.0,0.0,0.0,0.0,0.0,0.0,0.0,0.0,0.0,0.0,0.0,0.0,0.0,0.0,0.0,0.0,0.0,0.0,0.0,0.0,0.0,0.0,0.0,0.0,0.0,0.0,0.0,0.0,0.0,0.0,0.0,0.0,0.0,0.0,0.0,0.0,0.0,0.0,0.0,0.0,0.0,0.0,0.0,0.0,0.0,0.0,0.0,0.0,0.0,0.0,0.0,0.0,0.0,0.0,0.0,0.0,0.0,0.0,0.0,0.0,0.0,0.0,0.0,0.0,0.0,0.0,0.0,0.0,0.0,0.0,0.0,0.0,0.0,0.0,0.0,0.0,0.0,0.0,0.0,0.0,0.0,0.0,0.0,0.0,0.0,0.0,0.0,0.0,0.0,0.0,0.0,0.0,0.0,0.0,0.0,0.0,0.0,0.0,0.0,0.0,0.0,0.0,0.0,0.0,0.0,0.0,0.0,0.0,0.0,0.0,0.0,0.0,0.0,0.0,0.0,0.0,0.0,0.0,0.0,0.0,0.0,0.0,0.0,0.0,0.0,0.0,0.0,0.0,0.0,0.0,0.0,0.0,0.0,0.0,0.0,0.0,0.0,0.0,0.0,0.0,0.0,0.0,0.0,0.0,0.0,0.0,0.0,0.0,0.0,0.0,0.0,0.0,0.0,0.0,0.0,0.0,0.0,0.0,0.0,0.0,0.0,0.0,0.0,0.0,0.0,0.0,0.0,0.0,0.0,0.0,0.0,0.0,0.0,0.0,0.0,0.0,0.0,0.0,0.0,0.0,0.0,0.0,0.0,0.0,0.0,0.0,0.0,0.0,0.0,0.0,0.0,0.0,0.0,0.0,0.0,0.0,0.0,0.0,0.0,0.0,0.0,0.0,0.0,0.0,0.0,0.0,0.0,0.0,0.0,0.0,0.0,0.0,0.0,0.0,0.0,0.0,0.0,0.0,0.0,0.0,0.0,0.0,0.0,0.0,0.0,0.0,0.0,0.0,0.0,0.0,0.0,0.0,0.0,0.0,0.0,0.0,0.0,0.0,0.0,0.0,0.0,0.0,0.0,0.0,0.0,0.0,0.0,0.0,0.0,0.0,0.0,0.0,0.0,0.0,0.0,0.0,0.0,0.0,0.0,0.0,0.0,0.0,0.0,0.0,0.0,0.0,0.0,0.0,0.0,0.0,0.0,0.0,0.0,0.0,0.0,0.0,0.0,0.0,0.0,0.0,0.0,0.0,0.0,0.0,0.0,0.0,0.0,0.0,0.0,0.0,0.0,0.0,0.0,0.0,0.0,0.0,0.0,0.0,0.0,0.0,0.0,0.0,0.0,0.0,0.0,0.0,0.0,0.0,0.0,0.0,0.0,0.0,0.0,0.0,0.0,0.0,0.0,0.0,0.0,0.0,0.0,0.0,0.0,0.0,0.0,0.0,0.0,0.0,0.0,0.0,0.0,0.0,0.0,0.0,0.0,0.0,0.0,0.0,0.0,0.0,0.0,0.0,0.0,0.0,0.0,0.0,0.0,0.0,0.0,0.0,0.0,0.0,0.0,0.0,0.0,0.0,0.0,0.0,0.0,0.0,0.0,0.0,0.0,0.0,0.0,0.0,0.0,0.0,0.0,0.0,0.0,0.0,0.0,0.0,0.0,0.0,0.0,0.0,0.0,0.0,0.0,0.0,0.0,0.0,0.0,0.0,0.0,0.0,0.0,0.0,0.0,0.0,0.0,0.0,0.0,0.0,0.0,0.0,0.0,0.0,0.0,0.0,0.0,0.0,0.0,0.0,0.0,0.0,0.0,0.0,0.0,0.0,0.0,0.0,0.0,0.0,0.0,0.0,0.0,0.0,0.0,0.0,0.0,0.0,0.0,0.0,0.0,0.0,0.0,0.0,0.0,0.0,0.0,0.0,0.0,0.0,0.0,0.0,0.0,0.0,0.0,0.0,0.0,0.0,0.0,0.0,0.0,0.0,0.0,0.0,0.0,0.0,0.0,0.0,0.0,0.0,0.0,0.0,0.0,0.0,0.0,0.0,0.0,0.0,0.0,0.0,0.0,0.0,0.0,0.0,0.0,0.0,0.0,0.0,0.0,0.0,0.0,0.0,0.0,0.0,0.0,0.0,0.0,0.0,0.0,0.0,0.0,0.0,0.0,0.0,0.0,0.0,0.0,0.0,0.0,0.0,0.0,0.0,0.0,0.0,0.0,0.0,0.0,0.0,0.0,0.0,0.0,0.0,0.0,0.0,0.0,0.0,0.0,0.0,0.0,0.0,0.0,0.0,0.0,0.0,0.0,0.0,0.0,0.0,0.0,0.0,0.0,0.0,0.0,0.0,0.0,0.0,0.0,0.0,0.0,0.0,0.0,0.0,0.0,0.0,0.0,0.0,0.0,0.0,0.0,0.0,0.0,0.0,0.0,0.0,0.0,0.0,0.0,0.0,0.0,0.0,0.0,0.0,0.0,0.0,0.0,0.0,0.0,0.0,0.0,0.0,0.0,0.0,0.0,0.0,0.0,0.0,0.0,0.0,0.0,0.0,0.0,0.0,0.0,0.0,0.0,0.0,0.0,0.0,0.0,0.0,0.0,0.0,0.0,0.0,0.0,0.0,0.0,0.0,0.0,0.0,0.0,0.0,0.0,0.0,0.0,0.0,0.0,0.0,0.0,0.0,0.0,0.0,0.0,0.0,0.0,0.0,0.0,0.0,0.0,0.0,0.0,0.0,0.0,0.0,0.0,0.0,0.0,0.0,0.0,0.0,0.0,0.0,0.0,0.0,0.0,0.0,0.0,0.0,0.0,0.0,0.0,0.0,0.0,0.0,0.0,0.0,0.0,0.0,0.0,0.0,0.0,0.0,0.0,0.0,0.0,0.0,0.0,0.0,0.0,0.0,0.0,0.0,0.0,0.0,0.0,0.0,0.0,0.0,0.0,0.0,0.0,0.0,0.0,0.0,0.0,0.0,0.0,0.0,0.0,0.0,0.0,0.0,0.0,0.0,0.0,0.0,0.0,0.0,0.0,0.0,0.0,0.0,0.0,0.0,0.0,0.0,0.0,0.0,0.0,0.0,0.0,0.0,0.0,0.0,0.0,0.0,0.0,0.0,0.0,0.0,0.0,0.0,0.0,0.0,0.0,0.0,0.0,0.0,0.0,0.0,0.0,0.0,0.0,0.0,0.0,0.0,0.0,0.0,1.0923,0.0,0.0,0.0,0.0,0.0,0.0,0.0,0.0,0.0,0.0,0.0,0.0,0.0,0.0,0.0,0.0,0.0,0.0,0.0,0.0,0.0,0.0,0.0,0.0,0.0,0.0,0.0,0.0,0.0,0.0,0.0,0.0,0.0,0.0,0.0,0.0,0.0,0.0,0.0,0.0,0.0,0.0,0.0,0.0,0.0,0.0,0.0,0.0,0.0,0.0,0.0,0.0,0.0,0.0,0.0,0.0,0.0,0.0,0.0,0.0,0.0,0.0,0.0,0.0,0.0,0.0,0.0,0.0,0.0,0.0,0.0,0.0,0.0,0.0,0.0,0.0,0.0,0.0,0.0,0.0,0.0,0.0,0.0,0.0,0.0,0.0,0.0,0.0,0.0,0.0,0.0,0.0,0.0,0.0,0.0,0.0,0.0,0.0,0.0,0.0,0.0,0.0,0.0,0.0,0.0,0.0,0.0,0.0,0.0,0.0,1.2795,1.2582,1.2143,1.1719,1.1295,0.0,0.0,0.0,0.0,0.0,0.0,0.0,0.0,0.0,0.0,0.0,0.0,0.0,0.0,0.0,0.0,0.0,0.0,0.0,0.0,0.0,0.0,0.0,0.0,0.0,0.0,0.0,0.0,0.0,0.0,0.0,0.0,0.0,0.0,0.0,0.0,0.0,0.0,0.0,0.0,0.0,0.0,0.0,0.0,0.0,0.0,0.0,0.0,0.0,0.0,0.0,0.0,0.0,0.0,0.0,0.0,0.0,0.0,0.0,0.0,0.0,0.0,0.0,0.0,0.0,0.0,0.0,0.0,0.0,0.0,0.0,0.0,0.0,0.0,0.0,0.0,0.0,0.0,0.0,0.0,0.0,0.0,0.0,0.0,0.0,0.0,0.0,0.0,0.0,0.0,0.0,0.0,0.0,0.0,0.0,0.0,0.0,0.0,0.0,0.0,0.0,0.0,0.0,0.0,0.0,0.0,0.0,0.0,0.0,0.0,0.0,0.0,1.265,1.2119,1.163,0.0,0.0,0.0,0.0,0.0,0.0,0.0,0.0,0.0,0.0,0.0,0.0,0.0,0.0,0.0,0.0,0.0,0.0,0.0,0.0,0.0,0.0,0.0,0.0,0.0,0.0,0.0,0.0,0.0,0.0,0.0,0.0,0.0,0.0,0.0,0.0,0.0,0.0,0.0,0.0,0.0,0.0,0.0,0.0,0.0,0.0,0.0,0.0,0.0,0.0,0.0,0.0,0.0,0.0,0.0,0.0,0.0,0.0,0.0,0.0,0.0,0.0,0.0,0.0,0.0,0.0,0.0,0.0,0.0,0.0,0.0,0.0,0.0,0.0,0.0,0.0,0.0,0.0,0.0,0.0,0.0,0.0,0.0,0.0,0.0,0.0,0.0,0.0,0.0,0.0,0.0,0.0,0.0,0.0,0.0,0.0,0.0,0.0,0.0,0.0,0.0,0.0,0.0,0.0,0.0,0.0,0.0,0.0,0.0,0.0,1.3242,1.3948,1.3236,0.0,1.1699,0.0,0.0,0.0,0.0,0.0,0.0,0.0,0.0,0.0,0.0,0.0,0.0,0.0,0.0,0.0,0.0,0.0,0.0,0.0,0.0,0.0,0.0,0.0,0.0,0.0,0.0,0.0,0.0,0.0,0.0,0.0,0.0,0.0,0.0,0.0,0.0,0.0,0.0,0.0,0.0,0.0,0.0,0.0,0.0,0.0,0.0,0.0,0.0,0.0,0.0,0.0,0.0,0.0,0.0,0.0,0.0,0.0,0.0,0.0,0.0,0.0,0.0,0.0,0.0,0.0,0.0,0.0,0.0,0.0,0.0,0.0,0.0,0.0,0.0,0.0,0.0,0.0,0.0,0.0,0.0,0.0,0.0,0.0,0.0,0.0,0.0,0.0,0.0,0.0,0.0,0.0,0.0,0.0,0.0,0.0,0.0,0.0,0.0,0.0,0.0,0.0,0.0,0.0,0.0,0.0,0.0,0.0,0.0,0.0,0.0,1.3522,1.4097,1.333,1.26,0.0,0.0,0.0,0.0,0.0,0.0,0.0,0.0,0.0,0.0,0.0,0.0,0.0,0.0,0.0,0.0,0.0,0.0,0.0,0.0,0.0,0.0,0.0,0.0,0.0,0.0,0.0,0.0,0.0,0.0,0.0,0.0,0.0,0.0,0.0,0.0,0.0,0.0,0.0,0.0,0.0,0.0,0.0,0.0,0.0,0.0,0.0,0.0,0.0,0.0,0.0,0.0,0.0,0.0,0.0,0.0,0.0,0.0,0.0,0.0,0.0,0.0,0.0,0.0,0.0,0.0,0.0,0.0,0.0,0.0,0.0,0.0,0.0,0.0,0.0,0.0,0.0,0.0,0.0,0.0,0.0,0.0,0.0,0.0,0.0,0.0,0.0,0.0,0.0,0.0,0.0,0.0,0.0,0.0,0.0,0.0,0.0,0.0,0.0,0.0,0.0,0.0,0.0,0.0,0.0,0.0,0.0,0.0,0.0,0.0,1.3639,0.0,1.4049,1.3538,1.2852,1.207,0.0,0.0,0.0,0.0,0.0,0.0,0.0,0.0,0.0,0.0,0.0,0.0,0.0,0.0,0.0,0.0,0.0,0.0,0.0,0.0,0.0,0.0,0.0,0.0,0.0,0.0,0.0,0.0,0.0,0.0,0.0,0.0,0.0,0.0,0.0,0.0,0.0,0.0,0.0,0.0,0.0,0.0,0.0,0.0,0.0,0.0,0.0,0.0,0.0,0.0,0.0,0.0,0.0,0.0,0.0,0.0,0.0,0.0,0.0,0.0,0.0,0.0,0.0,0.0,0.0,0.0,0.0,0.0,0.0,0.0,0.0,0.0,0.0,0.0,0.0,0.0,0.0,0.0,0.0,0.0,0.0,0.0,0.0,0.0,0.0,0.0,0.0,0.0,0.0,0.0,0.0,0.0,0.0,0.0,0.0,0.0,0.0,0.0,0.0,0.0,0.0,0.0,0.0,0.0,0.0,0.0,0.0,0.0,0.0,1.4458,1.4078,1.4117,1.4072,1.3282,0.0,0.0,0.0,0.0,0.0,0.0,0.0,0.0,0.0,0.0,0.0,0.0,0.0,0.0,0.0,0.0,0.0,0.0,0.0,0.0,0.0,0.0,0.0,0.0,0.0,0.0,0.0,0.0,0.0,0.0,0.0,0.0,0.0,0.0,0.0,0.0,0.0,0.0,0.0,0.0,0.0,0.0,0.0,0.0,0.0,0.0,0.0,0.0,0.0,0.0,0.0,0.0,0.0,0.0,0.0,0.0,0.0,0.0,0.0,0.0,0.0,0.0,0.0,0.0,0.0,0.0,0.0,0.0,0.0,0.0,0.0,0.0,0.0,0.0,0.0,0.0,0.0,0.0,0.0,0.0,0.0,0.0,0.0,0.0,0.0,0.0,0.0,0.0,0.0,0.0,0.0,0.0,0.0,0.0,0.0,0.0,0.0,0.0,0.0,0.0,0.0,0.0,0.0,0.0,0.0,0.0,0.0,0.0,0.0,1.3766,1.4,1.4241,1.4512,1.3766,1.3049,0.0,0.0,0.0,0.0,0.0,0.0,0.0,0.0,0.0,0.0,0.0,0.0,0.0,0.0,0.0,0.0,0.0,0.0,0.0,0.0,0.0,0.0,0.0,0.0,0.0,0.0,0.0,0.0,0.0,0.0,0.0,0.0,0.0,0.0,0.0,0.0,0.0,0.0,0.0,0.0,0.0,0.0,0.0,0.0,0.0,0.0,0.0,0.0,0.0,0.0,0.0,0.0,0.0,0.0,0.0,0.0,0.0,0.0,0.0,0.0,0.0,0.0,0.0,0.0,0.0,0.0,0.0,0.0,0.0,0.0,0.0,0.0,0.0,0.0,0.0,0.0,0.0,0.0,0.0,0.0,0.0,0.0,0.0,0.0,0.0,0.0,0.0,0.0,0.0,0.0,0.0,0.0,0.0,0.0,0.0,0.0,0.0,0.0,0.0,0.0,0.0,0.0,0.0,0.0,0.0,0.0,0.0,0.0,0.0,1.3701,0.0,1.4707,0.0,1.3603,1.2754,0.0,0.0,0.0,0.0,0.0,0.0,0.0,0.0,0.0,0.0,0.0,0.0,0.0,0.0,0.0,0.0,0.0,0.0,0.0,0.0,0.0,0.0,0.0,0.0,0.0,0.0,0.0,0.0,0.0,0.0,0.0,0.0,0.0,0.0,0.0,0.0,0.0,0.0,0.0,0.0,0.0,0.0,0.0,0.0,0.0,0.0,0.0,0.0,0.0,0.0,0.0,0.0,0.0,0.0,0.0,0.0,0.0,0.0,0.0,0.0,0.0,0.0,0.0,0.0,0.0,0.0,0.0,0.0,0.0,0.0,0.0,0.0,0.0,0.0,0.0,0.0,0.0,0.0,0.0,0.0,0.0,0.0,0.0,0.0,0.0,0.0,0.0,0.0,0.0,0.0,0.0,0.0,0.0,0.0,0.0,0.0,0.0,0.0,0.0,0.0,0.0,0.0,0.0,0.0,0.0,0.0,0.0,0.0,1.3704,1.5266,1.5744,1.5335,1.4172,1.3701,1.251,0.0,0.0,0.0,0.0,0.0,0.0,0.0,0.0,0.0,0.0,0.0,0.0,0.0,0.0,0.0,0.0,0.0,0.0,0.0,0.0,0.0,0.0,0.0,0.0,0.0,0.0,0.0,0.0,0.0,0.0,0.0,0.0,0.0,0.0,0.0,0.0,0.0,0.0,0.0,0.0,0.0,0.0,0.0,0.0,0.0,0.0,0.0,0.0,0.0,0.0,0.0,0.0,0.0,0.0,0.0,0.0,0.0,0.0,0.0,0.0,0.0,0.0,0.0,0.0,0.0,0.0,0.0,0.0,0.0,0.0,0.0,0.0,0.0,0.0,0.0,0.0,0.0,0.0,0.0,0.0,0.0,0.0,0.0,0.0,0.0,0.0,0.0,0.0,0.0,0.0,0.0,0.0,0.0,0.0,0.0,0.0,0.0,0.0,0.0,0.0,0.0,0.0,0.0,0.0,0.0,0.0,0.0,0.0,0.0,1.4065,1.4173,1.4492,1.4914,1.3766,1.29,0.0,0.0,0.0,0.0,0.0,0.0,0.0,0.0,0.0,0.0,0.0,0.0,0.0,0.0,0.0,0.0,0.0,0.0,0.0,0.0,0.0,0.0,0.0,0.0,0.0,0.0,0.0,0.0,0.0,0.0,0.0,0.0,0.0,0.0,0.0,0.0,0.0,0.0,0.0,0.0,0.0,0.0,0.0,0.0,0.0,0.0,0.0,0.0,0.0,0.0,0.0,0.0,0.0,0.0,0.0,0.0,0.0,0.0,0.0,0.0,0.0,0.0,0.0,0.0,0.0,0.0,0.0,0.0,0.0,0.0,0.0,0.0,0.0,0.0,0.0,0.0,0.0,0.0,0.0,0.0,0.0,0.0,0.0,0.0,0.0,0.0,0.0,0.0,0.0,0.0,0.0,0.0,0.0,0.0,0.0,0.0,0.0,0.0,0.0,0.0,0.0,0.0,0.0,0.0,0.0,0.0,0.0,0.0,0.0,1.4036,1.4214,1.4668,1.5398,1.4056,1.3236,1.2989,0.0,0.0,0.0,0.0,0.0,0.0,0.0,0.0,0.0,0.0,0.0,0.0,0.0,0.0,0.0,0.0,0.0,0.0,0.0,0.0,0.0,0.0,0.0,0.0,0.0,0.0,0.0,0.0,0.0,0.0,0.0,0.0,0.0,0.0,0.0,0.0,0.0,0.0,0.0,0.0,0.0,0.0,0.0,0.0,0.0,0.0,0.0,0.0,0.0,0.0,0.0,0.0,0.0,0.0,0.0,0.0,0.0,0.0,0.0,0.0,0.0,0.0,0.0,0.0,0.0,0.0,0.0,0.0,0.0,0.0,0.0,0.0,0.0,0.0,0.0,0.0,0.0,0.0,0.0,0.0,0.0,0.0,0.0,0.0,0.0,0.0,0.0,0.0,0.0,0.0,0.0,0.0,0.0,0.0,0.0,0.0,0.0,0.0,0.0,0.0,0.0,0.0,0.0,0.0,0.0,0.0,0.0,0.0,1.5001,1.5648,1.5869,1.5571,1.466,1.3597,0.0,0.0,0.0,0.0,0.0,0.0,0.0,0.0,0.0,0.0,0.0,0.0,0.0,0.0,0.0,0.0,0.0,0.0,0.0,0.0,0.0,0.0,0.0,0.0,0.0,0.0,0.0,0.0,0.0,0.0,0.0,0.0,0.0,0.0,0.0,0.0,0.0,0.0,0.0,0.0,0.0,0.0,0.0,0.0,0.0,0.0,0.0,0.0,0.0,0.0,0.0,0.0,0.0,0.0,0.0,0.0,0.0,0.0,0.0,0.0,0.0,0.0,0.0,0.0,0.0,0.0,0.0,0.0,0.0,0.0,0.0,0.0,0.0,0.0,0.0,0.0,0.0,0.0,0.0,0.0,0.0,0.0,0.0,0.0,0.0,0.0,0.0,0.0,0.0,0.0,0.0,0.0,0.0,0.0,0.0,0.0,0.0,0.0,0.0,0.0,0.0,0.0,0.0,0.0,0.0,0.0,0.0,0.0,0.0,1.6131,1.6962,1.7368,1.7277,1.5862,1.4775,0.0,0.0,0.0,0.0,0.0,0.0,0.0,0.0,0.0,0.0,0.0,0.0,0.0,0.0,0.0,0.0,0.0,0.0,0.0,0.0,0.0,0.0,0.0,0.0,0.0,0.0,0.0,0.0,0.0,0.0,0.0,0.0,0.0,0.0,0.0,0.0,0.0,0.0,0.0,0.0,0.0,0.0,0.0,0.0,0.0,0.0,0.0,0.0,0.0,0.0,0.0,0.0,0.0,0.0,0.0,0.0,0.0,0.0,0.0,0.0,0.0,0.0,0.0,0.0,0.0,0.0,0.0,0.0,0.0,0.0,0.0,0.0,0.0,0.0,0.0,0.0,0.0,0.0,0.0,0.0,0.0,0.0,0.0,0.0,0.0,0.0,0.0,0.0,0.0,0.0,0.0,0.0,0.0,0.0,0.0,0.0,0.0,0.0,0.0,0.0,0.0,0.0,0.0,0.0,0.0,0.0,0.0,0.0,1.6007,1.636,1.811,1.8956,1.881,1.7314,1.5957,0.0,0.0,0.0,0.0,0.0,0.0,0.0,0.0,0.0,0.0,0.0,0.0,0.0,0.0,0.0,0.0,0.0,0.0,0.0,0.0,0.0,0.0,0.0,0.0,0.0,0.0,0.0,0.0,0.0,0.0,0.0,0.0,0.0,0.0,0.0,0.0,0.0,0.0,0.0,0.0,0.0,0.0,0.0,0.0,0.0,0.0,0.0,0.0,0.0,0.0,0.0,0.0,0.0,0.0,0.0,0.0,0.0,0.0,0.0,0.0,0.0,0.0,0.0,0.0,0.0,0.0,0.0,0.0,0.0,0.0,0.0,0.0,0.0,0.0,0.0,0.0,0.0,0.0,0.0,0.0,0.0,0.0,0.0,0.0,0.0,0.0,0.0,0.0,0.0,0.0,0.0,0.0,0.0,0.0,0.0,0.0,0.0,0.0,0.0,0.0,0.0,0.0,0.0,0.0,0.0,0.0,0.0,0.0,1.7079,1.6314,1.9107,2.0371,1.9893,1.8654,1.7052,0.0,0.0,0.0,0.0,0.0,0.0,0.0,0.0,0.0,0.0,0.0,0.0,0.0,0.0,0.0,0.0,0.0,0.0,0.0,0.0,0.0,0.0,0.0,0.0,0.0,0.0,0.0,0.0,0.0,0.0,0.0,0.0,0.0,0.0,0.0,0.0,0.0,0.0,0.0,0.0,0.0,0.0,0.0,0.0,0.0,0.0,0.0,0.0,0.0,0.0,0.0,0.0,0.0,0.0,0.0,0.0,0.0,0.0,0.0,0.0,0.0,0.0,0.0,0.0,0.0,0.0,0.0,0.0,0.0,0.0,0.0,0.0,0.0,0.0,0.0,0.0,0.0,0.0,0.0,0.0,0.0,0.0,0.0,0.0,0.0,0.0,0.0,0.0,0.0,0.0,0.0,0.0,0.0,0.0,0.0,0.0,0.0,0.0,0.0,0.0,0.0,0.0,0.0,0.0,0.0,0.0,0.0,0.0,1.7894,1.7997,1.9687,2.0381,1.9912,1.8663,1.7464,0.0,0.0,0.0,0.0,0.0,0.0,0.0,0.0,0.0,0.0,0.0,0.0,0.0,0.0,0.0,0.0,0.0,0.0,0.0,0.0,0.0,0.0,0.0,0.0,0.0,0.0,0.0,0.0,0.0,0.0,0.0,0.0,0.0,0.0,0.0,0.0,0.0,0.0,0.0,0.0,0.0,0.0,0.0,0.0,0.0,0.0,0.0,0.0,1.5051,0.0,0.0,0.0,0.0,0.0,0.0,0.0,0.0,0.0,0.0,0.0,0.0,0.0,0.0,0.0,0.0,0.0,0.0,0.0,0.0,0.0,0.0,0.0,0.0,0.0,0.0,0.0,0.0,0.0,0.0,0.0,0.0,0.0,0.0,0.0,0.0,0.0,0.0,0.0,0.0,0.0,0.0,0.0,0.0,0.0,0.0,0.0,0.0,0.0,0.0,0.0,0.0,0.0,0.0,0.0,0.0,0.0,0.0,0.0,1.7904,1.8517,1.9869,2.0478,2.0205,1.9179,1.792,0.0,0.0,0.0,0.0,0.0,0.0,0.0,0.0,0.0,0.0,0.0,0.0,0.0,0.0,0.0,0.0,0.0,0.0,0.0,0.0,0.0,0.0,0.0,0.0,0.0,0.0,0.0,0.0,0.0,0.0,0.0,0.0,0.0,0.0,0.0,0.0,0.0,0.0,0.0,0.0,0.0,0.0,0.0,0.0,0.0,0.0,0.0,0.0,0.0,0.0,0.0,0.0,0.0,0.0,0.0,0.0,0.0,0.0,0.0,0.0,0.0,0.0,0.0,0.0,0.0,0.0,0.0,0.0,0.0,0.0,0.0,0.0,0.0,0.0,0.0,0.0,0.0,0.0,0.0,0.0,0.0,0.0,0.0,0.0,0.0,0.0,0.0,0.0,0.0,0.0,0.0,0.0,0.0,0.0,0.0,0.0,0.0,0.0,0.0,0.0,0.0,0.0,0.0,0.0,0.0,0.0,0.0,1.6344,1.755,1.881,1.983,2.044,2.0586,1.9755,1.8309,1.63,0.0,0.0,0.0,0.0,0.0,0.0,0.0,0.0,0.0,0.0,0.0,0.0,0.0,0.0,0.0,0.0,0.0,0.0,0.0,0.0,0.0,0.0,0.0,0.0,0.0,0.0,0.0,0.0,0.0,0.0,0.0,0.0,0.0,0.0,0.0,0.0,0.0,0.0,1.435,1.513,0.0,0.0,0.0,0.0,0.0,0.0,0.0,0.0,1.5205,0.0,0.0,0.0,0.0,0.0,0.0,0.0,0.0,0.0,0.0,0.0,0.0,0.0,0.0,0.0,0.0,0.0,0.0,0.0,0.0,0.0,0.0,0.0,0.0,0.0,0.0,0.0,0.0,0.0,0.0,0.0,0.0,0.0,0.0,0.0,0.0,0.0,0.0,0.0,0.0,0.0,0.0,0.0,0.0,0.0,0.0,0.0,0.0,0.0,0.0,0.0,0.0,0.0,0.0,0.0,0.0,1.7395,1.6306,1.7178,2.014,1.9591,1.9687,2.0537,1.9764,1.8447,1.6685,0.0,0.0,0.0,0.0,0.0,0.0,0.0,0.0,0.0,0.0,0.0,0.0,0.0,0.0,0.0,0.0,0.0,0.0,0.0,0.0,0.0,0.0,0.0,0.0,0.0,0.0,0.0,0.0,0.0,0.0,0.0,0.0,0.0,0.0,0.0,0.0,0.0,0.0,0.0,1.6817,1.7595,0.0,0.0,0.0,0.0,0.0,0.0,0.0,0.0,1.4099,0.0,0.0,0.0,0.0,0.0,0.0,0.0,0.0,0.0,0.0,0.0,0.0,0.0,0.0,0.0,0.0,0.0,0.0,0.0,0.0,0.0,0.0,0.0,0.0,0.0,0.0,0.0,0.0,0.0,0.0,0.0,0.0,0.0,0.0,0.0,0.0,0.0,0.0,0.0,0.0,0.0,0.0,0.0,0.0,0.0,0.0,0.0,0.0,0.0,0.0,0.0,0.0,0.0,0.0,0.0,1.6293,1.5744,1.6779,1.9621,1.9263,1.951,2.0518,1.9316,1.8019,0.0,0.0,0.0,0.0,0.0,0.0,0.0,0.0,0.0,0.0,0.0,0.0,0.0,0.0,0.0,0.0,0.0,0.0,0.0,0.0,0.0,0.0,0.0,0.0,0.0,0.0,0.0,0.0,0.0,0.0,0.0,0.0,0.0,0.0,0.0,0.0,0.0,0.0,0.0,0.0,1.6599,1.6962,1.7711,0.0,0.0,0.0,0.0,0.0,0.0,1.4248,1.3948,0.0,0.0,0.0,0.0,0.0,0.0,0.0,0.0,0.0,0.0,0.0,0.0,0.0,0.0,0.0,0.0,0.0,0.0,0.0,0.0,0.0,0.0,0.0,0.0,0.0,0.0,0.0,0.0,0.0,0.0,0.0,0.0,0.0,0.0,0.0,0.0,0.0,0.0,0.0,0.0,0.0,0.0,0.0,0.0,0.0,0.0,0.0,0.0,0.0,0.0,0.0,0.0,0.0,0.0,0.0,1.49,1.4849,1.6041,1.8523,1.8668,1.9165,2.0216,1.8963,1.7766,0.0,0.0,0.0,0.0,0.0,0.0,0.0,0.0,0.0,0.0,0.0,0.0,0.0,0.0,0.0,0.0,0.0,0.0,0.0,0.0,0.0,0.0,0.0,0.0,0.0,0.0,0.0,0.0,0.0,0.0,0.0,0.0,0.0,0.0,0.0,0.0,0.0,0.0,0.0,0.0,0.0,1.6482,1.7636,1.6299,0.0,0.0,0.0,0.0,1.51,1.5096,0.0,0.0,0.0,0.0,0.0,0.0,0.0,0.0,0.0,0.0,0.0,0.0,0.0,0.0,0.0,0.0,0.0,0.0,0.0,0.0,0.0,0.0,0.0,0.0,0.0,0.0,0.0,0.0,0.0,0.0,0.0,0.0,0.0,0.0,0.0,0.0,0.0,0.0,0.0,0.0,0.0,0.0,0.0,0.0,0.0,0.0,0.0,0.0,0.0,0.0,0.0,0.0,0.0,0.0,0.0,0.0,1.4451,1.3588,1.4538,1.7317,1.7514,1.8039,1.9136,1.9145,1.8379,0.0,0.0,0.0,0.0,0.0,0.0,0.0,0.0,0.0,0.0,0.0,0.0,0.0,0.0,0.0,0.0,0.0,0.0,0.0,0.0,0.0,0.0,0.0,0.0,0.0,0.0,0.0,0.0,0.0,0.0,0.0,0.0,0.0,0.0,0.0,0.0,0.0,0.0,0.0,0.0,0.0,1.7905,1.6995,1.6648,1.6383,0.0,0.0,1.6028,1.6404,1.7473,0.0,0.0,0.0,0.0,0.0,0.0,0.0,0.0,0.0,0.0,0.0,0.0,0.0,0.0,0.0,0.0,0.0,0.0,0.0,0.0,0.0,0.0,0.0,0.0,0.0,0.0,0.0,0.0,0.0,0.0,0.0,0.0,0.0,0.0,0.0,0.0,0.0,0.0,0.0,0.0,0.0,0.0,0.0,0.0,0.0,0.0,0.0,0.0,0.0,0.0,0.0,0.0,0.0,0.0,0.0,1.3444,1.4494,1.4045,1.4704,1.6547,1.7265,1.8048,1.8986,1.8728,1.7971,0.0,0.0,0.0,0.0,0.0,0.0,0.0,0.0,0.0,0.0,0.0,0.0,0.0,0.0,0.0,0.0,0.0,0.0,0.0,0.0,0.0,0.0,0.0,0.0,0.0,0.0,0.0,0.0,0.0,0.0,0.0,0.0,0.0,0.0,0.0,0.0,0.0,0.0,0.0,0.0,0.0,0.0,1.7797,1.7378,0.0,0.0,0.0,1.6969,1.7376,0.0,0.0,0.0,0.0,0.0,0.0,0.0,0.0,0.0,0.0,0.0,0.0,0.0,0.0,0.0,0.0,0.0,0.0,0.0,0.0,0.0,0.0,0.0,0.0,0.0,0.0,0.0,0.0,0.0,0.0,0.0,0.0,0.0,0.0,0.0,0.0,0.0,0.0,0.0,0.0,0.0,0.0,0.0,0.0,0.0,0.0,0.0,0.0,0.0,0.0,0.0,0.0,0.0,0.0,0.0,0.0,0.0,1.4436,1.4757,1.53,1.6097,1.7207,1.8189,1.8948,1.8567,0.0,0.0,0.0,0.0,0.0,0.0,0.0,0.0,0.0,0.0,0.0,0.0,0.0,0.0,0.0,0.0,0.0,0.0,0.0,0.0,0.0,0.0,0.0,0.0,0.0,0.0,0.0,0.9605,0.0,0.0,0.0,0.0,0.0,0.0,0.0,0.0,0.0,0.0,0.0,0.0,0.0,0.0,1.7911,1.852,1.8203,1.8094,0.0,0.0,1.7986,1.8281,1.9164,1.9308,0.0,0.0,0.0,0.0,0.0,0.0,0.0,0.0,0.0,0.0,0.0,0.0,0.0,0.0,0.0,0.0,0.0,0.0,0.0,0.0,0.0,0.0,0.0,0.0,0.0,0.0,0.0,0.0,0.0,0.0,0.0,0.0,0.0,0.0,0.0,0.0,0.0,0.0,0.0,0.0,0.0,0.0,0.0,0.0,0.0,0.0,0.0,0.0,0.0,0.0,0.0,0.0,0.0,0.0,0.0,1.4096,1.5343,1.604,1.6136,1.7217,1.8189,1.8966,1.9136,1.8418,0.0,0.0,0.0,0.0,0.0,0.0,0.0,0.0,0.0,0.0,0.0,0.0,0.0,0.0,0.0,0.0,0.0,0.0,0.0,0.0,0.0,0.0,0.0,0.0,0.0,0.0,0.0,0.0,0.0,0.0,0.0,0.0,0.0,0.0,0.0,0.0,0.0,0.0,0.0,0.0,0.0,1.8539,1.8579,1.8927,1.9189,0.0,0.0,1.917,1.9208,2.1434,2.213,1.9096,0.0,0.0,0.0,0.0,0.0,0.0,0.0,0.0,0.0,0.0,0.0,0.0,0.0,0.0,0.0,0.0,0.0,0.0,0.0,0.0,0.0,0.0,0.0,0.0,0.0,0.0,0.0,0.0,0.0,0.0,0.0,0.0,0.0,0.0,0.0,0.0,0.0,0.0,0.0,0.0,0.0,0.0,0.0,0.0,0.0,0.0,0.0,0.0,0.0,0.0,0.0,0.0,0.0,1.529,1.6141,1.7046,1.7506,1.7549,1.8591,1.9113,1.9005,1.9193,1.8486,0.0,0.0,0.0,0.0,0.0,0.0,0.0,0.0,0.0,0.0,0.0,0.0,0.0,0.0,0.0,0.0,0.0,0.0,0.0,0.0,0.0,0.0,0.0,0.0,0.0,0.0,0.0,0.0,1.1317,1.1785,1.276,0.0,0.0,0.0,0.0,0.0,0.0,0.0,0.0,0.0,0.0,1.9219,1.9755,1.997,0.0,0.0,2.0254,2.0097,2.0097,2.1388,2.1753,1.9925,2.0395,0.0,0.0,0.0,0.0,0.0,0.0,0.0,0.0,0.0,0.0,0.0,0.0,0.0,0.0,0.0,0.0,0.0,0.0,0.0,0.0,0.0,0.0,0.0,0.0,0.0,0.0,0.0,0.0,0.0,0.0,0.0,0.0,0.0,0.0,0.0,0.0,0.0,0.0,0.0,0.0,0.0,0.0,0.0,0.0,0.0,0.0,0.0,0.0,0.0,0.0,0.0,0.0,1.6079,1.7477,1.8401,1.8877,1.8879,1.9614,1.9844,1.9509,1.9362,1.8545,0.0,0.0,0.0,0.0,0.0,0.0,0.0,0.0,0.0,0.0,0.0,0.0,0.0,0.0,0.0,0.0,0.0,0.0,0.0,0.0,0.0,0.0,0.0,0.0,0.0,0.0,0.0,0.0,1.1717,1.2209,1.3229,0.0,0.0,0.0,0.0,0.0,0.0,0.0,0.0,0.0,0.0,1.9853,2.085,2.0869,2.0879,2.1152,2.0859,2.0537,2.0419,2.1569,2.2036,2.0704,0.0,0.0,0.0,0.0,0.0,0.0,0.0,0.0,0.0,0.0,0.0,0.0,0.0,0.0,0.0,0.0,0.0,0.0,0.0,0.0,0.0,0.0,0.0,0.0,0.0,0.0,0.0,1.2919,0.0,0.0,1.287,0.0,0.0,0.0,0.0,0.0,0.0,0.0,0.0,0.0,0.0,0.0,0.0,0.0,0.0,0.0,0.0,0.0,0.0,0.0,0.0,0.0,0.0,1.6551,1.7515,1.9156,1.9973,2.0003,1.9995,2.0194,2.0518,1.9736,1.8699,1.7389,0.0,0.0,0.0,0.0,0.0,0.0,0.0,0.0,0.0,0.0,0.0,0.0,0.0,0.0,0.0,0.0,0.0,0.0,0.0,0.0,0.0,0.0,0.0,0.0,0.0,0.0,1.1716,1.2019,1.2717,0.0,0.0,0.0,0.0,0.0,0.0,0.0,0.0,0.0,0.0,1.9328,2.0381,2.1681,2.1484,2.121,2.1239,2.0898,2.0478,2.0087,2.2345,2.3548,0.0,0.0,0.0,0.0,0.0,0.0,0.0,0.0,0.0,0.0,0.0,0.0,0.0,0.0,0.0,0.0,0.0,0.0,0.0,0.0,0.0,0.0,0.0,0.0,0.0,0.0,0.0,1.5227,1.4583,0.0,0.0,0.0,0.0,0.0,0.0,0.0,0.0,0.0,0.0,0.0,1.6002,1.6501,0.0,0.0,0.0,0.0,0.0,0.0,0.0,0.0,0.0,0.0,0.0,0.0,1.7232,1.8691,2.038,2.1389,2.1655,2.1397,2.1174,2.0996,2.0156,1.871,1.6594,0.0,0.0,0.0,0.0,0.0,0.0,0.0,0.0,0.0,0.0,0.0,0.0,0.0,0.0,0.0,0.0,0.0,0.0,0.0,0.0,0.0,0.0,0.0,0.0,0.0,1.3179,0.0,0.0,0.0,0.0,0.0,0.0,0.0,0.0,0.0,0.0,0.0,1.7881,1.9269,2.0488,2.1484,2.2207,2.2167,2.2059,0.0,0.0,0.0,0.0,0.0,0.0,0.0,0.0,0.0,0.0,0.0,0.0,0.0,0.0,2.0186,1.8286,1.7696,1.7708,1.8375,0.0,0.0,0.0,0.0,0.0,0.0,0.0,0.0,0.0,0.0,0.0,0.0,0.0,0.0,1.684,0.0,1.6154,0.0,0.0,0.0,0.0,0.0,0.0,0.0,0.0,1.5356,1.6224,1.7136,1.8066,1.8628,0.0,1.8914,1.7793,0.0,0.0,0.0,0.0,0.0,0.0,0.0,0.0,1.8019,1.9726,2.1299,2.2236,2.247,2.21,2.168,2.12,2.0069,1.8536,1.6615,1.5434,1.4332,0.0,0.0,0.0,0.0,0.0,0.0,0.0,0.0,0.0,0.0,0.0,0.0,0.0,0.0,0.0,0.0,0.0,0.0,0.0,0.0,0.0,0.0,0.0,1.4043,0.0,0.0,0.0,0.0,0.0,0.0,0.0,0.0,0.0,1.7272,1.8112,1.9191,2.0625,2.1543,2.2314,2.2871,0.0,0.0,0.0,0.0,0.0,0.0,0.0,2.4321,2.5145,2.5517,2.5539,2.5031,2.4632,2.3685,2.1471,0.0,0.0,1.9488,1.9151,1.9471,2.0324,2.169,2.2649,2.2388,2.2842,2.3018,0.0,0.0,0.0,0.0,0.0,0.0,0.0,0.0,1.839,1.8186,0.0,1.7723,0.0,0.0,0.0,0.0,0.0,1.5086,0.0,0.0,1.6519,1.7455,1.7561,1.8727,1.9762,2.0635,2.0664,1.9961,1.8598,1.6607,0.0,0.0,0.0,0.0,0.0,0.0,1.8887,2.0586,2.1846,2.2498,2.2508,2.212,2.166,2.1161,1.9543,1.8293,1.7476,1.6558,1.5505,1.4231,1.3717,0.0,0.0,0.0,0.0,0.0,0.0,0.0,0.0,0.0,0.0,0.0,0.0,0.0,0.0,0.0,0.0,0.0,0.0,0.0,0.0,1.3854,0.0,0.0,0.0,0.0,0.0,0.0,0.0,0.0,0.0,0.0,1.8279,1.9249,2.0605,2.2264,0.0,0.0,0.0,0.0,2.2724,2.3176,2.2852,2.2588,2.2653,2.5211,2.6891,2.6087,0.0,0.0,2.5911,2.599,2.5525,2.2567,2.2687,2.2994,2.2195,2.2123,2.2382,2.2892,2.4604,2.593,2.5701,2.6625,2.7306,2.1475,0.0,0.0,0.0,0.0,2.0156,2.0898,2.2285,2.1876,2.1172,2.0274,2.0166,0.0,0.0,0.0,0.0,0.0,0.0,1.5521,1.6317,1.6805,1.818,2.0297,2.0569,2.1311,2.2434,2.212,2.1445,2.0459,1.9845,1.8088,1.53,0.0,0.0,0.0,0.0,1.9619,2.0976,2.1991,2.2635,2.2927,2.2256,2.1544,2.0801,1.9971,1.9132,1.8275,1.7093,1.6172,1.5537,1.4176,0.0,0.0,0.0,0.0,0.0,0.0,0.0,0.0,0.0,0.0,0.0,0.0,0.0,0.0,0.0,0.0,0.0,0.0,0.0,1.4392,1.5106,1.6093,0.0,0.0,0.0,0.0,0.0,0.0,0.0,0.0,0.0,2.1074,2.1523,2.204,0.0,0.0,2.3836,2.381,2.3838,2.3905,2.4033,2.3955,0.0,2.4954,2.5915,2.7038,2.8294,2.9996,3.0259,2.7577,2.7334,2.6682,2.4148,2.3898,2.4226,2.4901,2.4556,2.4406,2.4829,2.6081,2.7154,2.7344,2.7824,2.8015,2.487,2.3515,2.1639,2.1377,2.2206,2.1973,2.2697,2.4014,2.3605,2.3077,2.2458,2.2304,2.1191,1.9387,1.8757,0.0,0.0,0.0,1.7085,1.824,1.872,2.0008,2.1894,2.2335,2.293,2.3622,2.3234,2.2743,2.2225,2.2039,2.0527,1.7787,0.0,0.0,1.8273,1.9453,2.0605,2.1678,2.2391,2.2858,2.3081,2.2324,2.1553,2.0869,2.0225,1.9649,1.9114,1.8009,1.7219,1.6849,1.5472,1.4505,0.0,0.0,0.0,0.0,0.0,0.0,0.0,0.0,0.0,0.0,0.0,1.1808,0.0,0.0,0.0,0.0,1.3706,1.5071,1.6687,1.7352,0.0,0.0,0.0,0.0,0.0,0.0,0.0,2.2228,2.2076,2.2189,2.3121,2.3418,2.3624,2.3856,2.4188,2.4373,2.4318,0.0,2.4473,2.4648,2.4689,2.5157,2.6477,2.7171,2.8314,3.0605,3.1578,3.1193,2.8964,2.85,2.7807,2.6209,2.5673,2.6059,2.7299,2.7459,2.7375,2.7331,2.8396,2.9394,2.9691,2.9915,2.996,2.8602,2.8326,2.5033,2.3806,2.4007,2.3976,2.418,2.4531,2.4131,2.4152,2.4422,2.4072,2.3437,2.2522,2.0389,0.0,1.9988,1.9272,1.9365,2.0172,2.1591,2.2429,2.2841,2.3893,2.4422,2.443,2.4032,2.3838,2.3809,2.3394,2.2614,2.1464,2.0654,2.0391,2.0644,2.1074,2.1707,2.2549,2.2918,2.3071,2.3043,2.2295,2.168,2.12,2.0352,1.9874,1.9815,1.8973,1.8333,1.7991,1.7137,1.6119,1.4997,0.0,0.0,0.0,0.0,0.0,0.0,0.0,0.0,0.0,0.0,0.0,0.0,0.0,0.0,0.0,1.6985,0.0,1.9353,2.0104,0.0,0.0,0.0,2.2234,2.3441,2.3555,2.3732,2.4186,0.0,0.0,2.4493,2.4855,2.5172,2.519,2.4805,2.4648,2.5055,2.4756,2.4668,2.5092,2.5236,2.584,2.7291,2.8607,3.0244,3.2455,3.3113,3.2179,3.0112,2.9568,2.9063,2.7903,2.7721,2.8099,2.9304,3.0268,3.0982,3.0207,3.1194,3.2191,3.2143,3.2534,3.2581,3.0383,3.0219,2.8403,2.6913,2.5766,2.5408,2.5505,2.5881,2.5435,2.5137,2.4926,2.4818,2.4474,2.3847,2.212,2.1538,2.1885,2.0798,2.0919,2.1937,2.234,2.3225,2.4484,2.4442,2.459,2.4887,2.4473,2.4256,2.4245,2.4149,2.3942,2.3649,2.3415,2.2557,2.1132,2.1815,2.245,2.2946,2.3063,2.2956,2.2645,2.2148,2.168,2.122,2.0352,1.9756,1.9443,1.8196,1.7674,1.7949,1.6771,1.6146,1.6227,1.4692,0.0,0.0,0.0,0.0,0.0,0.0,0.0,0.0,0.0,1.4629,1.329,0.0,1.6348,0.0,1.8834,1.9992,2.0685,2.1274,0.0,0.0,2.424,2.4942,2.7233,2.6521,2.595,2.6326,2.6109,2.5687,2.502,2.5291,2.5691,2.6028,2.5681,2.5308,2.5151,2.5281,2.5411,2.5609,2.6367,2.7143,2.7711,2.9407,3.1312,3.284,3.3113,3.2568,3.1045,3.0776,3.0372,2.9258,2.897,2.9453,3.0587,3.1034,3.1686,3.2597,3.2941,3.2891,3.2891,3.333,3.3619,3.1389,3.2329,3.0396,2.9011,2.8028,2.68,2.642,2.6628,2.6394,2.615,2.594,2.5745,2.553,2.518,2.3529,2.2871,2.3045,2.2386,2.2447,2.3094,2.3701,2.4486,2.5352,2.5093,2.5115,2.5352,2.5093,2.4976,2.4986,2.4974,2.4889,2.4707,2.4707,2.4023,2.2702,2.3103,2.3269,2.3101,2.3112,2.2995,2.2762,2.2197,2.168,2.12,2.0566,1.9921,1.9316,1.8565,1.8102,1.7977,1.7085,1.6602,1.6675,1.5427,1.4495,0.0,0.0,0.0,0.0,0.0,0.0,0.0,0.0,0.0,0.0,0.0,1.8989,2.0276,2.1546,2.2645,2.3492,2.4051,2.5089,2.6885,2.6811,2.7417,2.9446,2.8904,2.8227,2.7823,2.7524,2.691,2.5834,2.5879,2.6169,2.6602,2.643,2.614,2.5754,2.571,2.589,2.6486,2.7149,2.8037,2.8982,3.0788,3.2272,3.2928,3.3113,3.2678,3.1456,3.1436,3.1366,3.0754,3.0801,3.1331,3.2478,3.2772,3.3151,3.3842,3.4035,3.3834,3.3822,3.4048,3.425,3.2329,3.4236,3.1474,3.0315,3.0135,2.8065,2.7136,2.7087,2.7015,2.7012,2.6979,2.6618,2.6465,2.6373,2.4827,2.4119,2.4119,2.4119,2.4119,2.4194,2.5282,2.5806,2.5784,2.5725,2.5696,2.5696,2.5696,2.5696,2.5696,2.5696,2.5525,2.519,2.518,2.4943,2.451,2.4537,2.4118,2.3209,2.3141,2.3112,2.3091,2.2353,2.1758,2.1298,2.0781,2.0136,1.9344,1.9238,1.8867,1.8118,1.7744,1.7365,1.6941,1.6071,1.5542,0.0,1.4718,0.0,0.0,0.0,0.0,0.0,0.0,0.0,0.0,2.0719,2.2265,2.3323,2.4507,2.5628,2.6612,2.7194,2.7934,2.896,2.9123,2.9549,3.0651,3.0801,3.0283,2.8868,2.8757,2.8196,2.6628,2.6438,2.6631,2.704,2.7234,2.7231,2.6895,2.6537,2.6669,2.766,2.8089,2.9407,3.1216,3.2563,3.3312,3.3319,3.3391,3.2933,3.1975,3.2169,3.2434,3.247,3.277,3.3417,3.452,3.4644,3.4669,3.4778,3.4767,3.4729,3.4653,3.4728,3.4779,3.4582,3.4746,3.1633,3.0315,3.0167,2.8704,2.7865,2.7545,2.7155,2.7012,2.6989,2.6908,2.6894,2.6847,2.6543,2.639,2.639,2.6378,2.6365,2.6384,2.6313,2.6269,2.624,2.5884,2.5696,2.5696,2.5696,2.5696,2.5696,2.5696,2.5657,2.5591,2.5581,2.5369,2.5002,0.0,0.0,0.0,2.3287,2.3112,2.3081,2.2625,2.2177,2.1758,2.0644,0.0,1.9316,1.8936,1.8646,1.849,1.8421,0.0,0.0,0.0,0.0,0.0,0.0,0.0,0.0,0.0,0.0,0.0,2.135,2.1576,2.1171,2.4136,2.5848,2.5243,2.6557,2.7561,2.7783,2.8267,2.9035,3.0124,3.0274,3.0701,3.1752,3.188,3.122,2.9466,2.9551,2.89,2.6963,2.667,2.7102,2.7674,2.818,2.8713,2.9035,2.8643,2.8492,2.8815,3.0408,3.2298,3.3812,3.4194,3.43,3.4413,3.44,3.4251,3.4013,3.4031,3.42,3.4166,3.4286,3.441,3.4694,3.4692,3.4891,3.5256,3.5345,3.5218,3.4805,3.5067,3.5356,3.4295,0.0,3.1506,3.034,0.0,2.9266,2.8463,2.8262,2.7832,2.7646,2.7627,2.7445,2.7334,2.7337,2.7097,2.7012,2.7012,2.7012,2.7012,2.6989,2.6797,2.6592,2.6389,2.6162,2.5935,2.5706,2.5696,2.5696,2.5696,2.5696,2.5696,2.5696,2.5696,2.5601,2.541,2.5412,2.4971,2.4111,2.367,2.3327,2.3102,2.2714,2.2196,2.1552,2.0898,0.0,0.0,0.0,0.0,0.0,0.0,0.0,0.0,0.0,0.0,1.7671,1.7459,1.7666,1.843,1.9538,2.1108,2.3213,2.4729,2.5251,2.4463,2.6194,2.7403,2.7679,2.8461,2.9151,2.9679,2.997,3.0472,3.1265,3.1388,3.1727,3.2503,3.2893,3.2436,3.1118,3.1136,3.0773,2.9243,2.9157,2.948,2.99,3.033,3.0701,3.0862,3.04,3.0172,3.085,3.2465,3.3961,3.4543,3.4692,3.4715,3.4692,3.4692,3.4692,3.4692,3.4917,3.5082,3.5118,3.5341,3.5541,3.5541,3.5553,3.5629,3.5868,3.5956,3.5881,3.5591,3.5755,3.5932,3.3838,3.524,3.1544,3.0475,3.1127,2.9655,2.9043,2.898,0.0,0.0,0.0,2.7956,2.78,2.778,2.7393,2.7233,2.7223,2.7223,2.7233,2.7223,2.7145,2.6953,2.6621,2.6543,2.6296,2.594,2.5918,2.593,2.5932,2.5864,2.5825,2.5815,2.5735,2.5696,2.5676,2.5383,2.4992,2.4531,2.4043,2.3613,2.3229,2.281,2.2225,2.1444,2.1366,2.0791,1.9697,1.9951,1.9757,1.8996,1.8939,1.8918,1.8841,1.8831,1.8996,1.9374,1.955,2.0295,2.1725,2.2728,2.4062,2.5883,2.7572,2.831,2.7788,2.7839,2.8473,2.9965,3.0078,3.0479,3.1457,3.1537,3.1763,3.2303,3.2355,3.2579,3.3178,3.3619,3.3395,3.2529,3.2626,3.2653,3.1697,3.1607,3.1921,3.2206,3.2364,3.2819,3.2854,3.2271,3.2126,3.3326,3.4391,3.5007,3.5017,3.5066,3.5014,3.5091,3.5066,3.5003,3.5078,3.5355,3.5631,3.5656,3.6081,3.6305,3.638,3.6318,3.6417,3.6417,3.6417,3.6417,3.6417,3.6393,3.638,3.5581,3.4564,3.2404,3.0864,2.9857,2.9613,2.9487,2.9442,2.8656,2.8301,2.8291,2.8232,2.8216,2.8203,2.8148,2.8128,2.8115,2.8115,2.8119,2.8096,2.777,2.7575,2.7497,2.71,2.6882,2.6833,2.6823,2.6811,2.6771,2.6465,2.6299,2.6262,2.5903,2.5696,2.5686,2.5647,2.5418,2.4994,2.4201,2.3771,2.3691,2.3249,2.2779,2.2332,2.1982,2.1543,2.0957,2.0976,2.0791,2.0341,2.0322,2.0146,1.9747,1.9727,1.9737,1.9854,2.0508,2.146,2.2659,2.3956,2.5995,2.883,2.9837,3.003,2.9525,2.988,3.0422,3.1107,3.1145,3.1421,3.1991,3.2102,3.2328,3.2842,3.2953,3.3192,3.3696,3.3884,3.3687,3.2985,3.3149,3.3052,3.2223,3.2184,3.2457,3.2547,3.3477,3.4459,3.5114,3.4715,3.4571,3.5552,3.6038,3.6155,3.6029,3.6154,3.6067,3.6155,3.608,3.6029,3.6029,3.6105,3.6193,3.6256,3.6318,3.6393,3.6417,3.6417,3.6417,3.6417,3.6417,3.6417,3.6417,3.6417,3.6417,3.6792,3.5891,3.3534,3.2124,3.1413,3.0382,2.9775,2.9569,2.9174,2.8848,2.8629,2.8643,2.8519,2.8301,2.8301,2.8301,2.8301,2.8301,2.8301,2.8281,2.8096,2.7894,2.7705,2.7477,2.7246,2.7009,2.7012,2.7012,2.6992,2.6804,2.6728,2.6699,2.6286,2.5952,2.5728,2.5696,2.5598,2.543,2.4816,2.4377,2.4129,2.3711,2.3301,2.2893,2.2451,2.2011,2.1602,2.1572,2.1494,2.1309,2.1319,2.1211,2.0996,2.0977,2.0977,2.0996,2.1347,2.2433,2.4362,2.6703,2.8664,3.0127,3.0723,3.1062,3.111,3.106,3.126,3.1765,3.1848,3.2074,3.2627,3.269,3.2792,3.3054,3.3343,3.3621,3.3909,3.4452,3.465,3.4414,3.4764,3.4845,3.4318,3.4413,3.4533,3.4593,3.5162,3.5775,3.6335,3.5919,3.5667,3.6263,3.6417,3.6393,3.6417,3.6417,3.6417,3.6417,3.6417,3.6417,3.6417,3.6417,3.6417,3.6417,3.6417,3.6417,3.6417,3.6417,3.6417,3.6417,3.6417,3.6417,3.6417,3.6417,3.6417,3.7796,3.7252,3.4684,3.3219,3.2485,3.101,3.018,2.9911,2.9891,2.9633,2.9215,2.9098,2.8828,2.8461,2.8451,2.8379,2.8301,2.8301,2.8301,2.8301,2.8301,2.8128,2.7858,2.7829,2.765,2.7311,2.7295,2.7292,2.7282,2.7217,2.7109,2.6982,2.6602,2.6221,2.5852,2.5754,2.5696,2.5676,2.5403,2.501,2.456,2.415,2.3769,2.3479,2.3125,2.2755,2.2365,2.2335,2.2237,2.2051,2.2031,2.1993,2.1915,2.1982,2.2042,2.2052,2.2119,2.3329,2.5976,2.8774,3.0562,3.0942,3.1348,3.1823,3.229,3.2024,3.1949,3.2328,3.2403,3.2602,3.2991,3.3217,3.3291,3.3303,3.3759,3.4148,3.4314,3.5005,3.5582,3.5719,3.6118,3.6383,3.6532,3.6582,3.6538,3.6627,3.677,3.677,3.6758,3.6758,3.677,3.6708,3.657,3.6406,3.6417,3.6417,3.6417,3.6417,3.6417,3.6417,3.6417,3.6417,3.6417,3.6417,3.6417,3.6417,3.6417,3.6417,3.6417,3.6417,3.6417,3.6417,3.6417,3.6417,3.6417,3.8712,3.7358,3.5702,3.3529,3.1218,3.0917,3.0796,3.0757,3.0762,3.0537,3.0039,2.9692,2.9277,2.8883,2.883,2.8668,2.835,2.8301,2.831,2.831,2.8301,2.8285,2.8236,2.8223,2.8226,2.8154,2.8135,2.8096,2.8076,2.7786,2.7412,2.6999,2.6602,2.6399,2.6292,2.5925,2.5706,2.5696,2.5669,2.5447,2.5043,2.4592,2.4313,2.4307,2.4246,2.4032,2.3595,2.3624,2.3252,2.2528,2.247,2.2305,2.2022,2.2266,2.245,2.249,2.2802,2.4206,2.6905,2.8738,3.0398,3.1853,3.2066,3.2388,3.2941,3.2964,3.2952,3.304,3.304,3.3052,3.3117,3.3531,3.3809,3.3858,3.4313,3.4816,3.5218,3.5433,3.5719,3.6268,3.6343,3.657,3.6971,3.7085,3.7299,3.7638,3.7638,3.7651,3.7663,3.7676,3.7688,3.7588,3.7085,3.6519,3.6468,3.6417,3.6443,3.6431,3.6417,3.6417,3.6417,3.6417,3.6417,3.6417,3.6417,3.6417,3.6417,3.6417,3.6417,3.6417,3.6417,3.6417,3.6417,3.6417,3.6417,3.8843,3.7373,3.5918,3.3586,3.1107,3.0913,3.0913,3.0913,3.0913,3.0796,3.0605,3.0434,2.9975,2.933,2.932,2.9223,2.9061,2.8789,2.8662,2.8619,2.8418,2.8301,2.8301,2.8301,2.8301,2.8301,2.8301,2.8301,2.8271,2.8128,2.7826,2.7445,2.7242,2.6917,2.6428,2.6211,2.5994,2.5706,2.5696,2.563,2.5415,2.5041,2.4818,2.4787,2.4539,2.4334,2.4168,2.4149,2.3994,2.3649,2.3631,2.3564,2.3378,2.3544,2.3631,2.3675,2.4417,2.5689,2.754,2.9169,3.0696,3.2118,3.2528,3.2979,3.3506,3.3581,3.3684,3.396,3.3759,3.3569,3.3632,3.406,3.4363,3.4451,3.4842,3.5269,3.5458,3.5819,3.6156,3.638,3.6406,3.6595,3.7122,3.7487,3.7739,3.7977,3.8015,3.8053,3.8015,3.8002,3.8002,3.7952,3.76,3.7248,3.6972,3.6871,3.6757,3.6506,3.6417,3.6417,3.6431,3.6406,3.6417,3.6417,3.6417,3.6417,3.6417,3.6417,3.6417,3.6417,3.6417,3.6417,3.6417,3.6417,3.6417,3.8953,3.7318,3.5483,3.324,3.0947,3.0913,3.0913,3.0913,3.0913,3.0913,3.0913,3.0913,3.0561,3.0009,2.9833,2.9715,2.9555,2.9238,2.9101,2.9039,2.8649,2.8467,2.8457,2.8353,2.8301,2.8301,2.8301,2.8301,2.8301,2.8301,2.8148,2.7888,2.7751,2.733,2.6621,2.6465,2.6182,2.5735,2.5696,2.5696,2.5659,2.543,2.5266,2.5248,2.4941,2.4705,2.46,2.46,2.4529,2.4402,2.4424,2.4424,2.4424,2.4424,2.4424,2.4516,2.5616,2.6687,2.7601,2.9187,3.0547,3.149,3.2021,3.2636,3.3359,3.3562,3.3916,3.4577,3.4488,3.4313,3.4186,3.4614,3.4916,3.4955,3.5418,3.5744,3.5794,3.6168,3.6443,3.6582,3.6682,3.6896,3.7575,3.814,3.853,3.8542,3.8517,3.8454,3.8454,3.8517,3.8504,3.8467,3.8454,3.8165,3.76,3.7424,3.7186,3.7022,3.6909,3.6884,3.6683,3.6632,3.648,3.6518,3.6455,3.6417,3.6417,3.6417,3.643,3.6417,3.6417,3.6417,3.6417,3.6417,3.6417,3.931,3.7167,3.4379,3.2322,3.0913,3.0913,3.0913,3.0913,3.0913,3.0913,3.0913,3.0913,3.0884,3.0752,3.0366,2.9975,2.9671,2.9598,2.9565,2.952,2.9078,2.8883,2.8857,2.8473,2.8368,2.8717,2.8704,2.8535,2.8411,2.8291,2.8281,2.8242,2.7917,2.7477,2.696,2.6602,2.6169,2.5754,2.5696,2.5696,2.572,2.5701,2.5746,2.5761,2.5676,2.5516,2.5252,2.5122,2.4922,2.4466,2.4494,2.4442,2.4442,2.443,2.4471,2.4596,2.5923,2.6865,2.7161,2.8513,2.9679,3.0108,3.0373,3.0937,3.2557,3.2896,3.3466,3.4582,3.5111,3.5181,3.4865,3.5192,3.5469,3.5519,3.5993,3.6268,3.633,3.6227,3.6621,3.6901,3.6992,3.7466,3.858,3.9296,3.9446,3.9496,3.9559,3.9509,3.9459,3.9509,3.9496,3.9496,3.9433,3.9233,3.8241,3.7977,3.7977,3.7726,3.7537,3.7664,3.7399,3.7122,3.6871,3.6681,3.6682,3.662,3.6481,3.643,3.6455,3.6443,3.6417,3.6417,3.6417,3.6417,3.6417,3.7732,3.4903,3.2639,3.1368,3.0942,3.0913,3.0913,3.0913,3.0913,3.0913,3.0913,3.0913,3.0913,3.0879,3.0737,3.0571,3.0419,3.0122,2.9985,2.9922,2.9545,2.9841,3.0663,3.0263,3.0581,3.1293,3.1025,3.0408,2.9526,2.8751,2.8301,2.8281,2.8154,2.7725,2.7106,2.6852,2.6443,2.5786,2.5696,2.5696,2.5844,2.6488,2.6921,2.6921,2.6921,2.721,2.7852,2.7138,2.6629,2.6465,2.5696,2.524,2.5218,2.5228,2.5228,2.5285,2.5795,2.6474,2.7285,2.8125,2.9052,2.9901,3.0295,3.0782,3.1839,3.2709,3.3565,3.4435,3.5483,3.592,3.588,3.5968,3.6081,3.6106,3.6256,3.6394,3.6278,3.589,3.5586,3.5841,3.6375,3.7385,3.8553,3.9371,3.9697,3.971,3.971,3.971,3.971,3.971,3.971,3.971,3.9685,3.9572,3.9245,3.8768,3.8504,3.814,3.7939,3.7915,3.7739,3.7726,3.7537,3.7386,3.7261,3.7236,3.721,3.6997,3.6921,3.6594,3.6556,3.6644,3.6417,3.6632,3.6569,3.6841,3.4503,3.2247,3.1226,3.1103,3.1079,3.103,3.0923,3.0913,3.0913,3.0913,3.0913,3.0913,3.1005,3.1397,3.1604,3.1589,3.1293,3.1138,3.1145,3.1185,3.1759,3.248,3.2193,3.2392,3.2884,3.2106,3.1147,3.0253,2.8953,2.8318,2.8291,2.8301,2.7949,2.7366,2.7453,2.72,2.6652,2.6763,2.6913,2.7008,2.7709,2.8389,2.8692,2.8762,2.8923,2.9384,2.8611,2.7967,2.7554,2.6766,2.6135,2.5779,2.5696,2.5696,2.572,2.61,2.6545,2.717,2.7826,2.851,2.9171,2.9532,3.0066,3.1024,3.1949,3.2773,3.368,3.4447,3.5174,3.5655,3.5727,3.593,3.6275,3.6417,3.6267,3.595,3.539,3.5014,3.5106,3.6175,3.734,3.8313,3.9176,3.9608,3.971,3.971,3.971,3.971,3.971,3.971,3.971,3.971,3.971,3.9534,3.9258,3.9145,3.8831,3.8617,3.8467,3.8291,3.8291,3.8216,3.809,3.8027,3.8015,3.7889,3.7651,3.7336,3.6972,3.706,3.7236,3.7085,3.7009,3.6959,3.6784,3.6213,3.3489,3.2236,3.1959,3.1762,3.1363,3.1186,3.0967,3.0913,3.0928,3.0991,3.117,3.1305,3.2515,3.312,3.3099,3.3202,3.3177,3.3117,3.389,3.436,3.4585,3.4181,3.3733,3.3379,3.1391,3.0479,3.0289,2.9026,2.8318,2.8371,2.8504,2.8433,2.7845,2.859,2.868,2.8461,2.8878,2.9243,2.9384,2.9406,2.9932,3.0833,3.1058,3.0645,2.9589,2.9384,2.8785,2.7861,2.7565,2.697,2.6038,2.5868,2.5779,2.5939,2.6842,2.706,2.669,2.7558,2.8023,2.8041,2.7852,2.8697,2.993,3.0453,3.1079,3.2067,3.2613,3.3063,3.4225,3.4663,3.5223,3.6169,3.6482,3.6155,3.5387,3.4982,3.4827,3.466,3.5799,3.7259,3.7784,3.861,3.9375,3.9633,3.971,3.971,3.971,3.971,3.971,3.971,3.971,3.971,3.971,3.9697,3.9685,3.9609,3.9471,3.932,3.8994,3.8881,3.873,3.8605,3.8542,3.8517,3.8303,3.809,3.7965,3.7701,3.7826,3.7751,3.7626,3.7512,3.7462,3.8323,3.7215,3.5983,3.537,3.5017,3.3751,3.3049,3.2785,3.1561,3.0928,3.1083,3.1973,3.2416,3.2743,3.394,3.4612,3.4709,3.5565,3.5606,3.4855,3.4983,3.5694,3.6354,3.6079,3.5562,3.4778,3.3157,3.1735,3.0632,2.913,2.8711,2.949,2.966,2.9984,3.0362,3.067,3.0583,3.0216,3.0386,3.034,3.0096,3.0813,3.1288,3.1317,3.2384,3.2456,3.1167,3.0022,2.9258,2.8795,2.8027,2.74,2.7076,2.7017,2.675,2.6291,2.6517,2.6856,2.6929,2.7415,2.7829,2.777,2.7933,2.8301,2.8936,2.9778,3.0406,3.106,3.1995,3.3038,3.3526,3.4675,3.5653,3.684,3.6935,3.6553,3.5434,3.4118,3.3337,3.3497,3.4097,3.5255,3.6972,3.8099,3.8661,3.9568,3.971,3.971,3.971,3.971,3.971,3.971,3.971,3.971,3.971,3.971,3.971,3.971,3.9685,3.9672,3.9459,3.9333,3.9195,3.9107,3.9044,3.8931,3.8718,3.858,3.8479,3.8241,3.809,3.8028,3.8015,3.8027,3.8065,3.9647,3.8648,3.7754,3.7301,3.706,3.5754,3.5039,3.4572,3.3401,3.273,3.2828,3.3501,3.3915,3.4236,3.5455,3.607,3.6271,3.7662,3.7821,3.7036,3.693,3.7489,3.8183,3.7775,3.6989,3.589,3.413,3.2443,3.1002,2.9774,2.9476,3.0201,3.0775,3.1298,3.1932,3.2221,3.2201,3.1974,3.2218,3.2113,3.1875,3.2541,3.2804,3.2493,3.3521,3.3454,3.2224,3.0754,2.9699,2.9098,2.8033,2.7619,2.7995,2.7663,2.7149,2.6771,2.6663,2.6819,2.7217,2.7545,2.778,2.7927,2.8158,2.8295,2.8481,2.9295,2.9734,2.9997,3.0883,3.1944,3.2531,3.3402,3.4969,3.686,3.7331,3.6811,3.545,3.368,3.2475,3.2547,3.2822,3.4267,3.5947,3.7358,3.8046,3.931,3.971,3.971,3.971,3.971,3.971,3.971,3.971,3.971,3.971,3.971,3.971,3.971,3.9697,3.9697,3.9597,3.9572,3.9509,3.9471,3.9433,3.9383,3.9195,3.9183,3.9107,3.8768,3.853,3.873,3.8868,3.8806,3.8781,4.0736,4.0546,3.9115,3.8439,3.8119,3.7785,3.7176,3.6438,3.5921,3.5494,3.524,3.5297,3.5426,3.5754,3.697,3.7598,3.7849,3.8843,3.9426,3.9336,3.9323,3.9388,3.9352,3.8965,3.7923,3.6271,3.4532,3.2743,3.1144,3.0742,3.0507,3.0951,3.1939,3.2519,3.2931,3.3355,3.372,3.3815,3.4354,3.4391,3.3914,3.4365,3.4387,3.3887,3.436,3.4112,3.2793,3.1399,3.012,2.8872,2.7829,2.7831,2.8489,2.7784,2.7228,2.7072,2.7038,2.7285,2.7614,2.777,2.7943,2.8291,2.8359,2.8363,2.8563,2.8952,2.9218,2.9211,2.9686,3.0363,3.1295,3.2016,3.3571,3.6209,3.7422,3.6824,3.4833,3.3663,3.2589,3.1603,3.2193,3.3631,3.5192,3.6541,3.7847,3.9258,3.971,3.971,3.971,3.971,3.971,3.971,3.971,3.971,3.971,3.971,3.971,3.971,3.971,3.971,3.971,3.971,3.971,3.971,3.971,3.9685,3.9647,3.9559,3.9534,3.9358,3.9371,3.966,3.9597,3.9396,3.9283,4.2388,4.2319,4.1925,4.1671,4.1347,4.0052,3.9235,3.8704,3.6911,3.6299,3.6076,3.6624,3.6954,3.7091,3.8438,3.9116,3.9168,3.9491,3.971,3.971,3.971,3.971,3.9697,3.9533,3.8154,3.6029,3.564,3.4324,3.1708,3.2117,3.2661,3.3327,3.3587,3.4337,3.521,3.5411,3.5624,3.5659,3.5783,3.5629,3.5143,3.5181,3.5029,3.4603,3.5017,3.4573,3.3256,3.145,2.9962,2.8923,2.8556,2.8433,2.8834,2.848,2.7985,2.7584,2.7536,2.7689,2.8031,2.8148,2.832,2.8691,2.8746,2.8896,2.9246,2.934,2.9418,2.9487,2.9789,3.0171,3.0752,3.1847,3.4032,3.6634,3.7325,3.688,3.5289,3.3885,3.2544,3.1291,3.1354,3.2701,3.4664,3.5813,3.7032,3.9022,3.9785,3.976,3.9823,3.9785,3.9823,3.9735,3.971,3.971,3.971,3.971,3.971,3.971,3.971,3.971,3.971,3.971,3.971,3.971,3.971,3.9685,3.9685,3.966,3.9697,3.971,3.971,3.971,3.971,3.9584,3.9559,4.3,4.3,4.3,4.3,4.288,4.1749,4.1142,4.0696,3.9406,3.8497,3.8441,3.8559,3.8755,3.886,3.9422,3.9697,3.971,3.971,3.971,3.971,3.971,3.971,3.971,3.9671,3.8464,3.6509,3.6602,3.5259,3.3413,3.3676,3.428,3.4657,3.5078,3.5655,3.6192,3.6417,3.6417,3.6381,3.6393,3.6106,3.5545,3.5757,3.5556,3.5268,3.5511,3.5068,3.3059,3.0713,2.9324,2.9093,2.8846,2.8829,2.933,2.8855,2.8416,2.7959,2.7956,2.8128,2.8447,2.8555,2.876,2.9092,2.9199,2.932,2.9559,2.9735,2.9848,2.9887,3.0249,3.0449,3.0762,3.2072,3.3767,3.5202,3.6192,3.619,3.5368,3.4573,3.306,3.1647,3.1054,3.2002,3.4883,3.544,3.7113,3.917,4.0349,4.0249,4.0136,4.0048,3.9973,3.991,3.9823,3.9823,3.9848,3.9861,3.9898,3.9885,3.981,3.9798,3.9772,3.976,3.971,3.971,3.971,3.971,3.971,3.971,3.971,3.971,3.971,3.971,3.971,3.9968,3.9942,4.3,4.3,4.3,4.3,4.3,4.2974,4.2548,4.2295,4.1891,4.1562,4.1112,4.0721,4.0315,4.0475,3.9958,3.9785,3.971,3.971,3.971,3.971,3.971,3.971,3.971,3.971,3.8791,3.751,3.7123,3.6281,3.5268,3.5311,3.5551,3.5768,3.6242,3.6413,3.6544,3.6468,3.6417,3.6417,3.6417,3.6193,3.5844,3.6068,3.6019,3.5734,3.5617,3.451,3.2213,3.0024,2.8937,2.9498,2.8727,2.8912,2.9703,2.883,2.8431,2.8367,2.8379,2.8522,2.8883,2.898,2.917,2.9555,2.9667,2.9706,2.9862,3.0122,3.0273,3.0288,3.0654,3.0815,3.1048,3.2242,3.3193,3.3975,3.4741,3.5371,3.5202,3.5121,3.3993,3.1446,3.0962,3.2393,3.4418,3.6037,3.7262,3.9953,4.0775,4.075,4.065,4.0587,4.0425,4.0211,4.0098,3.9985,3.9998,4.0024,4.0099,4.0136,4.0023,3.9961,3.9923,3.9873,3.9747,3.971,3.971,3.971,3.971,3.971,3.971,3.971,3.971,3.971,3.9762,4.0262,4.044,4.3,4.3,4.3,4.3,4.3,4.2988,4.2939,4.2788,4.2387,4.2147,4.1896,4.1391,4.0913,4.0512,4.0349,4.0124,3.9748,3.971,3.971,3.971,3.971,3.971,3.971,3.971,3.8908,3.8089,3.8667,3.8023,3.6913,3.7264,3.7829,3.7394,3.7019,3.7022,3.6997,3.6657,3.6417,3.6417,3.6417,3.6343,3.623,3.6268,3.6283,3.5991,3.521,3.3404,3.1325,3.0185,2.9475,2.8794,2.8462,2.8521,2.8711,2.8531,2.8451,2.8658,2.8746,2.8941,2.9326,2.9453,2.9633,3.0014,3.0102,3.0243,3.0615,3.0639,3.0737,3.0766,3.084,3.0952,3.1152,3.2554,3.325,3.3712,3.4834,3.5595,3.4765,3.4047,3.295,3.1618,3.1299,3.2529,3.543,3.6254,3.7936,4.0403,4.1201,4.1251,4.1201,4.1139,4.0913,4.0662,4.0612,4.0549,4.0563,4.055,4.055,4.055,4.0412,4.0324,4.0274,3.9985,3.9885,3.9785,3.971,3.971,3.971,3.971,3.971,3.971,3.9736,3.9865,4.0058,4.0554,4.1194,4.3,4.3,4.3,4.3,4.3,4.3,4.3,4.295,4.2713,4.2562,4.2449,4.197,4.1404,4.0863,4.06,4.0186,3.981,3.971,3.971,3.971,3.971,3.971,3.971,3.9672,3.922,3.8687,3.9246,3.8943,3.8553,3.8537,3.863,3.8404,3.7851,3.76,3.75,3.7048,3.6833,3.6732,3.6506,3.6417,3.6417,3.6406,3.5966,3.5138,3.3625,3.1644,3.0473,2.9621,2.9022,2.8481,2.831,2.8301,2.8301,2.831,2.8506,2.8814,2.8898,2.9258,2.9672,2.9897,3.0073,3.0493,3.0527,3.0659,3.0845,3.0913,3.0913,3.0952,3.1074,3.1265,3.1524,3.2177,3.2945,3.3133,3.3929,3.4163,3.3601,3.3511,3.3155,3.1984,3.1729,3.3455,3.523,3.6593,3.8634,4.1108,4.2066,4.2131,4.1795,4.1694,4.1453,4.1265,4.1214,4.1176,4.1176,4.1152,4.1102,4.1051,4.0938,4.0888,4.0851,4.045,4.0023,3.991,3.9772,3.971,3.971,3.971,3.971,3.971,3.98,4.0032,4.0503,4.1182,4.1899,4.3113,4.3282,4.3099,4.3113,4.3254,4.3113,4.3,4.3,4.3,4.2939,4.2926,4.25,4.1996,4.1454,4.104,4.0463,3.9948,3.971,3.971,3.971,3.971,3.971,3.971,3.9672,3.9646,3.9697,3.9697,3.9544,3.9431,3.9296,3.9095,3.8906,3.8429,3.8165,3.8027,3.7625,3.7324,3.7261,3.6858,3.6607,3.6413,3.6208,3.5235,3.3391,3.2067,3.0616,2.9944,2.9233,2.8602,2.8486,2.849,2.849,2.848,2.8431,2.8646,2.9068,2.9215,2.9586,3.0137,3.0322,3.0478,3.0893,3.0893,3.0893,3.0903,3.0923,3.0972,3.1157,3.1372,3.1738,3.214,3.243,3.2419,3.2443,3.2411,3.2384,3.2603,3.3512,3.3271,3.2503,3.2321,3.3641,3.5683,3.7413,3.9585,4.1467,4.2379,4.2875,4.2513,4.2274,4.2045,4.1981,4.1968,4.1968,4.1968,4.2001,4.1924,4.1964,4.1783,4.1696,4.1566,4.0964,4.0512,4.0036,3.986,3.9785,3.9722,3.971,3.971,3.971,4.0121,4.0617,4.1219,4.1862,4.2751,4.3657,4.4589,4.3463,4.363,4.44,4.3518,4.3044,4.3,4.3,4.3,4.2975,4.2901,4.2524,4.2097,4.1984,4.133,4.0413,3.9923,3.971,3.971,3.971,3.971,3.971,3.971,3.971,3.971,3.971,3.971,3.9685,3.9597,3.9471,3.9408,3.9019,3.8743,3.8592,3.8216,3.7889,3.7801,3.7374,3.7085,3.6816,3.5478,3.3707,3.1753,3.0847,3.0216,2.9533,2.9374,2.9393,2.9393,2.9397,2.946,2.9593,2.9332,2.9463,2.9687,2.9863,3.0088,3.0576,3.0757,3.0805,3.0908,3.0913,3.0913,3.0913,3.0962,3.1143,3.1494,3.1822,3.2149,3.2173,3.2525,3.2681,3.2769,3.2945,3.3115,3.3187,3.3337,3.3363,3.2553,3.2877,3.3821,3.6083,3.8058,3.9751,4.1455,4.2603,4.2988,4.2813,4.2725,4.2711,4.2724,4.2801,4.2787,4.2787,4.2863,4.2872,4.3122,4.3025,4.2821,4.248,4.164,4.1092,4.1426,4.063,3.986,3.9798,3.985,3.9955,4.0147,4.0706,4.1369,4.2254,4.317,4.4198,4.5515,4.6004,4.5382,4.5048,4.4887,4.4332,4.363,4.3044,4.3,4.3,4.3,4.2963,4.27,4.2312,4.2199,4.157,4.0614,3.9948,3.9735,3.971,3.971,3.971,3.971,3.971,3.971,3.971,3.971,3.971,3.971,3.9685,3.971,3.9647,3.9421,3.9321,3.9195,3.8756,3.8504,3.8341,3.7927,3.7589,3.7281,3.5176,3.2704,3.122,3.0158,2.9663,2.9671,3.0327,3.0712,3.0898,3.1492,3.191,3.1984,3.1827,3.1295,3.0575,3.03,3.0443,3.082,3.0913,3.0903,3.0903,3.0913,3.0913,3.0972,3.1123,3.1494,3.2031,3.2305,3.2603,3.2812,3.2978,3.3096,3.3144,3.3295,3.3383,3.3386,3.3386,3.3182,3.2886,3.3229,3.4544,3.6993,3.8711,4.0012,4.136,4.2695,4.3,4.3,4.3,4.3,4.2988,4.3046,4.3396,4.3493,4.3713,4.4112,4.439,4.4447,4.4239,4.4189,4.369,4.3742,4.4032,4.2706,4.09,4.0387,4.0606,4.0619,4.0858,4.1843,4.2807,4.3626,4.4537,4.5407,4.7261,4.7517,4.7224,4.6604,4.5833,4.5182,4.44,4.3504,4.3101,4.3,4.3,4.2975,4.2776,4.2386,4.2022,4.1493,4.06,4.0036,3.9735,3.971,3.971,3.971,3.971,3.971,3.971,3.971,3.971,3.971,3.971,3.971,3.971,3.9697,3.971,3.971,3.9547,3.922,3.9095,3.8881,3.8492,3.8066,3.6633,3.4715,3.2418,3.0931,2.9704,2.9555,3.0377,3.136,3.2204,3.2729,3.349,3.4302,3.463,3.4708,3.3619,3.1688,3.1015,3.1016,3.1196,3.0947,3.0913,3.0913,3.0991,3.103,3.1182,3.1538,3.207,3.2656,3.291,3.3002,3.3201,3.3357,3.3367,3.3357,3.3357,3.3386,3.3386,3.3487,3.3792,3.3689,3.3761,3.4928,3.7031,3.8371,3.9452,4.1047,4.2388,4.2986,4.3,4.3,4.3,4.3,4.3198,4.3782,4.4154,4.459,4.5209,4.5937,4.6002,4.5919,4.6123,4.6217,4.6202,4.5828,4.4406,4.2758,4.2111,4.1811,4.2338,4.2925,4.3544,4.408,4.4594,4.5204,4.5977,4.7822,4.8863,4.7657,4.7708,4.8189,4.6135,4.4994,4.4657,4.3602,4.3014,4.3169,4.3,4.2951,4.2661,4.1793,4.1365,4.0913,4.0161,3.971,3.971,3.971,3.971,3.971,3.971,3.971,3.971,3.971,3.971,3.9633,3.962,3.9581,3.953,3.9452,3.9633,3.9363,3.9457,3.9622,3.9496,3.907,3.7419,3.4983,3.4012,3.2376,3.0599,3.0004,3.0559,3.1669,3.2636,3.3481,3.4762,3.5039,3.5216,3.5199,3.5224,3.5169,3.4424,3.3644,3.2774,3.2552,3.1575,3.0962,3.103,3.1211,3.1372,3.1645,3.2084,3.2588,3.2734,3.3096,3.3285,3.3357,3.3377,3.3386,3.3386,3.3386,3.3386,3.3386,3.3449,3.3776,3.469,3.4819,3.5258,3.6526,3.7667,3.885,4.052,4.1939,4.2597,4.3,4.3,4.3,4.3,4.3616,4.4249,4.5329,4.5687,4.6643,4.7517,4.7695,4.7707,4.7888,4.7991,4.7494,4.6881,4.5736,4.5378,4.5249,4.507,4.4817,4.4894,4.5376,4.5394,4.5316,4.598,4.6846,4.9776,5.0275,4.9679,4.9308,4.9049,4.7847,4.6915,4.6004,4.4738,4.4127,4.3962,4.3282,4.3,4.2748,4.1818,4.1301,4.1064,4.0224,3.9723,3.971,3.971,3.971,3.971,3.971,3.971,3.971,3.971,3.971,3.9517,3.8843,3.8452,3.853,3.8477,3.8386,3.8713,3.9323,3.9607,3.9635,3.9229,3.7559,3.5157,3.4037,3.2862,3.0138,3.016,3.1222,3.2622,3.3879,3.5029,3.6404,3.7196,3.7793,3.7794,3.7821,3.782,3.7688,3.6408,3.488,3.3222,3.1777,3.1269,3.1211,3.145,3.1694,3.2139,3.2549,3.2939,3.3129,3.3285,3.3392,3.3386,3.3386,3.3386,3.3386,3.3386,3.3386,3.3418,3.3497,3.3823,3.4897,3.602,3.6669,3.7439,3.875,4.0001,4.1148,4.2234,4.2723,4.3,4.3,4.3,4.3,4.3852,4.4833,4.6174,4.7159,4.8427,4.9284,4.9691,4.9689,4.9664,4.9526,4.9012,4.9137,4.8996,4.8726,4.8495,4.7573,4.6587,4.6794,4.7166,4.7127,4.7115,4.7603,4.833,5.1217,5.1217,5.1217,5.0615,4.9679,4.9357,4.8589,4.7505,4.5687,4.4981,4.4644,4.3644,4.3,4.2799,4.2057,4.1592,4.148,4.04,3.9986,3.9873,3.976,3.9697,3.971,3.971,3.971,3.9697,3.971,3.9413,3.8635,3.7861,3.7131,3.7425,3.7156,3.7305,3.7781,3.8465,3.9103,3.9672,3.9182,3.7452,3.523,3.4308,3.2706,3.1287,3.0877,3.1783,3.3539,3.5071,3.6541,3.794,3.8843,3.9258,3.9323,3.9232,3.9271,3.8973,3.7859,3.6188,3.4326,3.2788,3.1803,3.1564,3.1821,3.2211,3.2783,3.2959,3.3027,3.3334,3.3373,3.3386,3.3386,3.3386,3.3386,3.3386,3.3386,3.3386,3.3566,3.4111,3.5015,3.6371,3.7559,3.8602,3.9438,4.0491,4.1417,4.2095,4.2611,4.2932,4.3,4.3,4.3058,4.3127,4.414,4.5262,4.6669,4.8112,4.9616,5.065,5.1023,5.1109,5.071,5.0698,5.0508,5.0905,5.1217,5.0818,4.9828,4.9025,4.8328,4.8497,4.8661,4.8928,4.9126,4.9441,4.9408,5.1217,5.1217,5.1217,5.1132,5.0905,4.9701,4.9174,4.8653,4.6174,4.5035,4.463,4.374,4.3169,4.288,4.255,4.2198,4.2061,4.0939,4.0475,4.0211,3.996,3.9735,3.971,3.971,3.9697,3.9659,3.9426,3.87,3.761,3.6244,3.6408,3.7133,3.5918,3.642,3.7198,3.7953,3.8856,3.9258,3.8843,3.7303,3.5395,3.4103,3.2601,3.1619,3.2164,3.3613,3.5068,3.6366,3.7755,3.9142,3.9517,3.9685,3.971,3.971,3.9723,3.9538,3.8756,3.7287,3.5809,3.4093,3.2819,3.2187,3.2182,3.2777,3.3187,3.3314,3.3392,3.3524,3.3613,3.355,3.3487,3.3386,3.3418,3.3876,3.4101,3.4326,3.4705,3.5412,3.6402,3.7869,3.8982,3.9873,4.0822,4.1743,4.1743,4.2305,4.2681,4.3,4.3,4.3028,4.3155,4.3463,4.4467,4.5634,4.6992,4.8477,5.0044,5.0772,5.112,5.1217,5.1097,5.1217,5.1217,5.1217,5.1217,5.1217,5.1164,5.0312,4.9777,4.9961,5.0088,5.0021,4.9972,5.0044,4.9833,5.1217,5.1217,5.1217,5.1217,5.1155,5.065,4.996,4.8962,4.7133,4.5222,4.3824,4.403,4.3769,4.324,4.3368,4.2936,4.2144,4.1003,4.0663,4.0324,4.0011,3.9747,3.971,3.976,3.9697,3.9464,3.8882,3.8204,3.7412,3.5222,3.4392,3.4406,3.4194,3.4999,3.5959,3.7847,3.9064,3.9271,3.8934,3.7753,3.5563,3.4764,3.3328,3.1204,3.2326,3.38,3.522,3.6703,3.8177,3.9284,3.9658,3.9735,3.976,3.9747,3.991,4.0149,3.9466,3.8764,3.741,3.5436,3.331,3.2761,3.2826,3.3368,3.3761,3.3503,3.4054,3.4195,3.408,3.4049,3.4773,3.4117,3.3676,3.4466,3.4959,3.518,3.5801,3.6523,3.7344,3.8628,3.9814,4.0851,4.1828,4.282,4.2569,4.2416,4.2737,4.3,4.3,4.3141,4.3323,4.4071,4.5128,4.6487,4.7873,4.921,5.0531,5.0893,5.1217,5.1217,5.1217,5.1217,5.1217,5.1217,5.1217,5.1217,5.1217,5.1217,5.1026,5.073,5.0701,5.0757,5.0709,5.0604,5.0389,5.1217,5.1217,5.1217,5.1217,5.1217,5.1217,5.0433,4.9085,4.7683,4.5568,4.3113,4.3975,4.3934,4.3377,4.3438,4.3369,4.24,4.1581,4.1153,4.0865,4.0588,4.0224,4.0174,4.0095,3.9937,3.9281,3.8341,3.7595,3.5784,3.4013,3.3162,3.2715,3.2558,3.3515,3.5727,3.8058,3.9684,3.9658,3.849,3.7687,3.5371,3.4132,3.3698,3.1854,3.3134,3.4598,3.6095,3.7543,3.8635,3.9388,3.9722,3.981,3.9885,4.0023,4.0236,4.055,4.0655,4.0281,3.8806,3.6864,3.4791,3.4861,3.4897,3.5031,3.4814,3.4808,3.5786,3.6219,3.5566,3.5268,3.6345,3.5366,3.5191,3.6046,3.5514,3.5699,3.6755,3.7585,3.8376,3.9317,4.0563,4.1883,4.2217,4.3024,4.2882,4.2649,4.2806,4.3,4.3,4.3226,4.3616,4.4616,4.5938,4.7403,4.8913,4.996,5.0858,5.0952,5.1217,5.1217,5.1217,5.1217,5.1217,5.1217,5.1217,5.1217,5.1217,5.1217,5.1217,5.1173,5.1116,5.1041,5.1041,5.0933,5.1008,5.1217,5.1217,5.1217,5.1217,5.1194,5.1194,5.0314,4.8638,4.7299,4.5435,4.3337,4.3408,4.338,4.3215,4.3503,4.3269,4.2836,4.2273,4.1973,4.1758,4.1228,4.1177,4.1127,4.0894,4.0339,3.8769,3.7875,3.6417,3.3942,3.3276,3.2395,3.1918,3.2216,3.3118,3.5446,3.8228,3.9607,3.9336,3.7103,3.6242,3.4983,3.3282,3.274,3.2569,3.4024,3.5494,3.6528,3.8359,3.9323,3.9607,3.9823,4.0011,4.0312,4.045,4.075,4.1227,4.1276,4.0835,3.9865,3.8341,3.7718,3.7316,3.6961,3.7209,3.7716,3.785,3.7749,3.7948,3.7626,3.7641,3.748,3.6902,3.7069,3.7106,3.6611,3.7001,3.8136,3.8409,3.9122,3.9671,4.1405,4.2899,4.2925,4.3034,4.3003,4.2948,4.2983,4.3,4.3,4.3588,4.4113,4.5409,4.6825,4.8189,4.9567,5.0457,5.112,5.1194,5.1217,5.1217,5.1217,5.1217,5.1217,5.1217,5.1217,5.1217,5.1217,5.1217,5.1217,5.1217,5.1217,5.1173,5.1202,5.1217,5.1217,5.1217,5.1217,5.1217,5.1217,5.1085,5.0227,4.8601,4.6409,4.5061,4.4331,4.4385,4.4331,4.4331,4.4318,4.4099,4.3741,4.2985,4.2475,4.2199,4.2136,4.1655,4.1365,4.1326,4.1335,4.0891,3.9869,3.8585,3.6968,3.5675,3.3678,3.2479,3.2063,3.3412,3.4827,3.6018,3.8005,3.9697,3.9594,3.8543,3.7449,3.5462,3.4151,3.3094,3.2135,3.425,3.5747,3.6673,3.8794,3.9744,3.9885,4.0036,4.0362,4.0651,4.0801,4.1303,4.1743,4.1908,4.1982,4.1816,4.1193,4.0119,3.9183,3.8506,3.8565,3.8268,3.8223,3.8698,3.92,3.8787,3.855,3.791,3.7761,3.7913,3.8324,3.8355,3.9205,3.9934,3.9521,3.9631,3.9988,4.1184,4.2768,4.3375,4.3319,4.3271,4.3275,4.3313,4.3088,4.3013,4.4127,4.4968,4.6383,4.7771,4.9063,5.0203,5.0858,5.1182,5.1206,5.1217,5.1217,5.1217,5.1217,5.1217,5.1217,5.1217,5.1217,5.1217,5.1217,5.1217,5.1217,5.1217,5.1217,5.1217,5.1217,5.1217,5.1217,5.1217,5.1217,5.0917,5.0407,4.9567,4.7593,4.5075,4.363,4.3533,4.4127,4.425,4.4222,4.4236,4.4222,4.4044,4.2965,4.2675,4.2488,4.2438,4.212,4.2019,4.1956,4.1749,4.1314,4.0454,3.8557,3.6733,3.5479,3.3344,3.2699,3.3556,3.5467,3.6361,3.7357,3.9057,3.9957,3.948,3.8397,3.7097,3.5377,3.4243,3.3728,3.3828,3.4918,3.6377,3.7615,3.8959,4.0236,4.0337,4.0524,4.0876,4.1103,4.1417,4.1908,4.2298,4.2526,4.2661,4.2751,4.281,4.158,4.0462,3.9899,3.987,3.987,4.0219,4.0117,4.0132,3.9469,3.9128,3.8844,3.8766,3.8717,3.9107,3.9415,4.0182,3.951,3.899,3.8997,3.9472,4.0036,4.1758,4.3649,4.3666,4.3585,4.3624,4.3639,4.3393,4.3274,4.444,4.5701,4.7056,4.8352,4.9506,5.0385,5.0976,5.1206,5.1217,5.1217,5.1217,5.1217,5.1217,5.1217,5.1217,5.1217,5.1217,5.1217,5.1217,5.1217,5.1217,5.1217,5.1217,5.1217,5.1217,5.1217,5.1217,5.1217,5.1217,5.0493,4.9431,4.9147,4.7453,4.4927,4.3588,4.3073,4.3212,4.3283,4.3394,4.3268,4.3183,4.3085,4.3017,4.2939,4.2914,4.2912,4.2724,4.2787,4.2799,4.2733,4.2016,4.0332,3.8741,3.748,3.5014,3.4209,3.4068,3.4969,3.6772,3.7813,3.9102,3.9892,4.0136,3.9152,3.8207,3.6714,3.4955,3.3803,3.4313,3.5027,3.6376,3.799,3.9359,4.0705,4.1035,4.1163,4.1276,4.1656,4.1959,4.2173,4.2549,4.2813,4.2939,4.2963,4.2975,4.3,4.2932,4.2121,4.243,4.2793,4.2472,4.1812,4.1194,4.0677,4.0054,4.0045,3.996,3.9649,3.9337,3.9482,3.9541,3.917,3.8197,3.788,3.7986,3.8294,3.8653,4.0231,4.2943,4.3615,4.3439,4.4249,4.4265,4.4077,4.4124,4.4872,4.6148,4.7492,4.8713,4.9836,5.0576,5.112,5.1217,5.1217,5.1217,5.1217,5.1217,5.1217,5.1217,5.1217,5.1217,5.1217,5.1217,5.1217,5.1217,5.1217,5.1217,5.1217,5.1217,5.1217,5.1217,5.1217,5.1217,5.1217,5.0964,5.0359,4.8539,4.6656,4.4941,4.3603,4.3449,4.4372,4.3394,4.3421,4.4304,4.3477,4.3085,4.3,4.3,4.2988,4.3,4.3,4.3,4.3,4.2947,4.2502,4.1729,4.0476,3.912,3.8571,3.7074,3.7052,3.8818,3.8628,3.9493,4.0,4.0567,3.9737,3.8922,3.8019,3.6566,3.5433,3.476,3.5327,3.5812,3.758,3.9052,4.0002,4.1077,4.1333,4.1403,4.1743,4.2098,4.2136,4.2524,4.2912,4.2937,4.2988,4.3,4.3,4.3,4.3,4.2972,4.2929,4.3,4.2709,4.2096,4.1312,4.0417,3.9713,3.9322,3.9186,3.899,3.8876,3.8899,3.893,3.8536,3.7603,3.7102,3.7184,3.7201,3.756,3.981,4.2434,4.2917,4.2958,4.4257,4.4991,4.4935,4.5032,4.5795,4.6657,4.8013,4.9272,5.0445,5.076,5.1217,5.1217,5.1217,5.1217,5.1217,5.1217,5.1217,5.1217,5.1217,5.1217,5.1217,5.1217,5.1217,5.1217,5.1217,5.1217,5.1217,5.1217,5.1217,5.1217,5.0589,5.0802,5.0802,5.0951,5.0707,4.8277,4.6811,4.6213,4.4098,4.3532,4.4071,4.3338,4.345,4.3879,4.3337,4.3,4.3,4.3,4.3,4.3,4.3,4.3,4.3,4.3,4.2933,4.2432,4.1602,4.0252,4.0274,3.9317,3.8886,4.0145,4.0161,4.0204,4.0229,3.9834,3.8745,3.8021,3.7262,3.6487,3.6053,3.5876,3.5819,3.6527,3.8549,3.9664,4.055,4.1632,4.1835,4.1968,4.2424,4.2513,4.2551,4.2838,4.2975,4.3,4.3,4.3,4.3,4.3,4.3,4.2868,4.2586,4.2258,4.2029,4.1531,4.0283,3.9168,3.8543,3.8068,3.8019,3.7991,3.798,3.7998,3.7991,3.7991,3.7302,3.6554,3.6364,3.6262,3.7637,3.9828,4.1205,4.1693,4.286,4.4841,4.6297,4.6865,4.6699,4.685,4.7599,4.8615,4.9887,5.1085,5.1217,5.1217,5.1217,5.1217,5.1217,5.1217,5.1217,5.1217,5.1217,5.1217,5.1217,5.1217,5.1217,5.1217,5.1217,5.1217,5.1217,5.1217,5.1217,5.1217,5.1217,4.9578,5.0237,5.024,5.0712,5.0775,4.8464,4.7972,4.869,4.5129,4.3409,4.3575,4.3295,4.3366,4.3685,4.3226,4.3014,4.3,4.3,4.3,4.3,4.3,4.3,4.3,4.3,4.3,4.2486,4.1911,4.1262,4.0604,4.0085,4.0085,4.0676,3.9855,3.9709,3.9811,3.9067,3.7914,3.6645,3.5999,3.5346,3.5618,3.5881,3.6695,3.8071,3.9779,4.1349,4.2413,4.295,4.3,4.2975,4.2963,4.2951,4.2951,4.2964,4.2988,4.3,4.3,4.3,4.3051,4.3113,4.2886,4.2531,4.1922,4.1179,4.072,4.0217,3.8956,3.8168,3.7572,3.7176,3.7059,3.7186,3.7254,3.7278,3.7316,3.7148,3.6645,3.6311,3.6488,3.664,3.7732,3.9921,4.1963,4.2655,4.3544,4.5629,4.6946,4.7823,4.8423,4.8225,4.8833,4.9535,5.0292,5.1232,5.1217,5.1217,5.1217,5.1217,5.1217,5.1217,5.1217,5.1217,5.1217,5.1217,5.1217,5.1217,5.1217,5.1217,5.1217,5.1217,5.1217,5.1217,5.1217,5.1217,5.1217,4.8792,5.024,5.0742,5.1056,5.0973,4.9406,4.8839,4.9038,4.7095,4.6122,4.5912,4.5088,4.4454,4.4304,4.3491,4.3155,4.3014,4.3,4.3,4.3,4.3,4.3,4.3,4.3,4.3,4.2918,4.2583,4.2234,4.1996,4.1826,4.184,4.2263,4.1248,4.0534,3.8979,3.8093,3.6937,3.5525,3.4736,3.4295,3.4326,3.6402,3.8004,3.9067,4.0433,4.2081,4.2932,4.3,4.3,4.2988,4.2988,4.2988,4.2988,4.3,4.3,4.3,4.2986,4.2943,4.2886,4.2917,4.2682,4.2055,4.1235,4.0,3.908,3.8443,3.7825,3.7217,3.6756,3.6415,3.6256,3.6439,3.6593,3.6626,3.6659,3.6347,3.6042,3.6295,3.6589,3.73,3.8138,3.9953,4.2106,4.3591,4.4617,4.5747,4.6972,4.8076,4.9307,4.9701,5.0418,5.095,5.0751,5.1251,5.1232,5.1217,5.1217,5.1217,5.1217,5.1217,5.1217,5.1217,5.1217,5.1217,5.1217,5.1217,5.1217,5.1217,5.1217,5.1217,5.1217,5.1217,5.1217,5.1217,5.1217,4.6791,4.8473,4.8805,4.9843,5.0692,4.9112,4.8925,4.98,4.9247,4.8911,4.8564,4.6941,4.5621,4.5155,4.4181,4.3338,4.3141,4.3014,4.3,4.3,4.3,4.3,4.3,4.3,4.3,4.3,4.3,4.2918,4.3,4.2932,4.2834,4.2725,4.1969,4.0175,3.8018,3.7058,3.5862,3.469,3.3786,3.3528,3.3613,3.5755,3.7615,3.8702,4.0346,4.2067,4.2918,4.3,4.3,4.3,4.3,4.3,4.3,4.3,4.3,4.3,4.2943,4.2755,4.2538,4.2378,4.2073,4.117,4.0076,3.8606,3.8221,3.7595,3.6801,3.6256,3.6333,3.6065,3.6088,3.624,3.625,3.6279,3.6282,3.6125,3.6025,3.6135,3.6295,3.6573,3.7765,3.9524,4.1538,4.3189,4.455,4.7164,4.8168,4.9387,5.0452,5.1132,5.1902,5.2091,5.1739,5.1367,5.1217,5.1217,5.1217,5.1217,5.1217,5.1217,5.1217,5.1217,5.1217,5.1217,5.1217,5.1217,5.1217,5.1217,5.1217,5.1217,5.1217,5.1217,5.1217,5.1217,5.1217,4.4828,4.648,4.6651,4.8259,5.0485,4.8611,4.894,5.0878,5.1144,5.1097,5.0748,4.8614,4.6837,4.5674,4.4928,4.4017,4.3352,4.3058,4.3,4.3,4.3,4.3,4.3,4.3,4.3,4.3,4.3,4.3,4.3,4.3,4.2807,4.2307,4.0577,3.8417,3.7344,3.5663,3.4086,3.3829,3.3481,3.3597,3.4242,3.5211,3.6902,3.842,3.9957,4.1545,4.2571,4.3,4.3,4.3,4.3,4.3,4.3,4.3,4.3,4.3013,4.3189,4.2532,4.1825,4.1768,4.0781,3.9594,3.8386,3.7749,3.7433,3.6805,3.6007,3.5836,3.5925,3.5959,3.5999,3.6008,3.6008,3.6008,3.6008,3.6059,3.6076,3.6127,3.6236,3.6396,3.8088,3.979,4.1378,4.3016,4.5113,4.7795,4.9663,5.1099,5.2161,5.2543,5.3092,5.2795,5.2217,5.1831,5.1337,5.1217,5.1217,5.1217,5.1217,5.1217,5.1217,5.1217,5.1217,5.1217,5.1217,5.1217,5.1217,5.1217,5.1217,5.1217,5.1217,5.1217,5.1217,5.1217,5.1217,4.5242,4.7982,4.8463,4.9369,5.0215,4.9737,5.0247,5.1087,5.1217,5.1217,5.1061,5.0713,4.9149,4.6591,4.5422,4.429,4.3156,4.3,4.3,4.3,4.3,4.3,4.3,4.3,4.3,4.3,4.3,4.3,4.3,4.3,4.296,4.2765,4.1191,3.9332,3.7884,3.6051,3.4373,3.3855,3.3761,3.4033,3.5535,3.6569,3.7596,3.9229,4.1021,4.218,4.296,4.3,4.3,4.3,4.3,4.3,4.3025,4.3035,4.3003,4.2818,4.3008,4.2198,4.1475,4.132,4.0331,3.8397,3.755,3.7456,3.7028,3.6404,3.5942,3.5942,3.5989,3.5989,3.6008,3.6008,3.6008,3.6008,3.6008,3.6169,3.6261,3.6522,3.6765,3.7988,3.9693,4.125,4.2726,4.4208,4.5515,4.7802,4.9266,5.063,5.148,5.2707,5.4055,5.3381,5.2598,5.1962,5.1337,5.1232,5.1217,5.1217,5.1217,5.1217,5.1217,5.1217,5.1217,5.1217,5.1217,5.1217,5.1217,5.1217,5.1217,5.1217,5.1217,5.1217,5.1217,5.1217,5.1217]}]]